[[{"header":{"parameterUnit":"m.s-1","parameterCategory":1,"la1":30.6,"la2":29.2853,"lo1":-89.7004,"lo2":-87.6739,"dx":0.0162,"dy":0.0183,"nx":112,"ny":82,"refTime":"2022-12-13T06:00:00:Z","depth":0,"parameterNumber":2,"parameterNumberName":"U-component_of_WINDS"},"data":[0.0,0.0,0.0,0.0,0.0,0.0,0.0,0.0,0.0,0.0,0.0,0.0,0.0,0.0,0.0,0.0,0.0,0.0,0.0,0.0,0.0,0.0,0.0,0.0,0.0,0.0,0.0,0.0,0.0,0.0,0.0,0.0,0.0,0.0,0.0,0.0,0.0,0.0,0.0,0.0,0.0,0.0,0.0,0.0,0.0,0.0,0.0,0.0,0.0,0.0,0.0,0.0,0.0,0.0,0.0,0.0,0.0,0.0,0.0,0.0,0.0,0.0,0.0,0.0,0.0,0.0,0.0,0.0,0.0,0.0,0.0,0.0,0.0,0.0,0.0,0.0,0.0,0.0,0.0,0.0,0.0,0.0,0.0,0.0,0.0,0.0,0.0,0.0,0.0,0.0,1.5369,1.5743,1.6964,1.7755,1.7755,1.7434,1.6622,1.515,0.0,0.0,0.0,0.0,0.0,0.0,0.0,0.0,0.0,0.0,0.0,0.0,0.0,0.0,0.0,0.0,0.0,0.0,0.0,0.0,0.0,0.0,0.0,0.0,0.0,0.0,0.0,0.0,0.0,0.0,0.0,0.0,0.0,0.0,0.0,0.0,0.0,0.0,0.0,0.0,0.0,0.0,0.0,0.0,0.0,0.0,0.0,0.0,0.0,0.0,0.0,0.0,0.0,0.0,0.0,0.0,0.0,0.0,0.0,0.0,0.0,0.0,0.0,0.0,0.0,0.0,0.0,0.0,0.0,0.0,0.0,0.0,0.0,0.0,0.0,0.0,0.0,0.0,0.0,0.0,0.0,0.0,0.0,0.0,0.0,0.0,0.0,0.0,0.0,0.0,0.0,0.0,0.0,0.0,0.0,0.0,0.0,0.0,0.0,0.0,0.0,0.0,0.0,0.0,1.6352,1.7857,1.8221,1.8357,1.8357,1.7862,1.6885,1.5345,0.0,0.0,0.0,0.0,0.0,0.0,0.0,0.0,0.0,0.0,0.0,0.0,0.0,0.0,0.0,0.0,0.0,0.0,0.0,0.0,0.0,0.0,0.0,0.0,0.0,0.0,0.0,0.0,0.0,0.0,0.0,0.0,0.0,0.0,0.0,0.0,0.0,0.0,0.0,0.0,0.0,0.0,0.0,0.0,0.0,0.0,0.0,0.0,0.0,0.0,0.0,0.0,0.0,0.0,0.0,0.0,0.0,0.0,0.0,0.0,0.0,0.0,0.0,0.0,0.0,0.0,0.0,0.0,0.0,0.0,0.0,0.0,0.0,0.0,0.0,0.0,0.0,0.0,0.0,0.0,0.0,0.0,0.0,0.0,0.0,0.0,0.0,0.0,0.0,0.0,0.0,0.0,0.0,0.0,0.0,0.0,0.0,0.0,0.0,0.0,0.0,0.0,0.0,1.5223,1.6832,1.834,1.8343,1.8289,1.8477,1.8252,1.7435,1.5943,1.5761,0.0,0.0,0.0,0.0,0.0,0.0,0.0,0.0,0.0,0.0,0.0,0.0,0.0,0.0,0.0,0.0,0.0,0.0,0.0,0.0,0.0,0.0,0.0,0.0,0.0,0.0,0.0,0.0,0.0,0.0,0.0,0.0,0.0,0.0,0.0,0.0,0.0,0.0,0.0,0.0,0.0,0.0,0.0,0.0,0.0,0.0,0.0,0.0,0.0,0.0,0.0,0.0,0.0,0.0,0.0,0.0,0.0,0.0,0.0,0.0,0.0,0.0,0.0,0.0,0.0,0.0,0.0,0.0,0.0,0.0,0.0,0.0,0.0,0.0,0.0,0.0,0.0,0.0,0.0,0.0,0.0,0.0,0.0,0.0,0.0,0.0,0.0,0.0,0.0,0.0,0.0,0.0,0.0,0.0,0.0,0.0,0.0,0.0,0.0,0.0,0.0,0.0,1.663,1.7626,1.8607,1.8596,1.8569,1.8691,1.8712,1.8116,1.671,1.6668,0.0,0.0,0.0,0.0,0.0,0.0,0.0,0.0,0.0,0.0,0.0,0.0,0.0,0.0,0.0,0.0,0.0,0.0,0.0,0.0,0.0,0.0,0.0,0.0,0.0,0.0,0.0,0.0,0.0,0.0,0.0,0.0,0.0,0.0,0.0,0.0,0.0,0.0,0.0,0.0,0.0,0.0,0.0,0.0,0.0,0.0,0.0,0.0,0.0,0.0,0.0,0.0,0.0,0.0,0.0,0.0,0.0,0.0,0.0,0.0,0.0,0.0,0.0,0.0,0.0,0.0,0.0,0.0,0.0,0.0,0.0,0.0,0.0,0.0,0.0,0.0,0.0,0.0,0.0,0.0,0.0,0.0,0.0,0.0,0.0,0.0,0.0,0.0,0.0,0.0,0.0,0.0,0.0,0.0,0.0,0.0,0.0,0.0,0.0,0.0,0.0,0.0,1.7406,1.9248,1.9334,1.9773,1.9837,1.9374,1.935,1.8827,1.7595,1.7006,0.0,0.0,0.0,0.0,0.0,0.0,0.0,0.0,0.0,0.0,0.0,0.0,0.0,0.0,0.0,0.0,0.0,0.0,0.0,0.0,0.0,0.0,0.0,0.0,0.0,0.0,0.0,0.0,0.0,0.0,0.0,0.0,0.0,0.0,0.0,0.0,0.0,0.0,0.0,0.0,0.0,0.0,0.0,0.0,0.0,0.0,0.0,0.0,0.0,0.0,0.0,0.0,0.0,0.0,0.0,0.0,0.0,0.0,0.0,0.0,0.0,0.0,0.0,0.0,0.0,0.0,0.0,0.0,0.0,0.0,0.0,0.0,0.0,0.0,0.0,0.0,0.0,0.0,0.0,0.0,0.0,0.0,0.0,0.0,0.0,0.0,0.0,0.0,0.0,0.0,0.0,0.0,0.0,0.0,0.0,0.0,0.0,0.0,0.0,0.0,0.0,0.0,1.5809,1.75,1.8018,1.9203,1.98,1.9428,1.9737,1.9192,1.7328,0.0,0.0,0.0,0.0,0.0,0.0,0.0,0.0,0.0,0.0,0.0,0.0,0.0,0.0,0.0,0.0,0.0,0.0,0.0,0.0,0.0,0.0,0.0,0.0,0.0,0.0,0.0,0.0,0.0,0.0,0.0,0.0,0.0,0.0,0.0,0.0,0.0,0.0,0.0,0.0,0.0,0.0,0.0,0.0,0.0,0.0,0.0,0.0,0.0,0.0,0.0,0.0,0.0,0.0,0.0,0.0,0.0,0.0,0.0,0.0,0.0,0.0,0.0,0.0,0.0,0.0,0.0,0.0,0.0,0.0,0.0,0.0,0.0,0.0,0.0,0.0,0.0,0.0,0.0,0.0,0.0,0.0,0.0,0.0,0.0,0.0,0.0,0.0,0.0,0.0,0.0,0.0,0.0,0.0,0.0,0.0,0.0,0.0,0.0,0.0,0.0,0.0,1.2975,1.4866,1.645,1.7316,1.8546,1.9384,1.9533,1.998,1.9332,1.715,0.0,0.0,0.0,0.0,0.0,0.0,0.0,0.0,0.0,0.0,0.0,0.0,0.0,0.0,0.0,0.0,0.0,0.0,0.0,0.0,0.0,0.0,0.0,0.0,0.0,0.0,0.0,0.0,0.0,0.0,0.0,0.0,0.0,0.0,0.0,0.0,0.0,0.0,0.0,0.0,0.0,0.0,0.0,0.0,0.0,0.0,0.0,0.0,0.0,0.0,0.0,0.0,0.0,0.0,0.0,0.0,0.0,0.0,0.0,0.0,0.0,0.0,0.0,0.0,0.0,0.0,0.0,0.0,0.0,0.0,0.0,0.0,0.0,0.0,0.0,0.0,0.0,0.0,0.0,0.0,0.0,0.0,0.0,0.0,0.0,0.0,0.0,0.0,0.0,0.0,0.0,0.0,0.0,0.0,0.0,0.0,0.0,0.0,0.0,0.0,0.0,0.0,1.3079,1.496,1.6633,1.7559,1.8022,1.869,1.9694,2.0037,1.9287,0.0,0.0,0.0,0.0,0.0,0.0,0.0,0.0,0.0,0.0,0.0,0.0,0.0,0.0,0.0,0.0,0.0,0.0,0.0,0.0,0.0,0.0,0.0,0.0,0.0,0.0,0.0,0.0,0.0,0.0,0.0,0.0,0.0,0.0,0.0,0.0,0.0,0.0,0.0,0.0,0.0,0.0,0.0,0.0,0.0,0.0,0.0,0.0,0.0,0.0,0.0,0.0,0.0,0.0,0.0,0.0,0.0,0.0,0.0,0.0,0.0,0.0,0.0,0.0,0.0,0.0,0.0,0.0,0.0,0.0,0.0,0.0,0.0,0.0,0.0,0.0,0.0,0.0,0.0,0.0,0.0,0.0,0.0,0.0,0.0,0.0,0.0,0.0,0.0,0.0,0.0,0.0,0.0,0.0,0.0,0.0,0.0,0.0,0.0,0.0,0.0,0.0,0.0,1.2188,1.3805,1.5039,1.5216,1.6288,1.7368,1.8386,1.8906,1.8482,1.677,0.0,0.0,0.0,0.0,0.0,0.0,0.0,0.0,0.0,0.0,0.0,0.0,0.0,0.0,0.0,0.0,0.0,0.0,0.0,0.0,0.0,0.0,0.0,0.0,0.0,0.0,0.0,0.0,0.0,0.0,0.0,0.0,0.0,0.0,0.0,0.0,0.0,0.0,0.0,0.0,0.0,0.0,0.0,0.0,0.0,0.0,0.0,0.0,0.0,0.0,0.0,0.0,0.0,0.0,0.0,0.0,0.0,0.0,0.0,0.0,0.0,0.0,0.0,0.0,0.0,0.0,0.0,0.0,0.0,0.0,0.0,0.0,0.0,0.0,0.0,0.0,0.0,0.0,0.0,0.0,0.0,0.0,0.0,0.0,0.0,0.0,0.0,0.0,0.0,0.0,0.0,0.0,0.0,0.0,0.0,0.0,0.0,0.0,0.0,0.0,0.0,0.0,1.2012,1.2975,1.3852,1.4285,1.5046,1.6031,1.7238,1.8177,1.8105,1.6677,0.0,0.0,0.0,0.0,0.0,0.0,0.0,0.0,0.0,0.0,0.0,0.0,0.0,0.0,0.0,0.0,0.0,0.0,0.0,0.0,0.0,0.0,0.0,0.0,0.0,0.0,0.0,0.0,0.0,0.0,0.0,0.0,0.0,0.0,0.0,0.0,0.0,0.0,0.0,0.0,0.0,0.0,0.0,0.0,0.0,0.0,0.0,0.0,0.0,0.0,0.0,0.0,0.0,0.0,0.0,0.0,0.0,0.0,0.0,0.0,0.0,0.0,0.0,0.0,0.0,0.0,0.0,0.0,0.0,0.0,0.0,0.0,0.0,0.0,0.0,0.0,0.0,0.0,0.0,0.0,0.0,0.0,0.0,0.0,0.0,0.0,0.0,0.0,0.0,0.0,0.0,0.0,0.0,0.0,0.0,0.0,0.0,0.0,0.0,0.0,0.0,0.0,1.2337,1.2507,1.3064,1.4194,1.4127,1.4637,1.616,1.7496,1.7802,1.6772,0.0,0.0,0.0,0.0,0.0,0.0,0.0,0.0,0.0,0.0,0.0,0.0,0.0,0.0,0.0,0.0,0.0,0.0,0.0,0.0,0.0,0.0,0.0,0.0,0.0,0.0,0.0,0.0,0.0,0.0,0.0,0.0,0.0,0.0,0.0,0.0,0.0,0.0,0.0,0.0,0.0,0.0,0.0,0.0,0.0,0.0,0.0,0.0,0.0,0.0,0.0,0.0,0.0,0.0,0.0,0.0,0.0,0.0,0.0,0.0,0.9424,0.9029,0.0,0.0,0.0,0.0,0.0,0.0,0.0,0.0,0.0,0.0,0.0,0.0,0.0,0.0,0.0,0.0,0.0,0.0,0.0,0.0,0.0,0.0,0.0,0.0,0.0,0.0,0.0,0.0,0.0,0.0,0.0,0.0,0.0,0.0,0.0,0.0,0.0,0.0,0.0,0.0,1.2385,1.258,1.2816,1.2991,1.2815,1.325,1.4596,1.5151,1.583,1.6711,1.6894,0.0,0.0,0.0,0.0,0.0,0.0,0.0,0.0,0.0,0.0,0.0,0.0,0.0,0.0,0.0,0.0,0.0,0.0,0.0,0.0,0.0,0.0,0.0,0.0,0.0,0.0,0.0,0.0,0.0,0.0,0.0,0.0,0.0,0.0,0.0,0.0,0.0,0.0,0.0,0.0,0.0,0.0,0.0,0.0,0.0,0.0,0.0,0.0,0.0,0.0,0.0,0.0,0.0,0.0,0.0,0.0,0.0,0.0,0.0,0.994,0.9624,0.0,0.0,0.0,0.0,0.0,0.0,0.0,0.0,0.0,0.0,0.0,0.0,0.0,0.0,0.0,0.0,0.0,0.0,0.0,0.0,0.0,0.0,0.0,0.0,0.0,0.0,0.0,0.0,0.0,0.0,0.0,0.0,0.0,0.0,0.0,0.0,0.0,0.0,0.0,0.0,1.2873,1.2978,1.3059,1.2995,1.2906,1.3112,1.375,1.4519,1.5265,1.5997,1.6789,0.0,0.0,0.0,0.0,0.0,0.0,0.0,0.0,0.0,0.0,0.0,0.0,0.0,0.0,0.0,0.0,0.0,0.0,0.0,0.0,0.0,0.0,0.0,0.0,0.0,0.0,0.0,0.0,0.0,0.0,0.0,0.0,0.0,0.0,0.0,0.0,0.0,0.0,0.0,0.0,0.0,0.0,0.0,0.0,0.0,0.0,0.0,0.0,0.0,0.0,0.0,0.0,0.0,0.7903,0.8447,0.6336,0.8586,0.9832,1.0169,0.9634,0.9805,1.025,0.833,0.0,0.0,0.0,0.0,0.0,0.0,0.0,0.0,0.0,0.0,0.0,0.0,0.0,0.0,0.0,0.0,0.0,0.0,0.0,0.0,0.0,0.0,0.0,0.0,1.249,1.267,1.2345,0.0,0.0,0.0,0.0,0.0,0.0,0.0,0.0,0.0,0.0,0.0,1.3407,1.3484,1.3484,1.3459,1.3484,1.35,1.35,1.4482,1.5134,1.5261,1.6453,1.7007,0.0,0.0,0.0,0.0,0.0,0.0,0.0,0.0,0.0,0.0,0.0,0.0,0.0,0.0,0.0,0.0,0.0,0.0,0.0,0.0,0.0,0.0,0.0,0.0,0.0,0.0,0.0,0.0,0.0,0.0,0.0,0.0,0.1753,0.1756,0.0,0.0,0.0,0.0,0.0,0.0,0.0,0.0,0.0,0.0,0.0,0.0,0.0,0.2395,0.2449,0.4037,0.4677,0.4393,0.6145,0.6821,0.6479,0.6769,0.6934,0.7075,0.8217,0.0,1.0633,0.9366,0.0,0.0,0.0,0.0,0.0,0.0,0.0,0.0,0.0,0.0,0.0,0.0,0.0,0.0,0.0,0.0,0.0,0.0,0.0,0.0,0.0,0.0,1.3421,1.3595,1.3528,1.3455,0.0,1.301,1.2669,1.2694,1.3003,0.0,0.0,0.0,0.0,0.0,0.0,0.0,1.3617,1.3742,1.3774,1.3585,1.3742,1.3831,1.3831,1.3833,1.4353,1.5556,1.5646,1.5668,1.561,1.6691,0.0,0.0,0.0,0.0,0.0,0.0,0.0,0.0,0.0,0.0,0.0,0.0,0.0,0.0,0.0,0.0,0.0,0.0,0.0,0.0,0.0,0.0,0.0,0.0,0.0,0.0,0.0,0.0,0.0,0.1758,0.1821,0.184,0.1724,0.1663,0.0,0.0,0.0,0.0,0.0,0.0,0.0,0.0,0.0,0.2112,0.2936,0.3424,0.3445,0.4858,0.5203,0.442,0.582,0.6091,0.5332,0.6123,0.6449,0.6484,0.7133,0.7796,0.8416,0.8767,0.8778,0.8437,0.0,0.0,0.0,0.0,0.7061,0.7258,0.8953,0.9595,0.9722,0.9856,0.0,0.0,0.0,0.0,0.0,0.0,0.0,0.0,0.0,0.0,1.2856,1.3139,1.3244,1.3259,1.3259,1.3322,1.3433,0.0,1.3563,1.3868,1.438,0.0,0.0,0.0,0.0,1.4042,1.4035,1.412,1.4136,1.4063,1.412,1.416,1.416,1.4095,1.4209,1.4674,1.534,1.5612,1.5299,1.5879,1.5767,0.0,0.0,0.0,0.0,0.0,0.0,0.0,0.0,0.0,0.0,0.0,0.0,0.0,0.0,0.0,0.0,0.0,0.0,0.0,0.0,0.0,0.0,0.0,0.0,0.0,0.0,0.0,0.0,0.1778,0.1798,0.1947,0.1798,0.1738,0.0,0.0,0.0,0.0,0.0,0.0,0.2091,0.2193,0.2237,0.2232,0.3307,0.3871,0.3893,0.5005,0.4975,0.3912,0.4965,0.4897,0.3907,0.495,0.5437,0.5437,0.5824,0.6011,0.6163,0.7597,0.807,0.779,0.6701,0.625,0.6201,0.6073,0.6501,0.7247,0.8256,0.8856,0.9203,0.9007,0.866,0.8086,0.6733,0.0,0.0,0.0,0.0,0.9144,1.0894,1.1576,1.1873,1.2202,1.2699,1.309,1.309,1.3439,1.3758,0.0,1.3977,1.4241,1.4887,0.0,0.0,0.0,1.4509,1.4207,1.4431,1.4468,1.4468,1.4468,1.4508,1.457,1.457,1.4529,1.4354,1.4123,1.5058,1.5406,1.4942,1.5378,1.5701,1.5889,0.0,0.0,0.0,0.0,0.0,0.0,0.0,0.0,0.0,0.0,0.0,0.0,0.0,0.0,0.0,0.0,0.0,0.0,0.0,0.0,0.0,0.0,0.0,0.0,0.0,0.0,0.0,0.0,0.0,0.2133,0.217,0.0,0.0,0.0,0.0,0.1282,0.1549,0.1734,0.1815,0.212,0.23,0.2291,0.2423,0.2515,0.2485,0.2621,0.2637,0.2491,0.2572,0.2556,0.2519,0.2523,0.2509,0.2581,0.3996,0.4681,0.4867,0.61,0.5831,0.4619,0.455,0.4688,0.4882,0.4589,0.6547,0.9098,0.7481,0.7949,0.9068,0.7603,0.6144,0.4929,0.4839,0.3814,0.0,0.0,0.5425,0.5927,0.7772,0.9637,1.1047,1.1085,1.2249,1.3363,1.3363,1.3289,1.3354,0.0,1.4172,1.438,1.4429,0.0,1.4662,1.4633,1.4659,1.4654,1.4692,1.4692,1.4692,1.4692,1.4838,1.4974,1.4974,1.4789,1.4684,1.4667,1.4534,1.4428,1.4276,1.5488,1.5408,1.3805,1.5004,0.0,0.0,0.0,0.0,0.0,0.0,0.0,0.0,0.0,0.0,0.0,0.0,0.0,0.0,0.0,0.0,0.0,0.0,0.0,0.0,0.0,0.0,0.0,0.0,0.0,0.0,0.0,0.0,0.2125,0.2011,0.0,0.2062,0.1897,0.1808,0.1979,0.2097,0.2192,0.223,0.2353,0.2439,0.2412,0.2489,0.2545,0.2534,0.2556,0.2561,0.2511,0.2499,0.2474,0.2473,0.2405,0.2354,0.2391,0.2912,0.3183,0.3267,0.3701,0.4743,0.6133,0.6133,0.6122,0.6068,0.5995,0.6672,0.7562,0.7007,0.7211,0.7682,0.728,0.677,0.6302,0.6291,0.6089,0.5954,0.6596,0.6871,0.7111,0.7764,0.8356,0.8795,0.8795,0.933,1.0164,1.1247,1.1638,1.2155,1.3401,1.3962,1.4302,1.4657,1.4803,1.4954,1.5161,1.5029,1.4871,1.4871,1.4871,1.4871,1.4871,1.4966,1.5006,1.5006,1.4949,1.483,1.4716,1.4643,1.4481,1.4225,1.4754,1.5011,1.4963,1.5889,1.6658,0.0,0.0,0.0,0.0,0.0,0.0,0.0,0.0,0.0,0.0,0.0,0.0,0.0,0.0,0.0,0.0,0.0,0.0,0.0,0.0,0.0,0.0,0.0,0.0,0.0,0.205,0.2079,0.2172,0.2062,0.2092,0.235,0.2183,0.2171,0.2436,0.2458,0.2482,0.2512,0.2533,0.2544,0.2544,0.2574,0.2585,0.2614,0.2585,0.2589,0.2589,0.2548,0.2534,0.2584,0.2512,0.246,0.246,0.2449,0.2484,0.2482,0.2473,0.3698,0.557,0.554,0.5801,0.6118,0.5556,0.5975,0.6784,0.6255,0.5774,0.5418,0.5569,0.5621,0.5606,0.5628,0.5807,0.5987,0.5969,0.6048,0.6126,0.6152,0.6499,0.6845,0.6845,0.7377,0.8211,0.9332,0.9711,1.0163,1.1289,1.2835,1.4122,1.4719,1.482,1.492,1.5305,1.5214,1.5067,1.5032,1.5109,1.5155,1.5155,1.5155,1.5155,1.5155,1.526,1.5204,1.4903,1.5,1.4854,1.4375,1.4643,1.4981,1.5453,1.6305,1.6885,1.7207,0.0,0.0,0.0,0.0,0.0,0.0,0.0,0.0,0.0,0.0,0.0,0.0,0.0,0.0,0.0,0.0,0.0,0.0,0.0,0.0,0.0,0.0,0.0,0.2064,0.1952,0.1943,0.2253,0.2345,0.2441,0.2502,0.2509,0.2535,0.2595,0.2602,0.2614,0.2601,0.2605,0.2605,0.2605,0.2594,0.2595,0.2608,0.2595,0.261,0.261,0.2609,0.2624,0.2692,0.2621,0.2606,0.2603,0.2616,0.2602,0.26,0.2613,0.2602,0.2592,0.2462,0.3433,0.4734,0.3086,0.4468,0.6911,0.5205,0.3637,0.2433,0.2465,0.2495,0.2523,0.2595,0.2624,0.2611,0.2599,0.2607,0.2614,0.2684,0.3982,0.533,0.533,0.6564,0.7727,0.7813,0.7639,0.7553,0.7592,1.0803,1.3726,1.4391,1.4446,1.4548,1.5013,1.5154,0.0,1.5085,1.5345,1.552,1.552,1.5528,1.5528,1.5528,1.5796,1.5772,1.5245,1.5569,1.5455,1.4757,1.5228,1.5333,1.5006,1.6144,1.6055,1.4724,0.0,0.0,0.0,0.0,0.0,0.0,0.0,0.0,0.0,0.0,0.0,0.0,0.0,0.0,0.0,0.0,0.0,0.0,0.0,0.0,0.0,0.1528,0.1881,0.2146,0.2213,0.2264,0.2287,0.2394,0.2488,0.2506,0.2548,0.2581,0.2599,0.26,0.2586,0.2593,0.2634,0.2658,0.2658,0.2729,0.2742,0.2733,0.2742,0.2746,0.2746,0.2681,0.2675,0.2681,0.2694,0.2626,0.2605,0.2597,0.2581,0.2601,0.2593,0.259,0.2583,0.2515,0.2766,0.3125,0.2658,0.3047,0.3751,0.3342,0.2916,0.253,0.2581,0.2563,0.2575,0.2646,0.2661,0.2669,0.2677,0.268,0.2682,0.269,0.3077,0.3463,0.3463,0.3776,0.4373,0.5604,0.5836,0.6147,0.7378,0.8496,0.9826,1.162,1.3237,1.4298,1.4441,1.47,0.0,1.4889,1.5225,1.5561,1.5691,1.5699,1.5699,1.5699,1.5788,1.5731,1.5455,1.5536,1.5439,1.5067,1.5197,1.5204,1.5006,1.5332,1.5335,0.0,0.0,0.0,0.0,0.0,0.0,0.0,0.0,0.0,0.0,0.0,0.0,0.0,0.0,0.0,0.0,0.0,0.0,0.0,0.0,0.0,0.0,0.1842,0.2137,0.2304,0.2372,0.2395,0.239,0.2448,0.2493,0.2545,0.2589,0.2628,0.2654,0.2658,0.2649,0.2661,0.2737,0.2757,0.2757,0.2774,0.2784,0.2784,0.2796,0.2808,0.2822,0.2815,0.2819,0.283,0.28,0.2776,0.2715,0.2691,0.2671,0.2695,0.2669,0.2658,0.0,0.0,0.0,0.0,0.0,0.2551,0.2553,0.2571,0.2617,0.2583,0.2617,0.2595,0.2609,0.2626,0.2683,0.2692,0.2692,0.2692,0.2695,0.2707,0.2721,0.2733,0.2747,0.2746,0.2994,0.3915,0.4145,0.4411,0.5391,0.6215,0.0,0.8414,1.1021,1.297,1.3076,1.4285,1.5126,1.5058,1.5597,1.5999,1.6097,1.6154,1.6122,1.5999,1.6137,0.0,0.0,0.0,1.5723,1.5545,1.5391,0.0,0.0,0.0,0.0,0.0,0.0,0.0,0.0,1.6432,1.6378,0.0,0.0,0.0,0.0,0.0,0.0,0.0,0.0,0.0,0.0,0.0,0.0,0.0,0.0,0.0,0.0,0.2146,0.2394,0.2362,0.2299,0.2327,0.2466,0.2499,0.253,0.2597,0.2589,0.263,0.2683,0.2716,0.2746,0.2777,0.2785,0.0,0.0,0.0,0.2799,0.2799,0.2825,0.2853,0.293,0.2905,0.2932,0.3006,0.293,0.2915,0.2908,0.2856,0.2786,0.2775,0.2722,0.27,0.2692,0.2646,0.2612,0.2612,0.2612,0.2612,0.2612,0.2612,0.0,0.0,0.2616,0.2594,0.2617,0.262,0.2682,0.2702,0.2702,0.2702,0.2709,0.2693,0.2763,0.2789,0.2816,0.2844,0.2856,0.2829,0.2779,0.2815,0.2788,0.4082,0.5209,0.5214,0.829,1.087,1.1148,1.3497,1.5185,1.5082,1.5945,1.6592,1.6609,0.0,0.0,1.6381,1.6623,1.6525,1.5951,1.6105,1.6178,1.5983,1.561,1.5463,1.5488,1.5262,1.5011,1.4741,1.511,1.5354,1.5547,1.538,1.535,0.0,0.0,0.0,0.0,0.0,0.0,0.0,0.0,0.0,0.0,0.0,0.0,0.0,0.0,0.0,0.0932,0.1473,0.1825,0.1584,0.1494,0.1712,0.2433,0.2557,0.2593,0.2599,0.2607,0.2602,0.2614,0.2684,0.2714,0.2701,0.275,0.2819,0.2819,0.2866,0.289,0.289,0.2896,0.2915,0.2991,0.2926,0.0,0.3006,0.293,0.2904,0.2882,0.287,0.2837,0.2791,0.278,0.2774,0.2767,0.2701,0.2675,0.2675,0.2675,0.2675,0.2675,0.2675,0.2675,0.2679,0.2661,0.2673,0.2683,0.275,0.2761,0.0,0.2766,0.2766,0.2767,0.2773,0.2778,0.2785,0.2791,0.2796,0.2799,0.2793,0.2792,0.2791,0.2784,0.3087,0.3312,0.3341,0.6289,0.8723,0.8779,1.1218,1.3028,1.3,1.5092,1.6633,1.6744,1.676,1.6744,1.6704,1.6768,1.6687,1.6438,1.6122,1.5861,1.5829,1.5342,1.5139,1.5254,1.5114,1.5023,1.4958,1.5026,1.5124,1.5304,1.5769,1.5991,0.0,0.0,0.0,0.0,0.0,0.0,0.0,0.0,0.0,0.0,0.0,0.0891,0.0647,0.0,0.1168,0.0963,0.1271,0.1505,0.1339,0.1282,0.1423,0.1847,0.1915,0.1937,0.1937,0.1935,0.2048,0.2313,0.2179,0.2253,0.276,0.2613,0.2628,0.2852,0.2879,0.2896,0.2896,0.2909,0.2924,0.2939,0.2939,0.2946,0.3007,0.2946,0.2931,0.2963,0.2901,0.2878,0.2848,0.2834,0.2829,0.2826,0.2795,0.2765,0.2737,0.2737,0.2737,0.2737,0.2737,0.2737,0.274,0.2755,0.2761,0.2763,0.2778,0.2784,0.2784,0.2784,0.2784,0.2787,0.2801,0.2806,0.281,0.2825,0.2829,0.2829,0.2829,0.2829,0.2833,0.2846,0.2849,0.2859,0.289,0.4363,0.5842,0.675,0.9368,1.1553,1.2469,1.4265,1.5828,1.6843,1.6939,1.6906,1.6817,1.6728,1.6674,1.6584,1.6243,1.6081,1.6211,1.5698,1.5374,1.5335,1.5106,1.4958,1.4838,1.4838,1.4976,1.5197,1.5482,1.5692,0.0,0.0,0.0,0.0,0.0,0.0,0.0,0.0714,0.0718,0.0739,0.075,0.0724,0.0629,0.0674,0.0801,0.1027,0.1139,0.1134,0.107,0.1057,0.1047,0.105,0.1181,0.1311,0.1311,0.1295,0.1488,0.193,0.1614,0.177,0.2684,0.2377,0.2425,0.2874,0.2879,0.2882,0.2882,0.2911,0.2928,0.2934,0.2958,0.302,0.3025,0.302,0.3017,0.3014,0.2938,0.2924,0.2923,0.29,0.2937,0.2937,0.2937,0.2857,0.2808,0.2803,0.2801,0.2801,0.2801,0.2801,0.2801,0.2801,0.2801,0.2801,0.2801,0.2801,0.2801,0.2801,0.2801,0.2808,0.2838,0.2801,0.2853,0.2883,0.2937,0.2937,0.2937,0.2937,0.2898,0.292,0.2924,0.2932,0.3003,0.3007,0.3542,0.5063,0.7694,1.0198,1.2206,1.3591,1.51,1.6949,1.7161,1.7096,1.6874,1.6771,1.6665,1.6633,1.6462,1.6422,1.6576,1.6056,1.5723,1.5586,1.526,1.5009,1.4862,1.4862,1.5033,1.5302,1.5228,1.5301,-0.312,-0.284,-0.141,0.0212,0.0606,0.0685,0.0,0.1174,0.1213,0.1218,0.1228,0.1076,0.0687,0.094,0.0986,0.0245,0.0492,0.0617,0.0204,0.0164,0.0166,0.0125,0.0838,0.1299,0.1299,0.1283,0.1343,0.1389,0.1349,0.1575,0.2168,0.2189,0.2425,0.2874,0.2898,0.2912,0.2912,0.2941,0.2969,0.2996,0.3001,0.3016,0.3089,0.3014,0.3002,0.3001,0.2969,0.3002,0.3002,0.2999,0.2998,0.2998,0.2998,0.2931,0.2898,0.2872,0.2909,0.2909,0.2909,0.2909,0.2909,0.2909,0.2909,0.2909,0.2909,0.2909,0.2909,0.2909,0.2909,0.2871,0.2898,0.2906,0.2913,0.2991,0.2998,0.2998,0.2998,0.2998,0.2999,0.3002,0.3002,0.3003,0.3007,0.3007,0.3191,0.3829,0.6029,0.8499,1.0962,1.3205,1.5302,1.7149,1.7356,1.7283,1.7096,1.7063,1.699,1.6793,1.6649,1.656,1.6584,1.6056,1.5837,1.5942,1.5594,1.5447,1.5423,1.5423,1.5528,1.5755,1.5861,1.574,-0.2536,-0.2394,-0.1574,0.0184,0.0589,0.0628,0.0804,0.0883,0.0887,0.0875,0.0889,0.0776,0.0328,0.0413,0.0414,0.0042,0.0165,0.0205,0.0041,0.0,-0.042,-0.1569,-0.0387,0.0086,-0.1028,-0.013,0.0219,-0.0614,0.0088,0.089,0.1665,0.1763,0.1998,0.2467,0.2799,0.2942,0.2942,0.3002,0.3014,0.298,0.298,0.3034,0.3046,0.3032,0.298,0.298,0.3013,0.3007,0.3007,0.3007,0.3007,0.3007,0.3007,0.3,0.2939,0.2909,0.2898,0.2898,0.2898,0.2911,0.297,0.297,0.297,0.297,0.297,0.297,0.297,0.297,0.297,0.2973,0.2939,0.2942,0.2946,0.3004,0.3007,0.3007,0.3007,0.3007,0.3013,0.2984,0.2988,0.2994,0.3058,0.3061,0.3202,0.3675,0.4799,0.6512,0.8986,1.0412,1.2409,1.5452,1.6806,1.7457,1.7384,1.7331,1.7242,1.7169,1.699,1.6885,1.6885,1.647,1.6227,1.6194,1.5845,1.5618,1.5512,1.5618,1.5756,1.5934,1.5966,1.6039,-0.2347,-0.2304,-0.2181,-0.0076,0.0531,0.057,0.0467,0.0509,0.0433,-0.0201,-0.0327,-0.0414,-0.0706,-0.0748,-0.0583,-0.0084,-0.0414,-0.0743,-0.0798,-0.1223,-0.1868,-0.2797,-0.1661,-0.1367,-0.2771,-0.1149,-0.0444,-0.1423,-0.0583,0.0362,0.1144,0.1374,0.1699,0.2174,0.273,0.3007,0.3007,0.3016,0.302,0.302,0.3029,0.3034,0.3034,0.3034,0.3034,0.3034,0.3034,0.3034,0.3034,0.3034,0.3034,0.3034,0.3034,0.3028,0.2971,0.2949,0.2935,0.2928,0.2928,0.2943,0.3007,0.3007,0.3007,0.3007,0.3007,0.3007,0.3007,0.3007,0.3007,0.301,0.3018,0.302,0.3022,0.3031,0.3034,0.3034,0.3034,0.3034,0.3039,0.3016,0.302,0.3026,0.3096,0.31,0.3243,0.372,0.4051,0.5176,0.7771,0.8998,1.0732,1.3538,1.5104,1.5947,1.5947,1.6348,1.6646,1.6646,1.702,1.7258,1.7258,1.6917,1.6665,1.6527,1.6178,1.5934,1.5813,1.5934,1.6064,1.6153,1.6201,1.6363,-0.3671,-0.3555,-0.3935,-0.0768,0.0311,0.0513,0.0121,0.0325,0.0,-0.2141,-0.2601,-0.2611,-0.2598,-0.2604,-0.2051,-0.029,-0.1461,-0.2645,-0.2772,-0.428,-0.4729,-0.3076,-0.2865,-0.2845,-0.2902,-0.1127,0.0,-0.0046,-0.0046,0.0229,0.0694,0.1204,0.1712,0.2175,0.273,0.3007,0.3007,0.2991,0.3005,0.3006,0.3083,0.3097,0.3097,0.3097,0.3097,0.3097,0.3097,0.3097,0.3097,0.3097,0.3097,0.3097,0.3097,0.3078,0.3005,0.3005,0.2986,0.3006,0.3006,0.3007,0.3007,0.3007,0.3007,0.3007,0.3007,0.3007,0.3007,0.3007,0.3007,0.3014,0.2998,0.3005,0.3013,0.309,0.3097,0.3097,0.3097,0.3097,0.3097,0.3099,0.3099,0.3099,0.31,0.31,0.3243,0.372,0.3813,0.4904,0.7981,1.0395,1.1862,1.1955,1.1851,1.1786,1.1786,1.3567,1.4667,1.4667,1.6484,1.7578,1.7578,1.7283,1.7088,1.7088,1.6738,1.6552,1.6594,1.6552,1.656,1.6568,1.6704,1.6793,-0.6623,-0.634,-0.6203,-0.4093,-0.3478,-0.3421,-0.3557,-0.3488,-0.3582,-0.4329,-0.4438,-0.4388,-0.4482,-0.4436,-0.4201,-0.3668,-0.4078,-0.4507,-0.4616,-0.4072,-0.3904,-0.4661,-0.2529,-0.148,-0.2773,-0.1136,-0.0546,-0.1839,-0.0737,0.0046,0.0234,0.0749,0.1126,0.1274,0.2077,0.2549,0.2549,0.289,0.3085,0.3085,0.3094,0.31,0.31,0.31,0.31,0.31,0.31,0.31,0.31,0.31,0.31,0.31,0.31,0.3093,0.3085,0.3085,0.3078,0.3065,0.2998,0.3052,0.307,0.307,0.307,0.307,0.307,0.307,0.307,0.307,0.307,0.3071,0.3082,0.3085,0.3088,0.3097,0.31,0.31,0.31,0.31,0.31,0.31,0.31,0.31,0.31,0.31,0.3243,0.372,0.4387,0.5149,0.6191,0.8531,1.0061,1.0061,1.1158,1.1932,1.1932,1.2459,1.2823,1.2823,1.3343,1.3613,1.3613,1.4702,1.5312,1.5312,1.639,1.6933,1.6933,1.7055,1.7112,1.712,1.7246,1.7327,-0.8098,-0.7777,-0.7436,-0.5822,-0.5384,-0.5401,-0.5383,-0.5394,-0.5574,-0.6241,-0.6295,-0.6228,-0.6292,-0.6282,-0.6054,-0.5413,-0.5924,-0.6176,-0.5565,-0.5069,-0.4993,-0.5618,-0.358,-0.2579,-0.3837,-0.2205,-0.1293,-0.1813,-0.0698,0.0,0.0,0.052,0.0805,0.081,0.1764,0.2288,0.2288,0.2814,0.31,0.31,0.31,0.31,0.31,0.31,0.31,0.31,0.31,0.31,0.31,0.31,0.31,0.31,0.31,0.31,0.31,0.31,0.31,0.3097,0.3029,0.3083,0.31,0.31,0.31,0.31,0.31,0.31,0.31,0.31,0.31,0.31,0.31,0.31,0.31,0.31,0.31,0.31,0.31,0.31,0.31,0.31,0.31,0.31,0.31,0.31,0.3195,0.3481,0.4387,0.5101,0.5292,0.69,0.8036,0.8036,0.9169,0.9973,0.9973,1.0521,1.0904,1.0904,1.1444,1.1773,1.1773,1.2895,1.3511,1.3511,1.4592,1.5141,1.5148,1.5248,1.5343,1.535,1.6129,1.6545,-0.8269,-0.8033,-0.7835,-0.6107,-0.5657,-0.5672,-0.5691,-0.5664,-0.6166,-0.7885,-0.8215,-0.819,-0.8065,-0.8161,-0.7649,-0.5793,-0.7108,-0.775,-0.6018,-0.7302,-0.7772,-0.6032,-0.5872,-0.5888,-0.5902,-0.4242,-0.2301,-0.0282,-0.0047,0.0,0.0,0.0477,0.0763,0.0763,0.1716,0.2241,0.2241,0.2814,0.31,0.3052,0.31,0.31,0.31,0.31,0.31,0.31,0.31,0.31,0.31,0.31,0.31,0.31,0.31,0.31,0.31,0.31,0.31,0.31,0.31,0.31,0.31,0.31,0.31,0.31,0.31,0.31,0.31,0.31,0.31,0.31,0.31,0.31,0.31,0.31,0.31,0.31,0.31,0.31,0.31,0.31,0.3101,0.3103,0.3103,0.3103,0.3104,0.3104,0.3963,0.4772,0.5197,0.5765,0.6098,0.6098,0.6098,0.6098,0.6098,0.7846,0.8932,0.8932,1.0725,1.181,1.181,1.1751,1.1785,1.1785,1.1678,1.1625,1.1625,1.1625,1.1625,1.167,1.3599,1.4466,-1.0014,-0.9958,-0.9876,-0.946,-0.9354,-0.9359,-0.9346,-0.9351,-0.9476,-0.994,-0.9998,-0.9983,-1.0121,-1.0059,-0.9913,-0.9506,-0.9859,-1.0104,-0.974,-0.8865,-0.8149,-0.7899,-0.6684,-0.5888,-0.5902,-0.5543,-0.4465,-0.237,-0.0855,0.0,0.0,0.0143,0.0191,0.0191,0.0858,0.1335,0.1716,0.2622,0.2909,0.2527,0.2909,0.31,0.31,0.31,0.31,0.31,0.31,0.31,0.31,0.31,0.31,0.31,0.31,0.31,0.31,0.31,0.31,0.31,0.31,0.31,0.31,0.31,0.31,0.31,0.31,0.31,0.31,0.31,0.31,0.31,0.31,0.31,0.31,0.31,0.31,0.31,0.31,0.31,0.31,0.31,0.3118,0.3086,0.3086,0.3104,0.3119,0.3119,0.3996,0.4701,0.4776,0.5575,0.6098,0.6098,0.6098,0.6098,0.6098,0.6571,0.6856,0.6856,0.7328,0.7612,0.7612,0.9054,0.9792,0.9792,1.1225,1.1959,1.1959,1.1959,1.1959,1.1959,1.252,1.2754,-1.0606,-1.0645,-1.065,-1.0679,-1.0695,-1.0695,-1.0695,-1.0695,-1.0712,-1.0766,-1.0721,-1.0677,-1.0771,-1.0739,-1.0717,-1.0787,-1.0927,-1.0741,-1.0024,-0.9026,-0.8433,-0.8575,-0.7798,-0.7565,-0.8393,-0.7853,-0.6942,-0.575,-0.2952,-0.0954,-0.0048,0.0,0.0,0.0,0.0524,0.1003,0.1487,0.2112,0.2261,0.1932,0.2512,0.2754,0.2754,0.2995,0.3092,0.3092,0.3092,0.3092,0.3092,0.3092,0.3092,0.3092,0.3092,0.3092,0.3092,0.3092,0.3092,0.3092,0.3092,0.3092,0.3088,0.3108,0.31,0.31,0.31,0.31,0.31,0.31,0.31,0.3103,0.3117,0.3119,0.3124,0.3089,0.3092,0.3092,0.3092,0.3092,0.3092,0.3092,0.3106,0.3118,0.3118,0.3082,0.3093,0.3093,0.3829,0.4399,0.4641,0.5531,0.6136,0.6136,0.6115,0.6098,0.6098,0.6098,0.6098,0.6098,0.6098,0.6098,0.6098,0.7185,0.7802,0.7802,0.8885,0.9453,0.9453,0.9453,0.9453,0.95,1.0351,1.0777,-1.0582,-1.0655,-1.0695,-1.0695,-1.0695,-1.0695,-1.0695,-1.0695,-1.0722,-1.0831,-1.0771,-1.0701,-1.0717,-1.0706,-1.0706,-1.0739,-1.0949,-1.0556,-0.9009,-0.8875,-0.8975,-0.8988,-0.9159,-0.9968,-1.1635,-1.0432,-0.941,-0.9122,-0.5562,-0.2523,-0.0525,-0.0143,0.0,0.0,0.0526,0.0961,0.1309,0.1454,0.146,0.1423,0.1964,0.221,0.221,0.2651,0.2897,0.2897,0.2897,0.2946,0.2995,0.2995,0.3044,0.3093,0.3093,0.3093,0.3093,0.3093,0.3093,0.3093,0.3093,0.3093,0.3085,0.3081,0.3112,0.3112,0.3112,0.3112,0.3112,0.3112,0.3112,0.3118,0.3097,0.3103,0.311,0.3088,0.3093,0.3093,0.3093,0.3093,0.3093,0.3093,0.3097,0.31,0.31,0.3103,0.3105,0.3105,0.3547,0.4089,0.463,0.5512,0.6153,0.6202,0.6153,0.6123,0.6123,0.6123,0.6123,0.6123,0.6123,0.6117,0.6109,0.6109,0.6106,0.6098,0.6098,0.6098,0.6098,0.6098,0.6098,0.6146,0.7894,0.8696,-1.0645,-1.0679,-1.0695,-1.0695,-1.0695,-1.0695,-1.0695,-1.0695,-1.0701,-1.0722,-1.0712,-1.0728,-1.0825,-1.0766,-1.076,-1.1003,-1.0992,-1.0897,-1.0801,-1.0804,-1.0851,-1.0994,-1.1168,-1.1452,-1.1773,-1.1704,-1.0933,-0.9216,-0.6891,-0.466,-0.257,-0.0906,0.0,0.0,0.0535,0.0635,0.0245,0.1077,0.1323,0.0933,0.1423,0.162,0.162,0.1718,0.1767,0.1767,0.1767,0.0,0.2455,0.2455,0.2701,0.3093,0.3093,0.3093,0.3093,0.3093,0.3093,0.3093,0.3093,0.3093,0.3092,0.3081,0.3078,0.3078,0.3078,0.3078,0.3078,0.3078,0.3078,0.308,0.3085,0.3085,0.3088,0.3092,0.3093,0.3093,0.3093,0.3093,0.3093,0.3093,0.3163,0.318,0.318,0.32,0.3164,0.3164,0.3618,0.417,0.4724,0.5297,0.5778,0.6216,0.6254,0.6248,0.6248,0.6248,0.6248,0.6248,0.6248,0.6226,0.6175,0.6172,0.615,0.6098,0.6098,0.6098,0.6098,0.6098,0.6098,0.6098,0.6476,0.6618,-1.063,-1.0695,-1.0695,-1.0695,-1.0744,-1.0771,-1.0712,-1.0744,-1.0793,-1.0793,-1.0739,-1.0733,-1.0895,-1.0777,-1.0733,-1.0852,-1.0971,-1.1052,-1.1166,-1.1335,-1.1434,-1.1494,-1.1672,-1.1819,-1.1819,-1.2031,-1.1789,-1.0786,-0.8881,-0.637,-0.3165,-0.111,0.0,0.0,0.0245,0.0246,0.0,0.0494,0.0595,0.0399,0.0897,0.1146,0.1146,0.1445,0.1545,0.1545,0.1844,0.2093,0.2392,0.2641,0.2938,0.3139,0.3139,0.3139,0.3139,0.3139,0.3139,0.3139,0.3139,0.3139,0.3139,0.3139,0.3119,0.3093,0.3093,0.3093,0.3093,0.3093,0.3093,0.3097,0.3163,0.3167,0.317,0.3135,0.3139,0.3139,0.3139,0.3139,0.3139,0.3139,0.32,0.321,0.321,0.3221,0.3179,0.3179,0.3433,0.3786,0.4292,0.481,0.5469,0.628,0.6297,0.6281,0.6281,0.6281,0.6281,0.6281,0.6281,0.6267,0.6237,0.6237,0.6221,0.6194,0.6161,0.6145,0.6145,0.6112,0.6098,0.6098,0.6098,0.6098,-1.0639,-1.0674,-1.0701,-1.0728,-1.0804,-1.0847,-1.0722,-1.0771,-1.0825,-1.0813,-1.0726,-1.0641,-1.0753,-1.071,-1.0619,-1.0619,-1.0867,-1.1041,-1.1096,-1.1324,-1.1472,-1.1499,-1.1672,-1.1819,-1.1819,-1.2031,-1.2219,-1.2219,-0.9994,-0.6966,-0.3245,-0.1126,0.0,0.0,0.0,0.0,0.0,0.0,0.0,0.0,0.0404,0.0606,0.0657,0.1061,0.1263,0.1263,0.1818,0.2121,0.2273,0.2827,0.308,0.3179,0.3179,0.3179,0.3179,0.3179,0.3179,0.3179,0.3179,0.3179,0.3179,0.3179,0.315,0.3112,0.3112,0.3112,0.3112,0.3112,0.3112,0.3117,0.3191,0.3197,0.3202,0.3225,0.3179,0.3179,0.3179,0.3179,0.3179,0.3179,0.3179,0.3179,0.3179,0.3179,0.3179,0.3179,0.3179,0.3382,0.3937,0.4444,0.5185,0.6146,0.6297,0.6319,0.6319,0.6319,0.6319,0.6319,0.6319,0.6313,0.63,0.63,0.6292,0.6281,0.6232,0.6207,0.6207,0.6161,0.6131,0.6117,0.6117,0.6109,-1.0577,-1.0655,-1.0722,-1.0831,-1.0911,-1.0847,-1.0722,-1.0701,-1.0652,-1.0476,-1.0427,-1.0389,-1.0286,-1.0351,-1.0416,-1.0416,-1.0617,-1.0804,-1.1074,-1.121,-1.1374,-1.1488,-1.1672,-1.1819,-1.1819,-1.2031,-1.2219,-1.2219,-0.8606,-0.5475,-0.3278,-0.1137,0.0,0.0,0.0,0.0,0.0,0.0,0.0,0.0,0.0051,0.0051,0.0051,0.0101,0.0152,0.0202,0.0707,0.1212,0.0,0.2273,0.2777,0.3179,0.3179,0.3179,0.3179,0.3179,0.3179,0.3179,0.3179,0.3179,0.3179,0.3179,0.3176,0.3172,0.3172,0.3172,0.3172,0.3172,0.3172,0.3172,0.3175,0.3176,0.3176,0.3179,0.3179,0.3179,0.3179,0.3179,0.3179,0.3179,0.3179,0.3179,0.3179,0.3179,0.3179,0.3179,0.3179,0.3382,0.3937,0.4444,0.5047,0.5695,0.6196,0.6495,0.6495,0.6495,0.6495,0.6495,0.6495,0.647,0.6415,0.6412,0.6385,0.6281,0.6273,0.627,0.627,0.6264,0.6234,0.618,0.618,0.615,-1.0596,-1.0753,-1.0814,-1.0905,-1.082,-1.0755,-1.0706,-1.0628,-1.0498,-1.0405,-1.0384,-1.0346,-1.0226,-1.0402,-1.0457,-1.0199,-1.0547,-1.0814,-1.0878,-1.1107,-1.1363,-1.1483,-1.1672,-1.1819,-1.1819,-1.2031,-1.2232,-1.2379,-0.9749,-0.7866,-0.7166,-0.2602,0.0,0.0,0.0,0.0,0.0,0.0,0.0,0.0,0.0,0.0,0.0,0.0,0.0,0.0051,0.0909,0.1414,0.0,0.2524,0.3029,0.3179,0.3179,0.3179,0.3179,0.3179,0.3179,0.3179,0.3179,0.3179,0.3179,0.3179,0.3179,0.3179,0.3179,0.3179,0.3179,0.3179,0.3179,0.3179,0.3179,0.3179,0.3179,0.3179,0.3179,0.3179,0.3179,0.3179,0.3179,0.3179,0.3179,0.3179,0.3179,0.3179,0.3179,0.3179,0.3179,0.328,0.3483,0.3988,0.4544,0.5099,0.5957,0.6511,0.6511,0.6511,0.6511,0.6511,0.6511,0.65,0.6475,0.6475,0.6464,0.644,0.6401,0.6385,0.6385,0.6297,0.6267,0.6243,0.6204,0.6175,-1.0462,-1.0679,-1.0831,-1.0911,-1.0802,-1.0672,-1.0639,-1.0476,-1.0313,-1.0237,-1.0226,-1.0188,-1.0068,-1.0309,-1.0346,-1.0019,-1.043,-1.0804,-1.0755,-1.1069,-1.139,-1.1586,-1.1743,-1.1884,-1.1917,-1.2107,-1.2314,-1.2472,-1.0616,-0.9571,-0.9707,-0.4132,-0.0959,-0.0959,-0.0353,0.0,0.0,0.0,0.0,0.0,0.0,0.0,0.0,0.0,0.0,0.0051,0.096,0.1465,0.0,0.2575,0.308,0.3179,0.3179,0.3179,0.3179,0.3179,0.3179,0.3179,0.3179,0.3179,0.3179,0.3179,0.3179,0.3179,0.3179,0.3179,0.3179,0.3179,0.3179,0.3179,0.3179,0.3179,0.3179,0.3179,0.3179,0.3179,0.3179,0.3179,0.3179,0.3179,0.3179,0.3179,0.3179,0.3179,0.3179,0.3179,0.3179,0.3179,0.3179,0.3685,0.4139,0.4544,0.5604,0.6309,0.6511,0.6511,0.6511,0.6511,0.6511,0.6511,0.6511,0.6511,0.6511,0.6511,0.647,0.6448,0.6448,0.6404,0.6374,0.6305,0.6262,0.6232,-1.0177,-1.0471,-1.0728,-1.0889,-1.0737,-1.0566,-1.0416,-1.0297,-1.0134,-0.9856,-0.9807,-0.9769,-0.9736,-0.9965,-1.0128,-0.984,-1.0305,-1.0739,-1.0858,-1.1123,-1.1406,-1.177,-1.1917,-1.2036,-1.2203,-1.2329,-1.2449,-1.2477,-1.0616,-0.9571,-0.9707,-0.5539,-0.3176,-0.3176,-0.111,0.0,0.0,0.0,0.0,0.0,0.0,0.0,0.0,0.0,0.0,0.0051,0.0556,0.1111,0.0,0.2172,0.2727,0.3179,0.3179,0.3179,0.3179,0.3179,0.3179,0.3179,0.3179,0.3179,0.3179,0.3179,0.3179,0.3179,0.3179,0.3179,0.3179,0.3179,0.3179,0.3179,0.3179,0.3179,0.3179,0.3179,0.3179,0.3179,0.3179,0.3179,0.3179,0.3179,0.3179,0.3179,0.3179,0.3179,0.3179,0.3179,0.3179,0.3179,0.3179,0.3685,0.3988,0.3988,0.5047,0.5904,0.6461,0.6511,0.6511,0.6511,0.6511,0.6511,0.6511,0.6511,0.6511,0.6511,0.6511,0.6511,0.6511,0.6511,0.6478,0.642,0.6418,0.6385,-0.9921,-1.0221,-1.0487,-1.0438,-1.0248,-1.0079,-1.0128,-0.9981,-0.984,-0.9802,-0.9867,-0.9888,-0.9807,-1.0085,-1.0248,-0.9964,-1.036,-1.0706,-1.0749,-1.1003,-1.1226,-1.1422,-1.1699,-1.1949,-1.2198,-1.2357,-1.2493,-1.2482,-1.2074,-1.1843,-1.1874,-0.9209,-0.6293,-0.3277,-0.111,0.0,0.0,0.0,0.0,0.0,0.0,0.0,0.0,0.0,0.0,0.0051,0.0556,0.1111,0.1667,0.2172,0.2727,0.3179,0.3179,0.3179,0.3179,0.3179,0.3179,0.3179,0.3179,0.3179,0.3179,0.3179,0.3179,0.3179,0.3179,0.3179,0.3179,0.3179,0.3179,0.3179,0.3179,0.3179,0.3179,0.3179,0.3179,0.3179,0.3179,0.3179,0.3179,0.3179,0.3179,0.3179,0.3179,0.3179,0.3179,0.3179,0.3179,0.3179,0.3179,0.3332,0.3584,0.3937,0.4341,0.4946,0.5853,0.6309,0.6511,0.6511,0.6511,0.6511,0.6511,0.6511,0.6511,0.6511,0.6511,0.6511,0.6511,0.6511,0.6481,0.642,0.642,0.6387,-0.9661,-0.997,-1.0231,-1.0155,-0.9954,-0.9807,-0.9888,-0.9807,-0.9704,-0.9775,-0.9861,-0.9905,-0.9872,-1.0134,-1.028,-1.0177,-1.0479,-1.0782,-1.0825,-1.1085,-1.1313,-1.152,-1.1824,-1.2058,-1.2209,-1.2395,-1.2488,-1.2488,-1.2754,-1.289,-1.289,-1.0868,-0.8453,-0.574,-0.2773,-0.1211,-0.1211,-0.0404,0.0,0.0,0.0,0.0,0.0,0.0,0.0,0.0,0.0354,0.0808,0.0,0.1869,0.2424,0.2928,0.313,0.3179,0.3179,0.3179,0.3179,0.3179,0.3179,0.3179,0.3179,0.3179,0.3179,0.3179,0.3179,0.3179,0.3179,0.3179,0.3179,0.3179,0.3179,0.3179,0.3179,0.3179,0.3179,0.3179,0.3179,0.3179,0.3179,0.3179,0.3179,0.3179,0.3179,0.3179,0.3179,0.3179,0.3179,0.3179,0.3179,0.3179,0.3332,0.3685,0.3887,0.4391,0.5299,0.5853,0.6309,0.6511,0.6511,0.6511,0.6511,0.6511,0.6511,0.6511,0.6511,0.6511,0.6511,0.6511,0.6492,0.6453,0.6453,0.6434,0.0,-0.972,-0.9992,-0.9987,-0.9824,-0.9699,-0.9764,-0.9753,0.0,-0.978,-0.9813,-0.9856,-0.9964,-1.0134,-1.0264,-1.0367,-1.0677,-1.0949,-1.1074,-1.1302,-1.163,-1.1933,-1.223,-1.2339,-1.2241,-1.2395,-1.2488,-1.2499,-1.2759,-1.289,-1.289,-1.1018,-0.9911,-0.9911,-0.5841,-0.3529,-0.3227,-0.1211,-0.0151,0.0,0.0,0.0,0.0,0.0,0.0,0.0,0.0,0.0303,0.0909,0.1414,0.1919,0.2525,0.3029,0.3179,0.3179,0.3179,0.3179,0.3179,0.3179,0.3179,0.3179,0.3179,0.3179,0.3179,0.3179,0.3179,0.3179,0.3179,0.3179,0.3179,0.3179,0.3179,0.3179,0.3179,0.3179,0.3179,0.3179,0.3179,0.3179,0.3179,0.3179,0.3179,0.3179,0.3179,0.3179,0.3179,0.3179,0.3179,0.3179,0.3179,0.3179,0.3179,0.3635,0.4139,0.4696,0.5349,0.5904,0.6461,0.6511,0.6511,0.6511,0.6511,0.6511,0.6511,0.6511,0.6511,0.6511,0.6511,0.6511,0.6511,0.6511,0.6511,-0.915,0.0,-0.9731,-0.9633,-0.9639,-0.9714,0.0,-0.9753,-0.9769,-0.9791,-0.9948,-1.0095,-0.9991,-1.0269,-1.0495,-1.0394,-1.0606,-1.0782,-1.0944,-1.1292,-1.1603,-1.1824,-1.1987,-1.2181,-1.2345,-1.2449,-1.2526,-1.2656,-1.2803,-1.289,-1.289,-1.2434,-1.2129,-1.2129,-0.956,-0.6595,-0.3227,-0.2723,-0.1614,0.0,0.0,0.0,0.0,0.0,0.0,0.0,0.0,0.0556,0.1414,0.1566,0.2171,0.3029,0.313,0.3179,0.3179,0.3179,0.3179,0.3179,0.3179,0.3179,0.3179,0.3179,0.3179,0.3179,0.3179,0.3179,0.3179,0.3179,0.3179,0.3179,0.3179,0.3179,0.3179,0.3179,0.3179,0.3179,0.3179,0.3179,0.3179,0.3179,0.3179,0.3179,0.3179,0.3179,0.3179,0.3179,0.3179,0.3179,0.3179,0.3179,0.3179,0.3179,0.3332,0.3584,0.4139,0.5097,0.5904,0.6461,0.6511,0.6511,0.6511,0.6511,0.6511,0.6511,0.6511,0.6511,0.6511,0.6511,0.6511,0.6511,0.6511,0.6511,-0.9033,-0.9313,-0.9487,-0.9421,-0.9497,-0.9638,-0.9693,-0.9802,-0.9899,-0.9953,-1.0155,-1.0286,-1.0269,-1.0471,-1.0617,-1.0558,-1.0791,-1.1047,-1.1177,-1.1465,-1.1688,-1.1873,-1.1998,-1.2192,-1.2383,-1.2466,-1.258,-1.2694,-1.2819,-1.289,-1.289,-1.289,-1.289,-1.289,-1.1778,-0.956,-0.6193,-0.5187,-0.3578,-0.1464,-0.1464,-0.0959,0.0,0.0,0.0,0.0,0.0253,0.0707,0.1263,0.1768,0.2323,0.2878,0.308,0.3179,0.3179,0.3179,0.3179,0.3179,0.3179,0.3179,0.3179,0.3179,0.3179,0.3179,0.3179,0.3179,0.3179,0.3179,0.3179,0.3179,0.3179,0.3179,0.3179,0.3179,0.3179,0.3179,0.3179,0.3179,0.3179,0.3179,0.3179,0.3179,0.3179,0.3179,0.3179,0.3179,0.3179,0.3179,0.3179,0.3179,0.3179,0.3179,0.3179,0.3433,0.3937,0.4543,0.5248,0.6108,0.6158,0.6259,0.6511,0.6511,0.6511,0.6511,0.6511,0.6511,0.6511,0.6511,0.6511,0.6511,0.6511,0.6511,-0.9065,-0.9258,-0.9334,-0.9334,-0.9421,-0.9546,-0.9703,-0.9862,-1.0057,-1.0177,-1.0313,-1.0484,-1.0577,-1.0655,-1.0695,-1.0695,-1.1025,-1.133,-1.1529,-1.1732,-1.1862,-1.1976,-1.2159,-1.2296,-1.2416,-1.2493,-1.2607,-1.2727,-1.283,-1.289,-1.289,-1.289,-1.289,-1.289,-1.289,-1.2029,-1.0212,-0.7998,-0.5839,-0.3679,-0.3679,-0.2723,-0.0959,-0.0959,-0.0808,-0.0454,0.0101,0.0,0.101,0.197,0.2424,0.2576,0.3029,0.3179,0.3179,0.3179,0.3179,0.3179,0.3179,0.3179,0.3179,0.3179,0.3179,0.3179,0.3179,0.3179,0.3179,0.3179,0.3179,0.3179,0.3179,0.3179,0.3179,0.3179,0.3179,0.3179,0.3179,0.3179,0.3179,0.3179,0.3179,0.3179,0.3179,0.3179,0.3179,0.3179,0.3179,0.3179,0.3179,0.3179,0.3179,0.3179,0.3179,0.3382,0.3836,0.3887,0.4341,0.5349,0.5601,0.5954,0.6461,0.6511,0.6511,0.6511,0.6511,0.6511,0.6511,0.6511,0.6511,0.6511,0.6511,0.6511,-0.9258,-0.9449,-0.9459,-0.9459,-0.9552,-0.9709,-0.9786,-0.9883,-1.0057,-1.0177,-1.0418,-1.0577,-1.0593,-1.0655,-1.0695,-1.0695,-1.096,-1.121,-1.1494,-1.1677,-1.1862,-1.1976,-1.2236,-1.2421,-1.2498,-1.2613,-1.2727,-1.2852,-1.2879,-1.289,-1.289,-1.289,-1.289,-1.289,-1.289,-1.2734,-1.2434,-1.0262,-0.8098,-0.5889,-0.5889,-0.5738,-0.5436,-0.5436,-0.4432,-0.2672,0.0,-0.0605,0.1515,0.2121,0.2677,0.308,0.3179,0.3179,0.3179,0.3179,0.3179,0.3179,0.3179,0.3179,0.3179,0.3179,0.3179,0.3179,0.3179,0.3179,0.3179,0.3179,0.3179,0.3179,0.3179,0.3179,0.3179,0.3179,0.3179,0.3179,0.3179,0.3179,0.3179,0.3179,0.3179,0.3179,0.3179,0.3179,0.3179,0.3179,0.3179,0.3179,0.3179,0.3179,0.3179,0.3179,0.3179,0.323,0.3332,0.3332,0.3584,0.424,0.5148,0.5954,0.6461,0.6511,0.6511,0.6511,0.6511,0.6511,0.6511,0.6511,0.6511,0.6511,0.6511,0.6511,-0.9264,-0.9389,-0.9449,-0.9709,-0.9916,-1.0107,-1.0123,-1.0275,-1.0349,-1.0318,-1.0478,-1.0599,-1.0599,-1.0655,-1.076,-1.0992,-1.1177,-1.1423,-1.1618,-1.1803,-1.1955,-1.2074,-1.2296,-1.2449,-1.2477,-1.264,-1.2754,-1.2879,-1.289,-1.289,-1.289,-1.289,-1.289,-1.289,-1.289,-1.289,-1.289,-1.1929,-1.0362,-0.8199,-0.8199,-0.7546,-0.6389,-0.609,-0.5436,-0.4384,0.0,-0.0857,0.0454,0.212,0.2979,0.3179,0.3179,0.3179,0.3179,0.3179,0.3179,0.3179,0.3179,0.3179,0.3179,0.3179,0.3179,0.3179,0.3179,0.3179,0.3179,0.3179,0.3179,0.3179,0.3179,0.3179,0.3179,0.3179,0.3179,0.3179,0.3179,0.3179,0.3179,0.3179,0.3179,0.3179,0.3179,0.3179,0.3179,0.3179,0.3179,0.3179,0.3179,0.3179,0.3179,0.3179,0.3179,0.3179,0.3179,0.3179,0.3534,0.4393,0.5248,0.5954,0.6461,0.6511,0.6511,0.6511,0.6511,0.6511,0.6511,0.6511,0.6511,0.6511,0.6511,0.6511,-0.9275,-0.9389,-0.9546,-1.0025,-1.0182,-1.0248,-1.0362,-1.0525,-1.0617,-1.0492,-1.0536,-1.0664,-1.0751,-1.0797,-1.0954,-1.127,-1.1417,-1.1586,-1.1786,-1.1917,-1.2031,-1.2156,-1.235,-1.2433,-1.2477,-1.2661,-1.2786,-1.2879,-1.289,-1.289,-1.289,-1.289,-1.289,-1.289,-1.289,-1.289,-1.289,-1.289,-1.2079,-1.0467,-1.0467,-0.956,-0.7898,-0.7349,-0.6846,-0.6243,-0.3525,-0.1763,-0.0655,0.1563,0.2725,0.3179,0.3179,0.3179,0.3179,0.3179,0.3179,0.3179,0.3179,0.3179,0.3179,0.3179,0.3179,0.3179,0.3179,0.3179,0.3179,0.3179,0.3179,0.3179,0.3179,0.3179,0.3179,0.3179,0.3179,0.3179,0.3179,0.3179,0.3179,0.3179,0.3179,0.3179,0.3179,0.3179,0.3179,0.3179,0.3179,0.3179,0.3179,0.3179,0.3179,0.3179,0.3179,0.3179,0.3179,0.3179,0.3584,0.4544,0.5299,0.5904,0.6309,0.641,0.6511,0.6511,0.6511,0.6511,0.6511,0.6511,0.6511,0.6511,0.6511,0.6511,-0.9378,-0.9633,-0.9878,-1.0435,-1.0156,-0.9878,-1.0286,-1.04,-1.0471,-1.063,-1.0679,-1.0824,-1.1161,-1.127,-1.1286,-1.1313,-1.1417,-1.1586,-1.1786,-1.1917,-1.2031,-1.2156,-1.2379,-1.2477,-1.2488,-1.2743,-1.2879,-1.289,-1.289,-1.289,-1.289,-1.289,-1.289,-1.289,-1.289,-1.289,-1.289,-1.289,-1.2834,-1.2684,-1.2684,-1.2584,-1.2434,-1.1884,-1.0572,-0.8607,-0.7349,-0.4531,-0.0756,-0.005,0.1412,0.3179,0.3179,0.3179,0.3179,0.3179,0.3179,0.3179,0.3179,0.3179,0.3179,0.3179,0.3179,0.3179,0.3179,0.3179,0.3179,0.3179,0.3179,0.3179,0.3179,0.3179,0.3179,0.3179,0.3179,0.3179,0.3179,0.3179,0.3179,0.3179,0.3179,0.3179,0.3179,0.3179,0.3179,0.3179,0.3179,0.3179,0.3179,0.3179,0.3179,0.3179,0.3179,0.3179,0.3179,0.3179,0.3433,0.4038,0.5097,0.5702,0.5753,0.6259,0.6511,0.6511,0.6511,0.6511,0.6511,0.6511,0.6511,0.6511,0.6511,0.6511,-0.9606,-0.9786,-1.0047,-1.0495,-1.0429,-1.0347,-1.0639,-1.0715,-1.0699,-1.0634,-1.0683,-1.0733,-1.0916,-1.1123,-1.1341,-1.1417,-1.1552,-1.1737,-1.19,-1.2025,-1.2145,-1.2318,-1.2433,-1.2515,-1.2634,-1.2792,-1.289,-1.289,-1.289,-1.289,-1.289,-1.289,-1.289,-1.289,-1.289,-1.289,-1.289,-1.289,-1.2852,-1.2776,-1.2776,-1.2627,-1.2329,-1.1729,-1.0835,-0.9641,-0.7684,-0.5891,-0.413,-0.1209,0.0454,0.1362,0.2674,0.3179,0.3179,0.3179,0.3179,0.3179,0.3179,0.3179,0.3179,0.3179,0.3179,0.3179,0.3179,0.3179,0.3179,0.3179,0.3179,0.3179,0.3179,0.3179,0.3179,0.3179,0.3179,0.3179,0.3179,0.3179,0.3179,0.3179,0.3179,0.3179,0.3179,0.3179,0.3179,0.3179,0.3179,0.3179,0.3179,0.3179,0.3179,0.3179,0.3179,0.3179,0.3179,0.3179,0.328,0.3483,0.424,0.4946,0.5652,0.5904,0.6158,0.6511,0.6511,0.6511,0.6511,0.6511,0.6511,0.6511,0.6511,0.6511,-0.9769,-0.9975,-1.0215,-1.053,-1.0599,-1.0604,-1.0808,-1.082,-1.0846,-1.0833,-1.0911,-1.0955,-1.0922,-1.1199,-1.146,-1.1504,-1.1716,-1.19,-1.1976,-1.2129,-1.2307,-1.2394,-1.2493,-1.2618,-1.27,-1.2814,-1.289,-1.289,-1.289,-1.289,-1.289,-1.289,-1.289,-1.289,-1.289,-1.289,-1.289,-1.289,-1.2825,-1.2705,-1.2519,-1.2258,-1.1914,-1.1353,-1.0829,-1.019,-0.8328,-0.7104,-0.6246,-0.3273,-0.1663,-0.0857,0.0605,0.1614,0.2169,0.2169,0.2623,0.3179,0.3179,0.3179,0.3179,0.3179,0.3179,0.3179,0.3179,0.3179,0.3179,0.3179,0.3179,0.3179,0.3179,0.3179,0.3179,0.3179,0.3179,0.3179,0.3179,0.3179,0.3179,0.3179,0.3179,0.3179,0.3179,0.3179,0.3179,0.3179,0.3179,0.3179,0.3179,0.3179,0.3179,0.3179,0.3179,0.3179,0.3179,0.3179,0.3179,0.3179,0.3534,0.419,0.5148,0.5349,0.5604,0.5957,0.6158,0.6259,0.6259,0.641,0.6511,0.6511,0.6511,0.6511,-0.996,-1.0204,-1.0443,-1.0636,-1.0563,-1.0454,-1.0641,-1.0695,-1.084,-1.1199,-1.1465,-1.1558,-1.1319,-1.1574,-1.1781,-1.1616,-1.1835,-1.1987,-1.1993,-1.2247,-1.2405,-1.2405,-1.2564,-1.2705,-1.2705,-1.2814,-1.289,-1.289,-1.289,-1.289,-1.289,-1.289,-1.289,-1.289,-1.289,-1.289,-1.289,-1.289,-1.2825,-1.27,-1.2092,-1.1791,-1.1747,-1.1319,-1.0779,-1.0289,-0.989,-0.8518,-0.6548,-0.6497,-0.5187,-0.3223,-0.3223,-0.1914,0.0,0.0,0.1362,0.3179,0.3179,0.3179,0.3179,0.3179,0.3179,0.3179,0.3179,0.3179,0.3179,0.3179,0.3179,0.3179,0.3179,0.3179,0.3179,0.3179,0.3179,0.3179,0.3179,0.3179,0.3179,0.3179,0.3179,0.3179,0.3179,0.3179,0.3179,0.3179,0.3179,0.3179,0.3179,0.3179,0.3179,0.3179,0.3179,0.3179,0.3179,0.3179,0.3179,0.3179,0.3179,0.3433,0.3988,0.4494,0.4797,0.4797,0.54,0.5702,0.5702,0.6259,0.6511,0.6511,0.6511,0.6511,-1.0041,-1.0384,-1.0628,-1.0612,-1.0813,-1.096,-1.0739,-1.076,-1.0944,-1.1259,-1.14,-1.1532,-1.1461,-1.1629,-1.1835,-1.1879,-1.1944,-1.2047,-1.2269,-1.2356,-1.2465,-1.258,-1.2661,-1.2738,-1.2825,-1.2868,-1.289,-1.289,-1.289,-1.289,-1.289,-1.289,-1.289,-1.289,-1.289,-1.289,-1.289,-1.289,-1.2786,-1.2537,-1.2055,-1.1561,-1.1056,-1.0676,-1.0179,-0.9653,-0.9711,-0.9325,-0.8618,-0.7104,-0.5187,-0.3223,-0.3223,-0.1914,0.0,0.0,0.1362,0.3179,0.3179,0.3179,0.3179,0.3179,0.3179,0.3179,0.3179,0.3179,0.3179,0.3179,0.3179,0.3179,0.3179,0.3179,0.3179,0.3179,0.3179,0.3179,0.3179,0.3179,0.3179,0.3179,0.3179,0.3179,0.3179,0.3179,0.3179,0.3179,0.3179,0.3179,0.3179,0.3179,0.3179,0.3179,0.3179,0.3179,0.3179,0.3179,0.3179,0.3179,0.3179,0.3433,0.3988,0.4139,0.4393,0.4797,0.54,0.5702,0.5702,0.6259,0.6511,0.6511,0.6511,0.6511,-1.0346,-1.0683,-1.0867,-1.0791,-1.0992,-1.1161,-1.0987,-1.1009,-1.1101,-1.1286,-1.1488,-1.1585,-1.1536,-1.1764,-1.1966,-1.1987,-1.2031,-1.2129,-1.2372,-1.2395,-1.2493,-1.2683,-1.2748,-1.2808,-1.2879,-1.289,-1.289,-1.289,-1.289,-1.289,-1.289,-1.289,-1.289,-1.289,-1.289,-1.289,-1.289,-1.289,-1.277,-1.2488,-1.1796,-1.1231,-1.0759,-1.0369,-0.9896,-0.9416,-0.9599,-0.9681,-0.9581,-0.8313,-0.7003,-0.5791,-0.5791,-0.3929,-0.126,-0.126,0.0605,0.3078,0.222,0.1916,0.1916,0.1916,0.1916,0.2068,0.2927,0.3179,0.3179,0.3179,0.3179,0.3179,0.3179,0.3179,0.3179,0.3179,0.3179,0.3179,0.3179,0.3179,0.3179,0.3179,0.3179,0.3179,0.3179,0.3179,0.3179,0.3179,0.3179,0.3179,0.3179,0.3179,0.3179,0.3179,0.3179,0.3179,0.3179,0.3179,0.3179,0.3179,0.3179,0.3332,0.3685,0.3685,0.3836,0.4139,0.4744,0.5047,0.5047,0.5553,0.5957,0.6158,0.6158,0.6309,-1.0715,-1.0987,-1.1101,-1.109,-1.1079,-1.1107,-1.1297,-1.1313,-1.1308,-1.1297,-1.158,-1.1786,-1.1643,-1.1944,-1.2181,-1.2025,-1.2107,-1.2279,-1.24,-1.2477,-1.2591,-1.2705,-1.2819,-1.289,-1.289,-1.289,-1.289,-1.289,-1.289,-1.289,-1.289,-1.289,-1.289,-1.289,-1.289,-1.289,-1.289,-1.2879,-1.2759,-1.2488,-1.1494,-1.0897,-1.0711,-1.0293,-0.9855,-0.944,-0.9608,-0.9681,-0.9681,-0.9681,-0.9681,-0.9681,-0.9681,-0.7154,-0.3525,-0.3525,-0.0907,0.232,0.0403,-0.0302,-0.0302,-0.0302,-0.0151,0.0353,0.232,0.3028,0.3179,0.3179,0.3179,0.3179,0.3179,0.3179,0.3179,0.3179,0.3179,0.3179,0.3179,0.3179,0.3179,0.3179,0.3179,0.3179,0.3179,0.3179,0.3179,0.3179,0.3179,0.3179,0.3179,0.3179,0.3179,0.3179,0.3179,0.3179,0.3179,0.3179,0.3179,0.3179,0.3179,0.3179,0.3179,0.3179,0.3179,0.3179,0.3735,0.3988,0.3988,0.4544,0.5099,0.5702,0.5702,0.6004,-1.0411,-1.0797,-1.1079,-1.0982,-1.0847,-1.0922,-1.1368,-1.127,-1.1221,-1.1498,-1.1699,-1.1841,-1.19,-1.2053,-1.2209,-1.2181,-1.2285,-1.2405,-1.2482,-1.2596,-1.2716,-1.2835,-1.2873,-1.289,-1.289,-1.289,-1.289,-1.289,-1.289,-1.289,-1.289,-1.289,-1.289,-1.289,-1.289,-1.289,-1.289,-1.2792,-1.2672,-1.2488,-1.1376,-1.0783,-1.0664,-0.9906,-0.9584,-0.9624,-0.9665,-0.9681,-0.9681,-0.9681,-0.9681,-0.9681,-0.9681,-0.8112,-0.5791,-0.5791,-0.4129,-0.1914,-0.2367,-0.2518,-0.2518,-0.2518,-0.136,0.0101,0.0554,0.1866,0.3179,0.3179,0.3179,0.3179,0.3179,0.3179,0.3179,0.3179,0.3179,0.3179,0.3179,0.3179,0.3179,0.3179,0.3179,0.3179,0.3179,0.3179,0.3179,0.3179,0.3179,0.3179,0.3179,0.3179,0.3179,0.3179,0.3179,0.3179,0.3179,0.3179,0.3179,0.3179,0.3179,0.3179,0.3179,0.3179,0.3179,0.3179,0.3735,0.3988,0.3988,0.4544,0.5099,0.5702,0.5702,0.6004,-1.0427,-1.078,-1.1041,-1.115,-1.0954,-1.082,-1.139,-1.127,-1.1221,-1.1594,-1.173,-1.1857,-1.1966,-1.2091,-1.2219,-1.2219,-1.2323,-1.2395,-1.2472,-1.2634,-1.2748,-1.2873,-1.289,-1.289,-1.289,-1.289,-1.289,-1.289,-1.289,-1.289,-1.289,-1.289,-1.289,-1.289,-1.289,-1.289,-1.289,-1.2765,-1.2651,-1.2488,-1.1351,-1.0571,-1.0042,-0.9606,-0.9506,-0.9681,-0.9681,-0.9681,-0.9681,-0.9681,-0.9681,-0.9681,-0.9681,-0.8367,-0.6497,-0.6497,-0.5087,-0.3374,-0.4432,-0.4785,-0.4583,-0.3525,-0.2468,-0.1159,0.0907,0.232,0.3179,0.3179,0.3179,0.3179,0.3179,0.3179,0.3179,0.3179,0.3179,0.3179,0.3179,0.3179,0.3179,0.3179,0.3179,0.3179,0.3179,0.3179,0.3179,0.3179,0.3179,0.3179,0.3179,0.3179,0.3179,0.3179,0.3179,0.3179,0.3179,0.3179,0.3179,0.3179,0.3179,0.3179,0.3179,0.3179,0.3179,0.3179,0.3483,0.3635,0.3635,0.3887,0.4341,0.4896,0.5148,0.5553,-1.0465,-1.0739,-1.1003,-1.1384,-1.109,-1.0878,-1.1297,-1.1303,-1.1248,-1.1672,-1.1792,-1.1862,-1.1993,-1.2148,-1.2219,-1.2219,-1.2339,-1.2422,-1.2472,-1.2651,-1.2776,-1.2873,-1.289,-1.289,-1.289,-1.289,-1.289,-1.289,-1.289,-1.289,-1.289,-1.289,-1.289,-1.289,-1.289,-1.289,-1.289,-1.2748,-1.2629,-1.2488,-1.1331,-1.0323,-0.9408,-0.9408,-0.9506,-0.9681,-0.9681,-0.9681,-0.9681,-0.9681,-0.9681,-0.9681,-0.9681,-0.8618,-0.7053,-0.7053,-0.5894,-0.4583,-0.6397,-0.7053,-0.6698,-0.4483,-0.3525,-0.2468,0.1462,0.2927,0.3179,0.3179,0.3179,0.3179,0.3179,0.3179,0.3179,0.3179,0.3179,0.3179,0.3179,0.3179,0.3179,0.3179,0.3179,0.3179,0.3179,0.3179,0.3179,0.3179,0.3179,0.3179,0.3179,0.3179,0.3179,0.3179,0.3179,0.3179,0.3179,0.3179,0.3179,0.3179,0.3179,0.3179,0.3179,0.3179,0.3179,0.3179,0.3179,0.3179,0.3179,0.3179,0.3483,0.3988,0.4544,0.5099,-1.0166,-1.059,-1.0982,-1.1275,-1.1096,-1.0938,-1.1112,-1.1199,-1.1341,-1.1515,-1.1672,-1.1889,-1.2107,-1.2209,-1.2219,-1.2219,-1.2362,-1.2472,-1.2482,-1.2727,-1.2868,-1.2884,-1.289,-1.289,-1.289,-1.289,-1.289,-1.289,-1.289,-1.289,-1.289,-1.289,-1.289,-1.289,-1.289,-1.289,-1.289,-1.2667,-1.2504,-1.2482,-1.1299,-1.0251,-0.9408,-0.9408,-0.9506,-0.9681,-0.9681,-0.9681,-0.9681,-0.9681,-0.9681,-0.9681,-0.9681,-0.953,-0.9275,-0.9275,-0.9074,-0.8869,-0.9175,-0.9275,-0.892,-0.6749,-0.4785,-0.277,-0.0302,0.1715,0.3179,0.3179,0.3179,0.3179,0.3179,0.3179,0.3179,0.3179,0.3179,0.3179,0.3179,0.3179,0.3179,0.3179,0.3179,0.3179,0.3179,0.3179,0.3179,0.3179,0.3179,0.3179,0.3179,0.3179,0.3179,0.3179,0.3179,0.3179,0.3179,0.3179,0.3179,0.3179,0.3179,0.3179,0.3179,0.3179,0.3179,0.3179,0.3179,0.3179,0.3179,0.3179,0.3483,0.3988,0.4544,0.5099,-1.0117,-1.0606,-1.0976,-1.1215,-1.1145,-1.1036,-1.109,-1.1188,-1.1352,-1.1472,-1.1596,-1.1786,-1.2025,-1.217,-1.2219,-1.2219,-1.2373,-1.2488,-1.2488,-1.2738,-1.289,-1.289,-1.289,-1.289,-1.289,-1.289,-1.289,-1.289,-1.289,-1.289,-1.289,-1.289,-1.289,-1.289,-1.289,-1.289,-1.289,-1.2356,-1.1735,-1.1037,-1.0511,-0.9955,-0.9408,-0.9408,-0.9506,-0.9681,-0.9681,-0.9681,-0.9681,-0.9681,-0.9681,-0.9681,-0.9681,-0.9681,-0.9681,-0.9681,-0.9681,-0.9681,-0.9681,-0.9681,-0.9325,-0.7204,-0.4986,-0.282,-0.0655,0.1513,0.3179,0.3179,0.3179,0.3179,0.3179,0.3179,0.3179,0.3179,0.3179,0.3179,0.3179,0.3179,0.3179,0.3179,0.3179,0.3179,0.3179,0.3179,0.3179,0.3179,0.3179,0.3179,0.3179,0.3179,0.3179,0.3179,0.3179,0.3179,0.3179,0.3179,0.3179,0.3179,0.3179,0.3179,0.3179,0.3179,0.3179,0.3179,0.3179,0.3179,0.3179,0.3179,0.3332,0.3584,0.4089,0.4643,-1.0074,-1.0509,-1.0808,-1.1107,-1.1096,-1.1025,-1.109,-1.1188,-1.1341,-1.1434,-1.1531,-1.1643,-1.1868,-1.202,-1.2181,-1.2214,-1.2352,-1.2487,-1.2487,-1.2694,-1.2841,-1.2841,-1.2841,-1.2852,-1.2884,-1.2857,-1.2852,-1.2884,-1.289,-1.289,-1.289,-1.289,-1.289,-1.289,-1.289,-1.289,-1.289,-1.2154,-1.1153,-0.9901,-0.9901,-0.9715,-0.9408,-0.9408,-0.9506,-0.9681,-0.9681,-0.9681,-0.9681,-0.9681,-0.9681,-0.9681,-0.9681,-0.9681,-0.9681,-0.9681,-0.9681,-0.9681,-0.9681,-0.9681,-0.9325,-0.7204,-0.5388,-0.3625,-0.1461,0.0706,0.2371,0.2371,0.2776,0.3179,0.3179,0.3179,0.3179,0.3179,0.3179,0.3179,0.3179,0.3179,0.3179,0.3179,0.3179,0.3179,0.3179,0.3179,0.3179,0.3179,0.3179,0.3179,0.3179,0.3179,0.3179,0.3179,0.3179,0.3179,0.3179,0.3179,0.3179,0.3179,0.3179,0.3179,0.3179,0.3179,0.3179,0.3179,0.3179,0.3179,0.3179,0.3179,0.3179,0.323,0.3887,0.4444,-0.9932,-1.0139,-1.0351,-1.0824,-1.0804,-1.0777,-1.1047,-1.1188,-1.1319,-1.1324,-1.1471,-1.1594,-1.1605,-1.1841,-1.2036,-1.2198,-1.2329,-1.241,-1.241,-1.2564,-1.2716,-1.2716,-1.2716,-1.2759,-1.2879,-1.2781,-1.2765,-1.2879,-1.289,-1.289,-1.289,-1.289,-1.289,-1.289,-1.289,-1.289,-1.289,-1.2154,-1.1153,-0.9901,-0.9901,-0.9715,-0.9408,-0.9408,-0.9506,-0.9681,-0.9681,-0.9681,-0.9681,-0.9681,-0.9681,-0.9681,-0.9681,-0.9681,-0.9681,-0.9681,-0.9681,-0.9681,-0.9681,-0.9681,-0.9325,-0.7204,-0.6447,-0.5894,-0.3726,-0.1511,0.0151,0.0151,0.1614,0.3179,0.3179,0.3179,0.3179,0.3179,0.3179,0.3179,0.3179,0.3179,0.3179,0.3179,0.3179,0.3179,0.3179,0.3179,0.3179,0.3179,0.3179,0.3179,0.3179,0.3179,0.3179,0.3179,0.3179,0.3179,0.3179,0.3179,0.3179,0.3179,0.3179,0.3179,0.3179,0.3179,0.3179,0.3179,0.3179,0.3179,0.3179,0.3179,0.3179,0.323,0.4292,0.4797,-0.9769,-1.0013,-1.028,-1.0606,-1.0829,-1.0954,-1.0842,-1.1139,-1.139,-1.1194,-1.1351,-1.1542,-1.1578,-1.183,-1.2004,-1.2047,-1.2269,-1.2405,-1.2405,-1.2493,-1.2547,-1.2547,-1.2547,-1.2613,-1.2656,-1.2623,-1.2645,-1.2759,-1.277,-1.2803,-1.2884,-1.289,-1.289,-1.289,-1.289,-1.2552,-1.1729,-1.1501,-1.0752,-0.9604,-0.9604,-0.9521,-0.9444,-0.9444,-0.9563,-0.9681,-0.9681,-0.9681,-0.9681,-0.9681,-0.9681,-0.9681,-0.9681,-0.9681,-0.9681,-0.9681,-0.9681,-0.9681,-0.9681,-0.9681,-0.9577,-0.8819,-0.7606,-0.6346,-0.5539,-0.282,0.0,0.0,0.1563,0.3179,0.3179,0.3179,0.3179,0.3179,0.3179,0.3179,0.3179,0.3179,0.3179,0.3179,0.3179,0.3179,0.3179,0.3179,0.3179,0.3179,0.3179,0.3179,0.3179,0.3179,0.3179,0.3179,0.3179,0.3179,0.3179,0.3179,0.3179,0.3179,0.3179,0.3179,0.3179,0.3179,0.3179,0.3179,0.3179,0.3179,0.3179,0.3179,0.3179,0.323,0.3937,0.4494,-0.9596,-0.9894,-1.0128,-1.0324,-1.0691,-1.09,-1.0777,-1.1047,-1.1308,-1.1226,-1.1357,-1.1477,-1.1552,-1.1737,-1.1884,-1.1928,-1.2102,-1.2279,-1.2279,-1.2373,-1.2477,-1.2477,-1.2477,-1.2493,-1.2482,-1.2498,-1.2536,-1.2694,-1.2705,-1.2759,-1.2879,-1.289,-1.289,-1.289,-1.289,-1.2332,-1.1125,-1.1125,-1.0532,-0.9408,-0.9408,-0.9457,-0.9493,-0.9493,-0.9595,-0.9681,-0.9681,-0.9681,-0.9681,-0.9681,-0.9681,-0.9681,-0.9681,-0.9681,-0.9681,-0.9681,-0.9681,-0.9677,-0.9644,-0.9632,-0.9632,-0.9632,-0.8678,-0.7524,-0.755,-0.4533,-0.1058,-0.1058,0.1008,0.3179,0.3179,0.3179,0.3179,0.3179,0.3179,0.3179,0.3179,0.3179,0.3179,0.3179,0.3179,0.3179,0.3179,0.3179,0.3179,0.3179,0.3179,0.3179,0.3179,0.3179,0.3179,0.3179,0.3179,0.3179,0.3179,0.3179,0.3179,0.3179,0.3179,0.3179,0.3179,0.3179,0.3179,0.3179,0.3179,0.3179,0.3179,0.3179,0.3179,0.323,0.3937,0.4645,0.0,0.0,0.0,-0.9948,-1.0297,-1.0669,-1.0862,-1.0927,-1.1031,-1.1412,-1.1395,-1.1357,-1.1472,-1.1547,-1.1627,-1.1792,-1.1906,-1.1982,-1.1982,-1.2236,-1.2389,-1.2389,-1.2394,-1.2443,-1.2466,-1.2417,-1.2492,-1.2678,-1.27,-1.2754,-1.2879,-1.2884,-1.289,-1.289,-1.289,-1.2332,-1.113,-1.113,-1.0536,-0.9416,-0.9416,-0.9461,-0.9497,-0.9497,-0.9595,-0.9677,-0.9677,-0.9677,-0.9673,-0.9677,-0.9677,-0.9677,-0.9677,-0.9677,-0.9673,-0.9673,-0.9673,-0.9661,-0.9521,-0.9489,-0.9489,-0.9489,-0.9489,-0.9505,-0.9644,-0.6696,-0.3272,-0.3221,-0.0151,0.3129,0.3179,0.3179,0.3179,0.3179,0.3179,0.3179,0.3179,0.3179,0.3179,0.3179,0.3179,0.3179,0.3179,0.3179,0.3179,0.3179,0.3179,0.3179,0.3179,0.3179,0.3179,0.3179,0.3179,0.3179,0.3179,0.3179,0.3179,0.3179,0.3179,0.3179,0.3179,0.3179,0.3179,0.3179,0.3179,0.3179,0.3179,0.323,0.323,0.323,0.4343,0.5452,-0.9334,0.0,0.0,0.0,0.0,0.0,-1.0749,-1.1058,-1.1264,-1.1101,-1.1292,-1.1434,-1.1379,-1.1466,-1.1559,-1.1597,-1.1732,-1.1868,-1.1868,-1.1993,-1.2091,-1.2091,-1.2214,-1.2279,-1.227,-1.229,-1.2334,0.0,-1.2531,-1.2634,-1.2748,-1.2841,-1.289,-1.289,-1.289,-1.2574,-1.1838,-1.1439,-1.0876,-1.0201,-0.9803,-0.962,-0.964,-0.964,-0.962,-0.9529,-0.9529,-0.9542,-0.9493,-0.9624,-0.964,-0.9529,-0.9529,-0.9538,-0.9481,-0.9481,-0.9481,-0.9477,-0.9452,-0.9444,-0.9444,-0.9444,-0.9444,-0.9448,-0.9477,-0.759,-0.5134,-0.3539,-0.1203,0.1261,0.2776,0.3179,0.3179,0.3179,0.3179,0.3179,0.3179,0.3179,0.3179,0.3179,0.3179,0.3179,0.3179,0.3179,0.3179,0.3179,0.3179,0.3179,0.3179,0.3179,0.3179,0.3179,0.3179,0.3179,0.3179,0.3179,0.3179,0.3179,0.3179,0.3179,0.3179,0.3179,0.3179,0.3179,0.3179,0.3179,0.3179,0.3584,0.3786,0.3786,0.4946,0.5805,-0.9302,-0.953,-0.9769,-0.9791,0.0,0.0,-1.069,-1.0992,-1.1232,-1.1221,-1.1302,-1.1417,-1.1395,-1.145,-1.1499,-1.1499,-1.1619,-1.1683,-1.1692,-1.1841,-1.1917,-1.1917,-1.1982,-1.2042,-1.2091,-1.2143,-1.2214,-1.2389,-1.2422,-1.2531,-1.2694,-1.2819,-1.289,-1.289,-1.289,-1.2634,-1.2084,-1.1583,-1.1032,-1.048,-0.9932,-0.9681,-0.9681,-0.964,-0.9595,-0.9493,-0.9452,-0.9457,-0.9416,-0.9522,-0.9534,-0.9436,-0.9436,-0.9452,-0.9408,-0.9408,-0.9408,-0.9403,-0.9367,-0.9354,-0.9354,-0.9354,-0.9354,-0.9363,-0.9395,-0.7913,-0.6026,-0.4761,-0.23,0.0302,0.1563,0.2522,0.3179,0.3179,0.3179,0.3179,0.3179,0.3179,0.3179,0.3179,0.3179,0.3179,0.3179,0.3179,0.3179,0.3179,0.3179,0.3179,0.3179,0.3179,0.3179,0.3179,0.3179,0.3179,0.3179,0.3179,0.3179,0.3179,0.3179,0.3179,0.3179,0.3179,0.3179,0.3179,0.3179,0.3433,0.3887,0.3735,0.3887,0.4343,0.5248,0.6004,-0.934,0.0,0.0,-0.9536,-0.9949,0.0,-1.0592,-1.0749,-1.0971,-1.1388,-1.1373,-1.133,-1.1439,-1.1472,-1.1483,-1.1499,-1.1488,-1.1521,-1.1596,-1.1721,-1.1797,-1.1797,-1.1808,-1.1857,-1.196,-1.1971,-1.2063,-1.2345,-1.2389,-1.2503,-1.2694,-1.2808,-1.2873,-1.289,-1.289,-1.269,-1.2184,-1.1583,-1.1082,-1.058,-0.9982,-0.9677,-0.9661,-0.9529,-0.9485,-0.946,-0.9428,-0.9387,-0.9379,-0.9379,-0.9383,-0.9391,-0.9391,-0.9387,-0.9379,-0.9379,-0.9379,-0.9367,-0.9293,-0.9265,-0.9265,-0.9265,-0.9265,-0.9281,-0.9354,-0.806,-0.6514,-0.6338,-0.325,0.0,0.0,0.1614,0.3179,0.3179,0.3179,0.3179,0.3179,0.3179,0.3179,0.3179,0.3179,0.3179,0.3179,0.3179,0.3179,0.3179,0.3179,0.3179,0.3179,0.3179,0.3179,0.3179,0.3179,0.3179,0.3179,0.3179,0.3179,0.3179,0.3179,0.3179,0.3179,0.3179,0.3179,0.3179,0.3179,0.3685,0.4696,0.3836,0.3937,0.4999,0.5551,0.6055,-0.9557,-0.9594,-0.9703,-0.9676,-1.0014,0.0,-1.0318,-1.0547,-1.077,-1.0811,-1.0965,-1.1145,-1.1166,-1.1292,-1.1384,-1.1483,-1.1417,-1.1395,-1.1515,-1.1596,-1.1627,-1.1627,-1.1713,-1.183,-1.1851,-1.1851,-1.1911,-1.2047,-1.229,-1.2503,-1.2694,-1.2727,-1.2786,-1.2884,-1.289,-1.284,-1.274,-1.1783,-1.1232,-1.1132,-1.0183,-0.964,-0.9521,-0.9501,-0.9465,-0.933,-0.9314,-0.9265,-0.9147,-0.9147,-0.924,-0.9305,-0.9305,-0.9261,-0.9147,-0.9147,-0.9147,-0.9143,-0.9127,-0.9123,-0.9123,-0.9123,-0.9123,-0.9127,-0.9143,-0.8956,-0.8361,-0.6771,-0.325,0.0,0.0,0.1614,0.3179,0.3179,0.3179,0.3179,0.3179,0.3179,0.3179,0.3179,0.3179,0.3179,0.3179,0.3179,0.3179,0.3179,0.3179,0.3179,0.3179,0.3179,0.3179,0.3179,0.3179,0.3179,0.3179,0.3179,0.3179,0.3179,0.3179,0.3179,0.3179,0.3179,0.3179,0.3179,0.3179,0.3534,0.4139,0.4393,0.5049,0.6158,0.6309,0.641,-0.9758,-0.9666,-0.972,-0.9742,-0.9981,0.0,0.0,-1.052,-1.0661,-1.0726,-1.0884,-1.1031,-1.109,-1.115,-1.1226,-1.139,-1.1357,-1.1319,-1.1281,-1.1433,-1.1547,-1.1547,-1.1601,-1.1661,-1.1721,-1.1681,-1.1803,-1.1976,-1.2209,-1.2389,-1.252,-1.264,-1.2732,-1.2797,-1.2857,-1.289,-1.289,-1.2084,-1.1533,-1.1282,-1.048,-0.9882,-0.9493,-0.9448,-0.9403,-0.9277,-0.9232,-0.9139,-0.9095,-0.9095,-0.9123,-0.9212,-0.9212,-0.9135,-0.9095,-0.9095,-0.9095,-0.9095,-0.9095,-0.9095,-0.9095,-0.9095,-0.9095,-0.9095,-0.9095,-0.9207,-0.9112,-0.8106,-0.5559,-0.2903,-0.1862,0.0,0.1866,0.2927,0.3179,0.3179,0.3179,0.3179,0.3179,0.3179,0.3179,0.3179,0.3179,0.3179,0.3179,0.3179,0.3179,0.3179,0.3179,0.3179,0.3179,0.3179,0.3179,0.3179,0.3179,0.3179,0.3179,0.3179,0.3179,0.3179,0.3179,0.3179,0.3179,0.3179,0.3179,0.3584,0.4393,0.4645,0.5251,0.6108,0.636,0.6511,-0.9948,-0.9807,-0.9726,-0.9775,-0.9872,-1.0063,0.0,0.0,0.0,-1.0737,-1.0802,-1.0851,-1.0976,-1.1014,-1.1031,-1.1031,-1.1107,-1.1112,-1.0954,-1.1194,-1.1434,-1.1434,-1.1472,-1.1526,-1.1558,-1.167,-1.1851,-1.1949,-1.2178,-1.2372,-1.24,-1.2536,-1.2656,-1.2705,-1.2803,-1.2863,-1.289,-1.2389,-1.1833,-1.1282,-1.0781,-1.0119,-0.9464,-0.944,-0.935,-0.9248,-0.9127,-0.9095,-0.9095,-0.9095,-0.9095,-0.9095,-0.9095,-0.9095,-0.9095,-0.9095,-0.9095,-0.9095,-0.9095,-0.9095,-0.9095,-0.9095,-0.9095,-0.9095,-0.9095,-0.9207,-0.9297,-0.9383,-0.7888,-0.5822,-0.3718,-0.1612,0.0554,0.2674,0.3179,0.3179,0.3179,0.3179,0.3179,0.3179,0.3179,0.3179,0.3179,0.3179,0.3179,0.3179,0.3179,0.3179,0.3179,0.3179,0.3179,0.3179,0.3179,0.3179,0.3179,0.3179,0.3179,0.3179,0.3179,0.3179,0.3179,0.3179,0.3179,0.3179,0.3281,0.3836,0.4797,0.4898,0.5301,0.5853,0.6309,0.6511,-1.0286,-0.9992,-0.9786,-0.9796,-0.9807,-0.9829,-0.9872,0.0,-1.0123,-1.0259,0.0,-1.0481,-1.0637,0.0,0.0,-1.0231,-1.052,-1.0641,-1.0351,-1.0791,-1.1145,-1.1145,-1.1374,-1.1461,-1.1324,-1.1993,-1.2222,-1.1868,-1.2439,-1.2722,-1.2421,-1.2427,-1.2536,-1.27,-1.2721,-1.2776,-1.2884,-1.2389,-1.1833,-1.1282,-1.0781,-1.0134,-0.942,-0.9412,-0.9318,-0.9111,-0.9099,-0.9095,-0.9095,-0.9095,-0.9095,-0.9095,-0.9095,-0.9095,-0.9095,-0.9095,-0.9095,-0.9095,-0.9095,-0.9095,-0.9095,-0.9095,-0.9095,-0.9095,-0.9095,-0.9207,-0.9297,-0.9383,-0.7888,-0.5822,-0.3718,-0.1612,0.0554,0.2674,0.3179,0.3179,0.3179,0.3179,0.3179,0.3179,0.3179,0.3179,0.3179,0.3179,0.3179,0.3179,0.3179,0.3179,0.3179,0.3179,0.3179,0.3179,0.3179,0.3179,0.3179,0.3179,0.3179,0.3179,0.3179,0.3179,0.3179,0.3179,0.3179,0.3179,0.3685,0.419,0.4797,0.5349,0.5853,0.641,0.6461,0.6511,-1.0577,-1.0384,-1.03,-1.0269,-1.0362,-1.0427,-1.0286,0.0,-1.0226,0.0,0.0,0.0,0.0,0.0,0.0,0.0,-1.0498,-1.0579,-1.0468,-1.0688,-1.0944,-1.1085,0.0,0.0,-1.1428,-1.1889,-1.2107,-1.1841,-1.2227,-1.2406,-1.2301,-1.2296,-1.2357,-1.2602,-1.2672,-1.2765,-1.2884,-1.2389,-1.1833,-1.1282,-1.0672,-1.0024,-0.9403,-0.9354,-0.9265,-0.9095,-0.9095,-0.9095,-0.9095,-0.9095,-0.9095,-0.9095,-0.9095,-0.9095,-0.9095,-0.9095,-0.9095,-0.9095,-0.9095,-0.9095,-0.9095,-0.9095,-0.9095,-0.9095,-0.9095,-0.9123,-0.9232,-0.9367,-0.8761,-0.7554,-0.5523,-0.4345,-0.2797,0.06,0.1356,0.1664,0.2927,0.3179,0.3179,0.3179,0.3179,0.3179,0.3179,0.3179,0.3179,0.3179,0.3179,0.3179,0.3179,0.3179,0.3179,0.3179,0.3179,0.3179,0.3179,0.3179,0.3179,0.3179,0.3179,0.3179,0.3179,0.3179,0.3179,0.3179,0.3735,0.4242,0.4797,0.54,0.5954,0.6511,0.6511,0.6511,-1.0811,-1.0693,-1.0674,-1.0628,-1.0715,0.0,0.0,0.0,0.0,0.0,0.0,0.0,0.0,0.0,0.0,0.0,0.0,-1.0353,-1.0222,-1.0384,-1.0603,-1.0922,0.0,0.0,0.0,-1.1906,-1.2107,-1.1792,0.0,-1.2352,-1.2091,-1.2181,-1.2254,-1.2428,-1.258,-1.2716,-1.2835,-1.2368,-1.1833,-1.1282,-1.0627,-0.9986,-0.9403,-0.9318,-0.9232,-0.9095,-0.9095,-0.9095,-0.9095,-0.9095,-0.9095,-0.9095,-0.9095,-0.9095,-0.9095,-0.9095,-0.9095,-0.9095,-0.9095,-0.9095,-0.9095,-0.9095,-0.9095,-0.9095,-0.9095,-0.9115,-0.9207,-0.9338,-0.9363,-0.8892,-0.6829,-0.6308,-0.5218,-0.0948,0.005,0.0603,0.2724,0.3179,0.3179,0.3179,0.3179,0.3179,0.3179,0.3179,0.3179,0.3179,0.3179,0.3179,0.3179,0.3179,0.3179,0.3179,0.3179,0.3179,0.3179,0.3179,0.3179,0.3179,0.3179,0.3179,0.3179,0.3179,0.3179,0.3179,0.3887,0.4393,0.4797,0.5551,0.6108,0.6511,0.6511,0.6511,0.0,0.0,0.0,-1.069,0.0,0.0,0.0,0.0,-1.0351,0.0,0.0,0.0,0.0,0.0,0.0,0.0,0.0,0.0,0.0,0.0,-1.0177,0.0,0.0,0.0,0.0,-1.2237,-1.252,0.0,-1.2564,0.0,-1.1879,-1.2047,-1.2225,-1.223,-1.2417,-1.2547,-1.271,-1.2277,-1.1833,-1.1282,-1.0627,-0.9986,-0.9403,-0.9318,-0.9232,-0.9095,-0.9095,-0.9095,-0.9095,-0.9095,-0.9095,-0.9095,-0.9095,-0.9095,-0.9095,-0.9095,-0.9095,-0.9095,-0.9095,-0.9095,-0.9095,-0.9095,-0.9095,-0.9095,-0.9095,-0.9207,-0.9277,-0.9281,-0.9408,-0.899,-0.6853,-0.6308,-0.5225,-0.1005,0.005,0.0649,0.277,0.3179,0.3179,0.3179,0.3179,0.3179,0.3179,0.3179,0.3179,0.3179,0.3179,0.3179,0.3179,0.3179,0.3179,0.3179,0.3179,0.3179,0.3179,0.3179,0.3179,0.3179,0.3179,0.3179,0.3179,0.3179,0.3179,0.3179,0.424,0.4797,0.4797,0.5906,0.6461,0.6511,0.6511,0.6511,0.0,0.0,-1.1177,-1.102,0.0,0.0,0.0,0.0,0.0,0.0,0.0,0.0,0.0,0.0,0.0,0.0,0.0,0.0,0.0,0.0,0.0,0.0,0.0,0.0,0.0,0.0,0.0,0.0,0.0,0.0,0.0,-1.2009,-1.217,-1.2334,-1.2421,-1.2509,-1.2705,-1.1852,-1.1327,-1.1178,-1.0187,-0.9554,-0.9322,-0.9232,-0.9127,-0.9095,-0.9095,-0.9095,-0.9095,-0.9095,-0.9095,-0.9095,-0.9095,-0.9095,-0.9095,-0.9095,-0.9095,-0.9095,-0.9095,-0.9095,-0.9095,-0.9095,-0.9095,-0.9107,-0.9216,-0.9256,-0.9305,-0.942,-0.9452,-0.9268,-0.8583,-0.8395,-0.7705,-0.4836,-0.3101,-0.1506,0.0604,0.222,0.3179,0.3179,0.3179,0.3179,0.3179,0.3179,0.3179,0.3179,0.3179,0.3179,0.3179,0.3179,0.3179,0.3179,0.3179,0.3179,0.3179,0.3179,0.3179,0.3179,0.3179,0.3179,0.3179,0.3179,0.3179,0.3179,0.3887,0.4292,0.4292,0.4999,0.5604,0.5954,0.5954,0.6158,-1.1215,-1.1319,0.0,-1.1199,-1.1395,0.0,-1.1428,0.0,-1.1058,0.0,0.0,0.0,0.0,0.0,0.0,0.0,0.0,0.0,0.0,-0.9829,0.0,0.0,0.0,0.0,0.0,0.0,0.0,0.0,0.0,0.0,0.0,0.0,-1.2058,-1.2269,-1.2356,-1.2449,-1.2645,-1.1599,-1.1125,-1.1071,-0.9939,-0.9363,-0.9277,-0.9139,-0.9095,-0.9095,-0.9095,-0.9095,-0.9095,-0.9095,-0.9095,-0.9095,-0.9095,-0.9095,-0.9095,-0.9095,-0.9095,-0.9095,-0.9095,-0.9095,-0.9103,-0.9135,-0.9191,-0.9207,-0.9297,-0.9346,-0.9383,-0.9436,-0.9477,-0.9501,-0.9497,-0.9468,-0.8952,-0.6882,-0.475,-0.2559,-0.0453,0.1664,0.3179,0.3179,0.3179,0.3179,0.3179,0.3179,0.3179,0.3179,0.3179,0.3179,0.3179,0.3179,0.3179,0.3179,0.3179,0.3179,0.3179,0.3179,0.3179,0.3179,0.3179,0.3179,0.3179,0.3179,0.3179,0.3179,0.3735,0.3988,0.3988,0.4544,0.4999,0.54,0.54,0.5702]},{"header":{"parameterUnit":"m.s-1","parameterCategory":1,"la1":30.6,"la2":29.2853,"lo1":-89.7004,"lo2":-87.6739,"dx":0.0162,"dy":0.0183,"nx":112,"ny":82,"refTime":"2022-12-13T06:00:00:Z","depth":0,"parameterNumber":3,"parameterNumberName":"V-component_of_WINDS"},"data":[0.0,0.0,0.0,0.0,0.0,0.0,0.0,0.0,0.0,0.0,0.0,0.0,0.0,0.0,0.0,0.0,0.0,0.0,0.0,0.0,0.0,0.0,0.0,0.0,0.0,0.0,0.0,0.0,0.0,0.0,0.0,0.0,0.0,0.0,0.0,0.0,0.0,0.0,0.0,0.0,0.0,0.0,0.0,0.0,0.0,0.0,0.0,0.0,0.0,0.0,0.0,0.0,0.0,0.0,0.0,0.0,0.0,0.0,0.0,0.0,0.0,0.0,0.0,0.0,0.0,0.0,0.0,0.0,0.0,0.0,0.0,0.0,0.0,0.0,0.0,0.0,0.0,0.0,0.0,0.0,0.0,0.0,0.0,0.0,0.0,0.0,0.0,0.0,0.0,0.0,4.5934,4.688,4.7988,4.87,4.87,4.7819,4.5746,4.2124,0.0,0.0,0.0,0.0,0.0,0.0,0.0,0.0,0.0,0.0,0.0,0.0,0.0,0.0,0.0,0.0,0.0,0.0,0.0,0.0,0.0,0.0,0.0,0.0,0.0,0.0,0.0,0.0,0.0,0.0,0.0,0.0,0.0,0.0,0.0,0.0,0.0,0.0,0.0,0.0,0.0,0.0,0.0,0.0,0.0,0.0,0.0,0.0,0.0,0.0,0.0,0.0,0.0,0.0,0.0,0.0,0.0,0.0,0.0,0.0,0.0,0.0,0.0,0.0,0.0,0.0,0.0,0.0,0.0,0.0,0.0,0.0,0.0,0.0,0.0,0.0,0.0,0.0,0.0,0.0,0.0,0.0,0.0,0.0,0.0,0.0,0.0,0.0,0.0,0.0,0.0,0.0,0.0,0.0,0.0,0.0,0.0,0.0,0.0,0.0,0.0,0.0,0.0,0.0,4.8695,4.9992,5.0318,5.0435,5.0435,4.8994,4.7353,4.5613,0.0,0.0,0.0,0.0,0.0,0.0,0.0,0.0,0.0,0.0,0.0,0.0,0.0,0.0,0.0,0.0,0.0,0.0,0.0,0.0,0.0,0.0,0.0,0.0,0.0,0.0,0.0,0.0,0.0,0.0,0.0,0.0,0.0,0.0,0.0,0.0,0.0,0.0,0.0,0.0,0.0,0.0,0.0,0.0,0.0,0.0,0.0,0.0,0.0,0.0,0.0,0.0,0.0,0.0,0.0,0.0,0.0,0.0,0.0,0.0,0.0,0.0,0.0,0.0,0.0,0.0,0.0,0.0,0.0,0.0,0.0,0.0,0.0,0.0,0.0,0.0,0.0,0.0,0.0,0.0,0.0,0.0,0.0,0.0,0.0,0.0,0.0,0.0,0.0,0.0,0.0,0.0,0.0,0.0,0.0,0.0,0.0,0.0,0.0,0.0,0.0,0.0,0.0,4.8282,5.0305,5.0732,5.0398,5.0335,5.0765,4.9641,4.7902,4.5573,4.3523,0.0,0.0,0.0,0.0,0.0,0.0,0.0,0.0,0.0,0.0,0.0,0.0,0.0,0.0,0.0,0.0,0.0,0.0,0.0,0.0,0.0,0.0,0.0,0.0,0.0,0.0,0.0,0.0,0.0,0.0,0.0,0.0,0.0,0.0,0.0,0.0,0.0,0.0,0.0,0.0,0.0,0.0,0.0,0.0,0.0,0.0,0.0,0.0,0.0,0.0,0.0,0.0,0.0,0.0,0.0,0.0,0.0,0.0,0.0,0.0,0.0,0.0,0.0,0.0,0.0,0.0,0.0,0.0,0.0,0.0,0.0,0.0,0.0,0.0,0.0,0.0,0.0,0.0,0.0,0.0,0.0,0.0,0.0,0.0,0.0,0.0,0.0,0.0,0.0,0.0,0.0,0.0,0.0,0.0,0.0,0.0,0.0,0.0,0.0,0.0,0.0,0.0,5.0249,5.1645,5.1383,5.1179,5.1106,5.1353,5.0721,4.8942,4.5755,4.5105,0.0,0.0,0.0,0.0,0.0,0.0,0.0,0.0,0.0,0.0,0.0,0.0,0.0,0.0,0.0,0.0,0.0,0.0,0.0,0.0,0.0,0.0,0.0,0.0,0.0,0.0,0.0,0.0,0.0,0.0,0.0,0.0,0.0,0.0,0.0,0.0,0.0,0.0,0.0,0.0,0.0,0.0,0.0,0.0,0.0,0.0,0.0,0.0,0.0,0.0,0.0,0.0,0.0,0.0,0.0,0.0,0.0,0.0,0.0,0.0,0.0,0.0,0.0,0.0,0.0,0.0,0.0,0.0,0.0,0.0,0.0,0.0,0.0,0.0,0.0,0.0,0.0,0.0,0.0,0.0,0.0,0.0,0.0,0.0,0.0,0.0,0.0,0.0,0.0,0.0,0.0,0.0,0.0,0.0,0.0,0.0,0.0,0.0,0.0,0.0,0.0,0.0,5.1926,5.3062,5.3031,5.4326,5.4594,5.3141,5.2983,5.1552,4.826,4.6645,0.0,0.0,0.0,0.0,0.0,0.0,0.0,0.0,0.0,0.0,0.0,0.0,0.0,0.0,0.0,0.0,0.0,0.0,0.0,0.0,0.0,0.0,0.0,0.0,0.0,0.0,0.0,0.0,0.0,0.0,0.0,0.0,0.0,0.0,0.0,0.0,0.0,0.0,0.0,0.0,0.0,0.0,0.0,0.0,0.0,0.0,0.0,0.0,0.0,0.0,0.0,0.0,0.0,0.0,0.0,0.0,0.0,0.0,0.0,0.0,0.0,0.0,0.0,0.0,0.0,0.0,0.0,0.0,0.0,0.0,0.0,0.0,0.0,0.0,0.0,0.0,0.0,0.0,0.0,0.0,0.0,0.0,0.0,0.0,0.0,0.0,0.0,0.0,0.0,0.0,0.0,0.0,0.0,0.0,0.0,0.0,0.0,0.0,0.0,0.0,0.0,0.0,5.3372,5.4362,5.3657,5.4323,5.4399,5.3287,5.359,5.2999,5.1045,0.0,0.0,0.0,0.0,0.0,0.0,0.0,0.0,0.0,0.0,0.0,0.0,0.0,0.0,0.0,0.0,0.0,0.0,0.0,0.0,0.0,0.0,0.0,0.0,0.0,0.0,0.0,0.0,0.0,0.0,0.0,0.0,0.0,0.0,0.0,0.0,0.0,0.0,0.0,0.0,0.0,0.0,0.0,0.0,0.0,0.0,0.0,0.0,0.0,0.0,0.0,0.0,0.0,0.0,0.0,0.0,0.0,0.0,0.0,0.0,0.0,0.0,0.0,0.0,0.0,0.0,0.0,0.0,0.0,0.0,0.0,0.0,0.0,0.0,0.0,0.0,0.0,0.0,0.0,0.0,0.0,0.0,0.0,0.0,0.0,0.0,0.0,0.0,0.0,0.0,0.0,0.0,0.0,0.0,0.0,0.0,0.0,0.0,0.0,0.0,0.0,0.0,5.2281,5.4412,5.5423,5.4298,5.4633,5.4549,5.3665,5.425,5.4028,5.2587,0.0,0.0,0.0,0.0,0.0,0.0,0.0,0.0,0.0,0.0,0.0,0.0,0.0,0.0,0.0,0.0,0.0,0.0,0.0,0.0,0.0,0.0,0.0,0.0,0.0,0.0,0.0,0.0,0.0,0.0,0.0,0.0,0.0,0.0,0.0,0.0,0.0,0.0,0.0,0.0,0.0,0.0,0.0,0.0,0.0,0.0,0.0,0.0,0.0,0.0,0.0,0.0,0.0,0.0,0.0,0.0,0.0,0.0,0.0,0.0,0.0,0.0,0.0,0.0,0.0,0.0,0.0,0.0,0.0,0.0,0.0,0.0,0.0,0.0,0.0,0.0,0.0,0.0,0.0,0.0,0.0,0.0,0.0,0.0,0.0,0.0,0.0,0.0,0.0,0.0,0.0,0.0,0.0,0.0,0.0,0.0,0.0,0.0,0.0,0.0,0.0,0.0,5.2336,5.4872,5.6265,5.5163,5.5671,5.5656,5.4479,5.5144,5.4749,0.0,0.0,0.0,0.0,0.0,0.0,0.0,0.0,0.0,0.0,0.0,0.0,0.0,0.0,0.0,0.0,0.0,0.0,0.0,0.0,0.0,0.0,0.0,0.0,0.0,0.0,0.0,0.0,0.0,0.0,0.0,0.0,0.0,0.0,0.0,0.0,0.0,0.0,0.0,0.0,0.0,0.0,0.0,0.0,0.0,0.0,0.0,0.0,0.0,0.0,0.0,0.0,0.0,0.0,0.0,0.0,0.0,0.0,0.0,0.0,0.0,0.0,0.0,0.0,0.0,0.0,0.0,0.0,0.0,0.0,0.0,0.0,0.0,0.0,0.0,0.0,0.0,0.0,0.0,0.0,0.0,0.0,0.0,0.0,0.0,0.0,0.0,0.0,0.0,0.0,0.0,0.0,0.0,0.0,0.0,0.0,0.0,0.0,0.0,0.0,0.0,0.0,0.0,5.4553,5.6019,5.6994,5.6664,5.6569,5.6042,5.4852,5.5996,5.6672,5.6387,0.0,0.0,0.0,0.0,0.0,0.0,0.0,0.0,0.0,0.0,0.0,0.0,0.0,0.0,0.0,0.0,0.0,0.0,0.0,0.0,0.0,0.0,0.0,0.0,0.0,0.0,0.0,0.0,0.0,0.0,0.0,0.0,0.0,0.0,0.0,0.0,0.0,0.0,0.0,0.0,0.0,0.0,0.0,0.0,0.0,0.0,0.0,0.0,0.0,0.0,0.0,0.0,0.0,0.0,0.0,0.0,0.0,0.0,0.0,0.0,0.0,0.0,0.0,0.0,0.0,0.0,0.0,0.0,0.0,0.0,0.0,0.0,0.0,0.0,0.0,0.0,0.0,0.0,0.0,0.0,0.0,0.0,0.0,0.0,0.0,0.0,0.0,0.0,0.0,0.0,0.0,0.0,0.0,0.0,0.0,0.0,0.0,0.0,0.0,0.0,0.0,0.0,5.6511,5.7339,5.7977,5.7832,5.7275,5.6723,5.6164,5.6893,5.7531,5.792,0.0,0.0,0.0,0.0,0.0,0.0,0.0,0.0,0.0,0.0,0.0,0.0,0.0,0.0,0.0,0.0,0.0,0.0,0.0,0.0,0.0,0.0,0.0,0.0,0.0,0.0,0.0,0.0,0.0,0.0,0.0,0.0,0.0,0.0,0.0,0.0,0.0,0.0,0.0,0.0,0.0,0.0,0.0,0.0,0.0,0.0,0.0,0.0,0.0,0.0,0.0,0.0,0.0,0.0,0.0,0.0,0.0,0.0,0.0,0.0,0.0,0.0,0.0,0.0,0.0,0.0,0.0,0.0,0.0,0.0,0.0,0.0,0.0,0.0,0.0,0.0,0.0,0.0,0.0,0.0,0.0,0.0,0.0,0.0,0.0,0.0,0.0,0.0,0.0,0.0,0.0,0.0,0.0,0.0,0.0,0.0,0.0,0.0,0.0,0.0,0.0,0.0,5.8039,5.8682,5.9081,5.8699,5.7871,5.7502,5.7904,5.7678,5.7666,5.8015,0.0,0.0,0.0,0.0,0.0,0.0,0.0,0.0,0.0,0.0,0.0,0.0,0.0,0.0,0.0,0.0,0.0,0.0,0.0,0.0,0.0,0.0,0.0,0.0,0.0,0.0,0.0,0.0,0.0,0.0,0.0,0.0,0.0,0.0,0.0,0.0,0.0,0.0,0.0,0.0,0.0,0.0,0.0,0.0,0.0,0.0,0.0,0.0,0.0,0.0,0.0,0.0,0.0,0.0,0.0,0.0,0.0,0.0,0.0,0.0,5.0694,4.8423,0.0,0.0,0.0,0.0,0.0,0.0,0.0,0.0,0.0,0.0,0.0,0.0,0.0,0.0,0.0,0.0,0.0,0.0,0.0,0.0,0.0,0.0,0.0,0.0,0.0,0.0,0.0,0.0,0.0,0.0,0.0,0.0,0.0,0.0,0.0,0.0,0.0,0.0,0.0,0.0,5.8268,5.9185,5.9814,5.9057,5.8255,5.7677,5.7472,5.7934,5.8441,5.8885,5.8915,0.0,0.0,0.0,0.0,0.0,0.0,0.0,0.0,0.0,0.0,0.0,0.0,0.0,0.0,0.0,0.0,0.0,0.0,0.0,0.0,0.0,0.0,0.0,0.0,0.0,0.0,0.0,0.0,0.0,0.0,0.0,0.0,0.0,0.0,0.0,0.0,0.0,0.0,0.0,0.0,0.0,0.0,0.0,0.0,0.0,0.0,0.0,0.0,0.0,0.0,0.0,0.0,0.0,0.0,0.0,0.0,0.0,0.0,0.0,5.4293,5.2405,0.0,0.0,0.0,0.0,0.0,0.0,0.0,0.0,0.0,0.0,0.0,0.0,0.0,0.0,0.0,0.0,0.0,0.0,0.0,0.0,0.0,0.0,0.0,0.0,0.0,0.0,0.0,0.0,0.0,0.0,0.0,0.0,0.0,0.0,0.0,0.0,0.0,0.0,0.0,0.0,6.0561,6.1058,6.144,6.0974,6.0554,6.023,6.0007,6.0187,6.0244,6.0095,6.0284,0.0,0.0,0.0,0.0,0.0,0.0,0.0,0.0,0.0,0.0,0.0,0.0,0.0,0.0,0.0,0.0,0.0,0.0,0.0,0.0,0.0,0.0,0.0,0.0,0.0,0.0,0.0,0.0,0.0,0.0,0.0,0.0,0.0,0.0,0.0,0.0,0.0,0.0,0.0,0.0,0.0,0.0,0.0,0.0,0.0,0.0,0.0,0.0,0.0,0.0,0.0,0.0,0.0,5.928,5.9166,5.935,5.8988,5.9149,5.9568,5.6806,5.5785,5.5983,5.4919,0.0,0.0,0.0,0.0,0.0,0.0,0.0,0.0,0.0,0.0,0.0,0.0,0.0,0.0,0.0,0.0,0.0,0.0,0.0,0.0,0.0,0.0,0.0,0.0,5.8606,5.9606,5.8237,0.0,0.0,0.0,0.0,0.0,0.0,0.0,0.0,0.0,0.0,0.0,6.3243,6.3266,6.3266,6.3152,6.3266,6.3343,6.3343,6.2885,6.2289,6.1494,6.1671,6.1196,0.0,0.0,0.0,0.0,0.0,0.0,0.0,0.0,0.0,0.0,0.0,0.0,0.0,0.0,0.0,0.0,0.0,0.0,0.0,0.0,0.0,0.0,0.0,0.0,0.0,0.0,0.0,0.0,0.0,0.0,0.0,0.0,4.9422,5.0282,0.0,0.0,0.0,0.0,0.0,0.0,0.0,0.0,0.0,0.0,0.0,0.0,0.0,6.0108,6.0654,6.1586,6.2481,6.3324,6.2393,6.1969,6.1967,6.1189,6.0856,6.0918,6.0381,0.0,5.7899,5.8513,0.0,0.0,0.0,0.0,0.0,0.0,0.0,0.0,0.0,0.0,0.0,0.0,0.0,0.0,0.0,0.0,0.0,0.0,0.0,0.0,0.0,0.0,6.348,6.3962,6.3816,6.3472,0.0,6.137,5.9765,5.988,6.1172,0.0,0.0,0.0,0.0,0.0,0.0,0.0,6.4236,6.4649,6.4802,6.4084,6.4649,6.507,6.507,6.439,6.3756,6.3272,6.2606,6.2117,6.189,6.0959,0.0,0.0,0.0,0.0,0.0,0.0,0.0,0.0,0.0,0.0,0.0,0.0,0.0,0.0,0.0,0.0,0.0,0.0,0.0,0.0,0.0,0.0,0.0,0.0,0.0,0.0,0.0,0.0,0.0,4.9578,5.1335,5.2702,5.4465,5.5405,0.0,0.0,0.0,0.0,0.0,0.0,0.0,0.0,0.0,6.1448,6.2548,6.3345,6.3735,6.3956,6.4321,6.4732,6.3719,6.3262,6.333,6.2866,6.2677,6.2673,6.2603,6.2091,6.1339,6.1172,6.1249,6.1494,0.0,0.0,0.0,0.0,5.856,5.8064,5.838,5.8713,5.9286,6.0729,0.0,0.0,0.0,0.0,0.0,0.0,0.0,0.0,0.0,0.0,6.519,6.5492,6.4913,6.4271,6.4271,6.37,6.3197,0.0,6.3809,6.5421,6.8946,0.0,0.0,0.0,0.0,6.7141,6.6384,6.6606,6.6682,6.6338,6.6606,6.6797,6.6797,6.6491,6.5788,6.4684,6.4048,6.3057,6.1646,6.1539,6.0559,0.0,0.0,0.0,0.0,0.0,0.0,0.0,0.0,0.0,0.0,0.0,0.0,0.0,0.0,0.0,0.0,0.0,0.0,0.0,0.0,0.0,0.0,0.0,0.0,0.0,0.0,0.0,0.0,5.2548,5.4032,5.5747,5.7823,5.8998,0.0,0.0,0.0,0.0,0.0,0.0,6.3872,6.379,6.4062,6.4922,6.5854,6.6254,6.6018,6.6374,6.6455,6.633,6.5358,6.4933,6.5039,6.4694,6.4576,6.4576,6.4542,6.4643,6.4746,6.3296,6.3434,6.461,6.4771,6.4542,6.4036,6.2714,6.1532,6.0662,6.1164,6.1317,6.1582,6.3584,6.442,6.4692,6.5082,0.0,0.0,0.0,0.0,6.6641,6.5982,6.65,6.7122,6.7063,6.6295,6.5621,6.5621,6.5869,6.5963,0.0,6.5757,6.7179,7.0795,0.0,0.0,0.0,6.9757,6.8304,6.8257,6.8249,6.8249,6.8249,6.844,6.8547,6.8547,6.8356,6.7714,6.6445,6.5879,6.4635,6.2537,6.2994,6.2108,5.9558,0.0,0.0,0.0,0.0,0.0,0.0,0.0,0.0,0.0,0.0,0.0,0.0,0.0,0.0,0.0,0.0,0.0,0.0,0.0,0.0,0.0,0.0,0.0,0.0,0.0,0.0,0.0,0.0,0.0,6.1095,6.2149,0.0,0.0,0.0,0.0,6.5261,6.4552,6.4859,6.6538,6.5864,6.5858,6.664,6.8316,6.8782,6.7962,6.9599,7.0028,6.9174,6.8311,6.7881,6.7883,6.7023,6.6632,6.663,6.6521,6.6946,6.7481,6.4831,6.3836,6.4052,6.4057,6.4517,6.5208,6.5112,6.5376,6.578,6.5983,6.5929,6.5823,6.6087,6.6867,6.7829,6.8658,6.8487,0.0,0.0,6.8927,6.9043,6.9567,7.024,7.0744,7.0738,6.9912,6.915,6.915,6.8568,6.752,0.0,6.6674,6.8387,7.0332,0.0,6.9725,7.1526,7.0284,6.9128,6.912,6.912,6.912,6.912,6.9807,7.0258,7.0258,6.9578,6.9082,6.9005,6.8195,6.7339,6.6452,6.61,6.5276,6.3917,6.3566,0.0,0.0,0.0,0.0,0.0,0.0,0.0,0.0,0.0,0.0,0.0,0.0,0.0,0.0,0.0,0.0,0.0,0.0,0.0,0.0,0.0,0.0,0.0,0.0,0.0,0.0,0.0,0.0,6.0861,6.3562,0.0,6.5163,6.5597,6.6264,6.7158,6.7428,6.809,6.9261,6.9569,6.984,7.0154,7.1285,7.1752,7.1439,7.2064,7.222,7.1909,7.0463,6.9761,6.9722,6.8864,6.8475,6.8474,6.8414,6.8598,6.879,6.779,6.7294,6.7142,6.7142,6.7026,6.6834,6.6841,6.662,6.6367,6.7017,6.7546,6.8083,6.9267,6.9907,7.0265,7.0579,7.048,7.0256,7.0512,7.0957,7.1404,7.1611,7.2292,7.2948,7.2948,7.1779,7.064,7.0515,6.9778,6.8936,6.8148,6.8434,6.952,7.184,7.0973,7.0542,7.2294,7.1085,6.996,6.996,6.996,6.996,6.996,7.022,7.0411,7.0411,7.0143,6.9769,6.9234,6.889,6.8126,6.6743,6.7068,6.617,6.3856,6.5241,6.5291,0.0,0.0,0.0,0.0,0.0,0.0,0.0,0.0,0.0,0.0,0.0,0.0,0.0,0.0,0.0,0.0,0.0,0.0,0.0,0.0,0.0,0.0,0.0,0.0,0.0,6.059,6.2465,6.2189,6.5163,6.7272,6.7303,6.7816,6.8598,6.9762,7.0387,7.1089,7.1948,7.2534,7.2846,7.2846,7.3705,7.4017,7.3703,7.4017,7.4134,7.4134,7.2963,7.2573,7.2845,7.1948,7.1559,7.1559,7.1247,7.1128,7.1089,7.0816,7.0567,7.0287,6.9428,6.8897,6.8634,6.8682,6.8294,6.7747,6.8072,6.8585,6.932,7.0758,7.142,7.1734,7.2007,7.2267,7.2527,7.2802,7.3266,7.373,7.4042,7.4757,7.5393,7.5393,7.4479,7.3488,7.3039,7.2241,7.1468,7.1022,7.0322,7.0394,7.2346,7.1448,7.1148,7.3182,7.1964,7.1077,7.1683,7.1467,7.1298,7.1298,7.1298,7.1298,7.1298,7.1794,7.1527,7.0113,7.0572,6.9884,6.763,6.889,6.8458,6.5948,6.711,6.7409,6.6683,0.0,0.0,0.0,0.0,0.0,0.0,0.0,0.0,0.0,0.0,0.0,0.0,0.0,0.0,0.0,0.0,0.0,0.0,0.0,0.0,0.0,0.0,0.0,6.102,6.2782,6.4736,6.5547,6.7146,6.8824,7.0541,7.0737,7.1478,7.3157,7.3352,7.3703,7.4486,7.4603,7.4603,7.4603,7.5463,7.5502,7.4681,7.5502,7.5932,7.5932,7.5893,7.6322,7.7101,7.6244,7.5814,7.5736,7.4915,7.4525,7.4447,7.3664,7.3352,7.3079,7.0504,6.9877,7.0466,7.0675,7.0523,7.0168,6.9532,6.9397,6.9684,7.0582,7.1441,7.226,7.3157,7.3977,7.4759,7.5619,7.5853,7.6049,7.6867,7.7593,7.806,7.806,7.7966,7.7585,7.6752,7.5866,7.5011,7.4183,7.2283,7.1029,7.1735,7.1205,7.1504,7.4,7.2855,0.0,7.4145,7.3573,7.3017,7.3017,7.3055,7.3055,7.3055,7.4516,7.4401,7.1917,7.3246,7.2711,6.9425,7.1642,7.2138,7.0411,6.9236,6.8856,6.9273,0.0,0.0,0.0,0.0,0.0,0.0,0.0,0.0,0.0,0.0,0.0,0.0,0.0,0.0,0.0,0.0,0.0,0.0,0.0,0.0,0.0,6.5138,6.5051,6.344,6.5431,6.6915,6.6523,6.8552,7.0151,7.0659,7.183,7.2767,7.3274,7.4447,7.5229,7.5424,7.6634,7.7337,7.7337,7.8155,7.8507,7.8272,7.8507,7.8624,7.8624,7.8001,7.7805,7.8001,7.714,7.64,7.5775,7.5541,7.5073,7.4486,7.4251,7.4173,7.3978,7.2026,7.1392,7.1572,7.163,7.1576,7.1581,7.2032,7.2207,7.2456,7.39,7.4565,7.4917,7.5774,7.6203,7.6438,7.6672,7.675,7.6789,7.7023,7.7243,7.7383,7.7383,7.686,7.6281,7.5965,7.5203,7.4473,7.4086,7.3495,7.3092,7.3106,7.2751,7.2709,7.3437,7.3067,0.0,7.3387,7.3199,7.3208,7.3819,7.3858,7.3858,7.3858,7.4278,7.401,7.2711,7.3093,7.2635,7.1077,7.1688,7.1527,7.0411,7.0061,7.026,0.0,0.0,0.0,0.0,0.0,0.0,0.0,0.0,0.0,0.0,0.0,0.0,0.0,0.0,0.0,0.0,0.0,0.0,0.0,0.0,0.0,0.0,6.7514,6.7544,6.7031,6.7927,6.8591,6.8435,7.0113,7.1402,7.1752,7.3001,7.4094,7.4836,7.6125,7.7064,7.7415,7.839,7.8936,7.8936,7.9444,7.9717,7.9717,8.0068,8.042,8.081,8.0615,8.0732,8.1044,8.0185,7.9483,7.8977,7.8274,7.7688,7.7179,7.6438,7.6125,0.0,0.0,0.0,0.0,0.0,7.3041,7.3119,7.3627,7.3782,7.3978,7.4954,7.5502,7.5893,7.64,7.6828,7.7101,7.7101,7.7101,7.7179,7.7531,7.7921,7.8272,7.8663,7.8624,7.838,7.7948,7.7467,7.6944,7.649,7.631,0.0,7.6059,7.4857,7.4266,7.5358,7.5019,7.4974,7.5704,7.5396,7.5271,7.573,7.5797,7.5645,7.5271,7.5921,0.0,0.0,0.0,7.4172,7.3331,7.2605,0.0,0.0,0.0,0.0,0.0,0.0,0.0,0.0,6.8446,6.8057,0.0,0.0,0.0,0.0,0.0,0.0,0.0,0.0,0.0,0.0,0.0,0.0,0.0,0.0,0.0,0.0,7.024,7.078,7.0976,7.0236,6.9922,7.0621,7.1558,7.2456,7.3235,7.4134,7.5305,7.6828,7.7765,7.8624,7.9522,7.9756,0.0,0.0,0.0,8.0146,8.0146,8.0888,8.1708,8.2604,8.3191,8.3972,8.4751,8.3894,8.3465,8.3269,8.1786,8.1046,8.0733,7.9172,7.8547,7.8313,7.5774,7.4798,7.4798,7.4798,7.4798,7.4798,7.4798,0.0,0.0,7.4915,7.5463,7.6127,7.6205,7.6789,7.7375,7.7375,7.7375,7.757,7.8352,7.9131,7.9873,8.0654,8.1435,8.1786,8.1005,8.085,8.0615,7.9834,7.9544,7.9478,7.9556,7.7252,7.6142,7.8391,7.7783,7.767,7.9202,7.8594,7.8061,7.8137,0.0,0.0,7.7067,7.8414,7.7955,7.4842,7.5768,7.6112,7.5395,7.3637,7.275,7.2864,7.1994,7.0809,6.9349,6.9229,6.9616,7.0493,7.1209,7.0696,0.0,0.0,0.0,0.0,0.0,0.0,0.0,0.0,0.0,0.0,0.0,0.0,0.0,0.0,0.0,7.1205,7.1039,7.1187,7.26,7.2055,7.1307,7.0778,7.2103,7.3118,7.3274,7.4642,7.5697,7.6049,7.6867,7.7726,7.8586,7.9992,8.0732,8.0732,8.2059,8.2762,8.2762,8.2918,8.3465,8.4322,8.3777,0.0,8.4751,8.3894,8.3152,8.2528,8.2176,8.1239,7.9912,7.96,7.9444,7.9248,7.7335,7.6594,7.6594,7.6594,7.6594,7.6594,7.6594,7.6594,7.6711,7.7415,7.7766,7.804,7.8741,7.9053,0.0,7.9209,7.9209,7.9248,7.9405,7.9561,7.9756,7.9912,8.0068,8.0146,7.999,7.9951,7.9912,7.9717,7.9667,7.9853,8.0556,7.936,7.8462,7.8966,7.8578,7.8378,7.8739,7.8325,7.8252,7.8987,7.9063,7.8987,7.8796,7.9101,7.8719,7.7335,7.5645,7.4622,7.4469,7.2176,7.1221,7.1956,7.1107,7.0487,7.0181,7.0127,7.0585,7.1426,7.0764,7.0314,0.0,0.0,0.0,0.0,0.0,0.0,0.0,0.0,0.0,0.0,0.0,6.808,6.9802,0.0,7.1397,7.3587,7.284,7.2601,7.4363,7.3465,7.2486,7.2046,7.3139,7.3959,7.3959,7.5483,7.6613,7.7075,7.8329,7.9421,8.0304,8.1169,8.1637,8.1669,8.245,8.2918,8.2918,8.3308,8.3738,8.4167,8.4167,8.4362,8.479,8.4362,8.3933,8.3541,8.3074,8.2411,8.1552,8.1161,8.1005,8.0927,8.0029,7.917,7.839,7.839,7.839,7.839,7.839,7.839,7.8468,7.8897,7.9053,7.9131,7.9561,7.9717,7.9717,7.9717,7.9717,7.9795,8.0224,8.0341,8.0459,8.0888,8.1005,8.1005,8.1005,8.1005,8.1122,8.1513,8.1591,8.1864,8.2762,8.2384,8.1627,8.0695,8.0275,7.999,7.9852,7.9631,7.9574,7.9884,7.9904,7.9751,7.9331,7.891,7.8443,7.8022,7.6418,7.5653,7.6065,7.3658,7.2329,7.2338,7.1068,7.0181,6.9807,6.9807,7.0457,7.1688,7.0748,7.0781,0.0,0.0,0.0,0.0,0.0,0.0,0.0,6.5426,6.5816,6.7769,6.8707,6.9879,7.2106,7.2653,7.3394,7.5344,7.4601,7.4249,7.5461,7.4563,7.386,7.4055,7.4678,7.5106,7.5106,7.659,7.7915,7.8609,7.9944,8.1113,8.1987,8.2192,8.2308,8.2293,8.245,8.2528,8.2528,8.3347,8.3855,8.4011,8.4714,8.5142,8.5298,8.5142,8.5064,8.4985,8.4128,8.3738,8.3699,8.3035,8.2799,8.2799,8.2799,8.1825,8.042,8.0263,8.0224,8.0224,8.0224,8.0224,8.0224,8.0224,8.0224,8.0224,8.0224,8.0224,8.0224,8.0224,8.0224,8.042,8.1278,8.1475,8.1708,8.2567,8.2799,8.2799,8.2799,8.2799,8.2996,8.3621,8.3738,8.3972,8.4673,8.479,8.43,8.2775,8.2258,8.1946,8.1671,8.1491,8.1225,8.082,8.0735,8.043,7.9598,7.8901,7.8404,7.8252,7.7449,7.7258,7.7984,7.5539,7.3972,7.3522,7.1794,7.061,6.9922,6.9922,7.0724,7.2185,7.1642,7.1985,6.0153,6.1223,6.3031,6.4843,6.531,6.6129,0.0,6.9404,6.9521,7.206,7.2646,7.3039,7.4098,7.4955,7.5306,7.4804,7.5233,7.5427,7.4843,7.5234,7.5898,7.6679,7.6792,7.6825,7.6825,7.8388,7.9442,7.9558,7.9754,8.0219,8.1104,8.1885,8.2308,8.2293,8.2996,8.3386,8.3386,8.4206,8.5026,8.5807,8.5924,8.6353,8.7093,8.6314,8.5963,8.5924,8.5026,8.4634,8.4634,8.4556,8.4517,8.4517,8.4517,8.3933,8.2996,8.2254,8.2019,8.2019,8.2019,8.2019,8.2019,8.2019,8.2019,8.2019,8.2019,8.2019,8.2019,8.2019,8.2019,8.2215,8.2996,8.323,8.3426,8.4322,8.4517,8.4517,8.4517,8.4517,8.4556,8.4634,8.4634,8.4673,8.479,8.479,8.4744,8.4522,8.4237,8.3946,8.362,8.3375,8.2817,8.1776,8.1652,8.1308,8.043,8.0277,7.9933,7.9216,7.8328,7.7908,7.8022,7.5539,7.4507,7.5204,7.356,7.2673,7.2559,7.2559,7.3055,7.3925,7.4622,7.4248,6.366,6.4526,6.5567,6.7343,6.7458,6.7731,7.0151,7.0424,7.0736,7.2885,7.4096,7.4918,7.5273,7.5663,7.5936,7.6094,7.5586,7.5351,7.6015,7.6445,7.6952,7.7757,7.8749,7.914,7.8548,7.9687,8.0429,8.0349,8.0898,8.1597,8.2483,8.2872,8.3257,8.3753,8.4094,8.4245,8.4245,8.4634,8.4985,8.5338,8.5338,8.5532,8.5883,8.5493,8.5338,8.5338,8.4946,8.479,8.479,8.479,8.479,8.479,8.479,8.4595,8.4167,8.3308,8.2996,8.2996,8.2996,8.3347,8.3736,8.3736,8.3736,8.3736,8.3736,8.3736,8.3736,8.3736,8.3736,8.3814,8.4167,8.4245,8.4362,8.4712,8.479,8.479,8.479,8.479,8.4946,8.5456,8.5573,8.5729,8.6235,8.6313,8.6308,8.6328,8.5334,8.4515,8.417,8.4045,8.3655,8.2868,8.2604,8.235,8.2006,8.1538,8.1117,8.0773,7.9933,7.9436,7.9436,7.7487,7.6341,7.6188,7.4545,7.3476,7.2979,7.3476,7.4125,7.4966,7.5318,7.5662,6.6169,6.7031,6.7738,6.9375,6.949,6.9685,7.1405,7.1795,7.2186,7.3671,7.496,7.5936,7.6168,7.6207,7.6326,7.6758,7.5936,7.5699,7.6988,7.7334,7.7829,7.8856,8.0139,8.0848,8.0616,8.1046,8.1405,8.155,8.2263,8.3046,8.3898,8.3973,8.4201,8.4777,8.48,8.479,8.479,8.5024,8.5142,8.5142,8.5415,8.5532,8.5532,8.5532,8.5532,8.5532,8.5532,8.5532,8.5532,8.5532,8.5532,8.5532,8.5532,8.5376,8.5065,8.4441,8.405,8.3855,8.3855,8.4284,8.479,8.479,8.479,8.479,8.479,8.479,8.479,8.479,8.479,8.4868,8.5103,8.5142,8.522,8.5454,8.5532,8.5532,8.5532,8.5532,8.5688,8.6353,8.6471,8.6666,8.7289,8.7406,8.7401,8.7382,8.6311,8.539,8.5075,8.4719,8.4359,8.3994,8.3528,8.3252,8.3252,8.2657,8.2278,8.2278,8.1603,8.1194,8.1194,7.9589,7.8404,7.7755,7.6112,7.4966,7.4393,7.4966,7.5577,7.6197,7.6426,7.7191,6.6578,6.7836,6.9302,7.0386,7.1288,7.2342,7.4062,7.4491,7.4687,7.5477,7.5658,7.5971,7.6792,7.6987,7.673,7.6054,7.6509,7.6947,7.6981,7.7616,7.8725,8.0527,8.0769,8.1474,8.3113,8.2648,8.2617,8.3437,8.3554,8.3945,8.4802,8.4874,8.4826,8.4816,8.48,8.479,8.479,8.5651,8.6041,8.608,8.6937,8.7328,8.7328,8.7328,8.7328,8.7328,8.7328,8.7328,8.7328,8.7328,8.7328,8.7328,8.7328,8.6781,8.6041,8.6041,8.5495,8.4751,8.4751,8.479,8.479,8.479,8.479,8.479,8.479,8.479,8.479,8.479,8.479,8.4985,8.5846,8.6041,8.6275,8.7133,8.7328,8.7328,8.7328,8.7328,8.7328,8.7367,8.7367,8.7367,8.7406,8.7406,8.7401,8.7382,8.7338,8.7206,8.686,8.5818,8.5075,8.5062,8.4327,8.3863,8.3863,8.3593,8.3447,8.3447,8.3107,8.2923,8.2923,8.1308,8.0391,8.0391,7.8748,7.787,7.786,7.787,7.7908,7.7946,7.8796,7.9216,7.0392,7.1124,7.1803,7.2775,7.3238,7.3749,7.4915,7.5192,7.5423,7.6244,7.5964,7.581,7.6705,7.5925,7.543,7.6357,7.6219,7.643,7.7558,7.8527,7.9474,8.0529,8.1328,8.2213,8.3313,8.3273,8.3475,8.4277,8.4411,8.4844,8.5703,8.5778,8.6008,8.6514,8.6537,8.6525,8.6525,8.6827,8.6976,8.6976,8.725,8.7406,8.7406,8.7406,8.7406,8.7406,8.7406,8.7406,8.7406,8.7406,8.7406,8.7406,8.7406,8.7211,8.6976,8.6976,8.6781,8.643,8.5846,8.6039,8.6547,8.6547,8.6547,8.6547,8.6547,8.6547,8.6547,8.6547,8.6547,8.6586,8.6898,8.6976,8.7054,8.7328,8.7406,8.7406,8.7406,8.7406,8.7406,8.7406,8.7406,8.7406,8.7406,8.7406,8.7401,8.7382,8.7351,8.7309,8.7163,8.6612,8.6212,8.6212,8.584,8.5578,8.5578,8.495,8.4541,8.4541,8.3946,8.3586,8.3586,8.233,8.1623,8.1623,8.0337,7.9665,7.9665,8.0238,8.0506,8.0544,8.1356,8.1738,7.2479,7.3221,7.3845,7.4499,7.465,7.4883,7.5785,7.5941,7.6124,7.6621,7.6264,7.5956,7.6225,7.5599,7.5343,7.6214,7.6333,7.6861,7.8357,7.933,8.0196,8.0977,8.1992,8.2928,8.3701,8.419,8.4677,8.5215,8.5309,8.5742,8.6601,8.6639,8.6871,8.7379,8.7404,8.7392,8.7392,8.7415,8.7406,8.7406,8.7406,8.7406,8.7406,8.7406,8.7406,8.7406,8.7406,8.7406,8.7406,8.7406,8.7406,8.7406,8.7406,8.7406,8.7406,8.7406,8.7406,8.7328,8.6744,8.6937,8.7406,8.7406,8.7406,8.7406,8.7406,8.7406,8.7406,8.7406,8.7406,8.7406,8.7406,8.7406,8.7406,8.7406,8.7406,8.7406,8.7406,8.7406,8.7406,8.7406,8.7406,8.7406,8.7406,8.7406,8.7402,8.7391,8.7351,8.7312,8.7301,8.7071,8.6934,8.6934,8.6782,8.6694,8.6694,8.6078,8.5715,8.5715,8.5132,8.4772,8.4772,8.3779,8.3246,8.3246,8.2231,8.1694,8.1733,8.2271,8.2531,8.2569,8.2978,8.3175,7.2931,7.4097,7.5336,7.5495,7.557,7.5764,7.6586,7.6783,7.6745,7.6626,7.6552,7.6319,7.5547,7.6048,7.6376,7.5716,7.6899,7.825,7.9225,7.994,8.072,8.177,8.2682,8.3543,8.4403,8.5402,8.6063,8.6249,8.625,8.664,8.7461,8.742,8.7418,8.7418,8.7405,8.7393,8.7393,8.7415,8.7406,8.7407,8.7406,8.7406,8.7406,8.7406,8.7406,8.7406,8.7406,8.7406,8.7406,8.7406,8.7406,8.7406,8.7406,8.7406,8.7406,8.7406,8.7406,8.7406,8.7406,8.7406,8.7406,8.7406,8.7406,8.7406,8.7406,8.7406,8.7406,8.7406,8.7406,8.7406,8.7406,8.7406,8.7406,8.7406,8.7406,8.7406,8.7406,8.7406,8.7406,8.7406,8.7445,8.7484,8.7484,8.7484,8.7523,8.7523,8.7488,8.7409,8.7306,8.7231,8.7209,8.7209,8.7209,8.7209,8.7209,8.6951,8.6807,8.6807,8.6565,8.6423,8.6423,8.5643,8.5204,8.5204,8.443,8.4043,8.4043,8.4043,8.4043,8.4037,8.3786,8.3641,7.5116,7.5321,7.5332,7.6015,7.6185,7.6224,7.6462,7.6501,7.6485,7.6466,7.5946,7.583,7.6876,7.6726,7.6588,7.7072,7.75,7.806,7.8972,7.935,8.0055,8.1571,8.2621,8.3543,8.4403,8.5289,8.6095,8.6882,8.7066,8.7265,8.75,8.7461,8.7461,8.7461,8.7417,8.7411,8.7405,8.7382,8.7412,8.7385,8.7412,8.7406,8.7406,8.7406,8.7406,8.7406,8.7406,8.7406,8.7406,8.7406,8.7406,8.7406,8.7406,8.7406,8.7406,8.7406,8.7406,8.7406,8.7406,8.7406,8.7406,8.7406,8.7406,8.7406,8.7406,8.7406,8.7406,8.7406,8.7406,8.7406,8.7406,8.7406,8.7406,8.7406,8.7406,8.7406,8.7406,8.7406,8.7406,8.7406,8.7913,8.8383,8.8383,8.8891,8.932,8.932,8.9285,8.8782,8.7487,8.7244,8.7209,8.7209,8.7209,8.7209,8.7209,8.7135,8.7113,8.7113,8.7036,8.7011,8.7011,8.6598,8.6361,8.6361,8.5989,8.5772,8.5772,8.5772,8.5772,8.5772,8.5692,8.5657,7.5469,7.574,7.5779,7.6287,7.6403,7.6403,7.6403,7.6403,7.6519,7.6906,7.6281,7.5972,7.6945,7.6713,7.6558,7.7061,7.7751,7.8605,7.9487,8.0,8.0654,8.1582,8.2876,8.3839,8.427,8.546,8.6401,8.6997,8.7255,8.7416,8.75,8.75,8.75,8.75,8.742,8.7572,8.7956,8.7982,8.8174,8.8533,8.8558,8.8551,8.8551,8.8543,8.854,8.854,8.854,8.854,8.854,8.854,8.854,8.854,8.854,8.854,8.854,8.854,8.854,8.854,8.854,8.854,8.8422,8.764,8.7406,8.7406,8.7406,8.7406,8.7406,8.7406,8.7406,8.7484,8.7874,8.7952,8.8069,8.8461,8.854,8.854,8.854,8.854,8.854,8.854,8.893,8.9281,8.9281,8.9673,8.9986,8.9986,8.9957,8.954,8.855,8.8068,8.7754,8.7754,8.7443,8.7209,8.7209,8.7209,8.7209,8.7209,8.7209,8.7209,8.7209,8.7048,8.6994,8.6994,8.6812,8.6752,8.6752,8.6752,8.6752,8.6747,8.6649,8.6597,7.4999,7.5817,7.6403,7.6403,7.6403,7.6403,7.6403,7.6403,7.6597,7.737,7.6945,7.6442,7.6558,7.6481,7.6481,7.6713,7.7906,7.9182,8.0238,8.1039,8.1539,8.1655,8.3208,8.4217,8.4121,8.5735,8.6796,8.6787,8.7049,8.7268,8.7459,8.75,8.7539,8.7656,8.7733,8.812,8.8857,8.8855,8.9246,8.9989,9.0017,9.0012,9.0012,9.0,8.9992,8.9992,8.9992,8.9991,8.9989,8.9989,8.9987,8.9986,8.9986,8.9986,8.9986,8.9986,8.9986,8.9986,8.9986,8.9986,8.9751,8.8227,8.7757,8.7757,8.7757,8.7757,8.7757,8.7757,8.7757,8.7913,8.8696,8.8852,8.9047,8.983,8.9986,8.9986,8.9986,8.9986,8.9986,8.9986,9.0103,9.0181,9.0181,9.0259,9.0337,9.0337,9.0282,9.0259,9.0233,8.9322,8.8693,8.8689,8.7988,8.7559,8.7559,8.7559,8.7559,8.7559,8.7559,8.7481,8.7365,8.7365,8.7326,8.7209,8.7209,8.7209,8.7209,8.7209,8.7209,8.7205,8.6947,8.6831,7.574,7.6287,7.6403,7.6403,7.6403,7.6403,7.6403,7.6403,7.6442,7.6597,7.6519,7.6635,7.7332,7.6906,7.6868,7.8293,7.8216,7.8466,8.0016,8.0371,8.0719,8.1449,8.3081,8.4146,8.4102,8.5649,8.6696,8.6777,8.6954,8.7102,8.7228,8.7417,8.7812,8.8476,8.9178,8.9607,8.9765,8.9759,8.9834,8.9995,8.9989,8.9985,8.9985,8.9983,8.9982,8.9982,8.9982,0.0,9.0005,9.0005,8.9998,8.9986,8.9986,8.9986,8.9986,8.9986,8.9986,8.9986,8.9986,8.9986,8.9947,8.9634,8.9556,8.9556,8.9556,8.9556,8.9556,8.9556,8.9556,8.9595,8.9751,8.9751,8.983,8.9947,8.9986,8.9986,8.9986,8.9986,8.9986,8.9986,9.057,9.1077,9.1077,9.1624,9.2055,9.2055,9.2077,9.2054,9.2066,9.0665,8.9658,8.9589,8.943,8.9352,8.9352,8.9352,8.9352,8.9352,8.9352,8.904,8.83,8.8261,8.7949,8.7209,8.7209,8.7209,8.7209,8.7209,8.7209,8.7209,8.7142,8.7132,7.5939,7.6403,7.6403,7.6403,7.6751,7.6945,7.6519,7.6751,7.71,7.71,7.6713,7.6674,7.7519,7.6984,7.6674,7.7525,7.8061,7.8641,7.9453,8.0337,8.1033,8.1459,8.3051,8.4095,8.4095,8.5604,8.6623,8.6675,8.7244,8.7659,8.7873,8.8469,8.8984,8.9375,8.9765,9.0234,9.0664,9.0663,9.0896,9.1366,9.1363,9.136,9.136,9.1356,9.1354,9.1354,9.1348,9.1343,9.1336,9.1329,9.1281,9.1313,9.1313,9.1313,9.1313,9.1313,9.1313,9.1313,9.1313,9.1313,9.1313,9.1313,9.0727,8.9986,8.9986,8.9986,8.9986,8.9986,8.9986,9.0103,9.057,9.0687,9.0765,9.1196,9.1313,9.1313,9.1313,9.1313,9.1313,9.1313,9.1624,9.1936,9.1936,9.2248,9.2484,9.2484,9.2514,9.25,9.2517,9.1788,9.1047,9.0524,9.0053,8.982,8.982,8.982,8.982,8.982,8.982,8.9625,8.9196,8.9196,8.8962,8.8573,8.8105,8.7871,8.7871,8.7404,8.7209,8.7209,8.7209,8.7209,7.5701,7.6249,7.6442,7.6635,7.7177,7.7486,7.6597,7.6945,7.7332,7.6939,7.632,7.6016,7.6514,7.6204,7.5862,7.5862,7.7326,7.8564,7.895,8.026,8.1304,8.1497,8.3051,8.4095,8.4095,8.5604,8.6603,8.6603,8.7714,8.8515,8.8769,8.9719,9.0273,9.0273,9.0469,9.0898,9.1562,9.1562,9.1914,9.2617,9.2616,9.2615,9.2615,9.2611,9.2608,9.2608,9.2599,9.2593,9.2589,9.2535,9.2527,9.2484,9.2484,9.2484,9.2484,9.2484,9.2484,9.2484,9.2484,9.2484,9.2484,9.2484,9.1625,9.0532,9.0532,9.0532,9.0532,9.0532,9.0532,9.0688,9.1389,9.1546,9.1702,9.2365,9.2484,9.2484,9.2484,9.2484,9.2484,9.2484,9.2484,9.2484,9.2484,9.2484,9.2484,9.2484,9.2484,9.2516,9.2494,9.251,9.2198,9.1473,9.0758,9.0365,9.0365,9.0365,9.0365,9.0365,9.0365,9.0287,9.0092,9.0092,8.9975,8.982,8.9118,8.8767,8.8767,8.8105,8.7676,8.7481,8.7481,8.7365,7.496,7.5817,7.6597,7.737,7.7635,7.7486,7.6597,7.6442,7.6094,7.4541,7.4193,7.3922,7.3187,7.3651,7.4115,7.4115,7.5546,7.7177,7.8796,7.9763,8.0608,8.142,8.3051,8.4095,8.4095,8.5604,8.6603,8.6603,8.8371,8.952,8.9666,9.0618,9.1172,9.1172,9.1953,9.2383,9.2461,9.2461,9.2539,9.2617,9.2617,9.2617,9.2617,9.2617,9.2617,9.2617,9.2614,9.2609,0.0,9.2589,9.2536,9.2484,9.2484,9.2484,9.2484,9.2484,9.2484,9.2484,9.2484,9.2484,9.2484,9.2484,9.2406,9.2289,9.2289,9.2289,9.2289,9.2289,9.2289,9.2289,9.2367,9.2406,9.2406,9.2484,9.2484,9.2484,9.2484,9.2484,9.2484,9.2484,9.2484,9.2484,9.2484,9.2484,9.2484,9.2484,9.2484,9.2516,9.2494,9.251,9.244,9.2285,9.2214,9.2154,9.2154,9.2154,9.2154,9.2154,9.2154,9.1803,9.1024,9.0985,9.0595,8.982,8.9703,8.9664,8.9664,8.9586,8.9157,8.8378,8.8378,8.7949,7.5392,7.6514,7.7254,7.7597,7.7293,7.6829,7.6481,7.5624,7.4695,7.4038,7.3883,7.3612,7.2761,7.3723,7.411,7.2568,7.5044,7.7254,7.7403,7.9028,8.053,8.1381,8.3051,8.4095,8.4095,8.5604,8.7035,8.8079,8.947,9.0479,9.1046,9.1721,9.207,9.207,9.2422,9.2617,9.2617,9.2617,9.2617,9.2617,9.2617,9.2617,9.2617,9.2617,9.2617,9.2617,9.2613,9.2606,0.0,9.2543,9.2528,9.2484,9.2484,9.2484,9.2484,9.2484,9.2484,9.2484,9.2484,9.2484,9.2484,9.2484,9.2484,9.2484,9.2484,9.2484,9.2484,9.2484,9.2484,9.2484,9.2484,9.2484,9.2484,9.2484,9.2484,9.2484,9.2484,9.2484,9.2484,9.2484,9.2484,9.2484,9.2484,9.2484,9.2484,9.2484,9.2484,9.2481,9.2512,9.2492,9.2505,9.2476,9.2425,9.2388,9.2388,9.2388,9.2388,9.2388,9.2388,9.2232,9.1881,9.1881,9.1725,9.1375,9.0829,9.0595,9.0595,9.0053,8.9625,8.9274,8.8728,8.83,7.474,7.6287,7.737,7.7635,7.6862,7.5933,7.5701,7.4541,7.338,7.2839,7.2761,7.2491,7.164,7.3065,7.3612,7.1291,7.4508,7.7177,7.6829,7.8757,8.0724,8.2116,8.3554,8.4559,8.4792,8.6145,8.7615,8.9092,9.0119,9.1061,9.1871,9.2329,9.2534,9.2534,9.2577,9.2617,9.2617,9.2617,9.2617,9.2617,9.2617,9.2617,9.2617,9.2617,9.2617,9.2617,9.2612,9.2605,0.0,9.2542,9.2527,9.2484,9.2484,9.2484,9.2484,9.2484,9.2484,9.2484,9.2484,9.2484,9.2484,9.2484,9.2484,9.2484,9.2484,9.2484,9.2484,9.2484,9.2484,9.2484,9.2484,9.2484,9.2484,9.2484,9.2484,9.2484,9.2484,9.2484,9.2484,9.2484,9.2484,9.2484,9.2484,9.2484,9.2484,9.2484,9.2484,9.2484,9.2484,9.2505,9.2485,9.2505,9.2447,9.2402,9.2388,9.2388,9.2388,9.2388,9.2388,9.2388,9.2388,9.2388,9.2388,9.2388,9.1803,9.1492,9.1492,9.0868,9.044,9.017,8.9547,8.9118,7.2413,7.4502,7.6635,7.7481,7.6397,7.4883,7.4115,7.3264,7.2104,7.0407,7.0059,6.9788,6.9004,7.0905,7.2065,7.0291,7.3618,7.6713,7.7564,7.9144,8.1155,8.3747,8.4792,8.5643,8.6487,8.7377,8.8227,8.9131,9.0119,9.1061,9.1871,9.2216,9.2406,9.2406,9.2532,9.2617,9.2617,9.2617,9.2617,9.2617,9.2617,9.2617,9.2617,9.2617,9.2617,9.2617,9.2615,9.261,0.0,9.2592,9.2577,9.2484,9.2484,9.2484,9.2484,9.2484,9.2484,9.2484,9.2484,9.2484,9.2484,9.2484,9.2484,9.2484,9.2484,9.2484,9.2484,9.2484,9.2484,9.2484,9.2484,9.2484,9.2484,9.2484,9.2484,9.2484,9.2484,9.2484,9.2484,9.2484,9.2484,9.2484,9.2484,9.2484,9.2484,9.2484,9.2484,9.2484,9.2484,9.2505,9.2492,9.2492,9.244,9.2389,9.2391,9.2388,9.2388,9.2388,9.2388,9.2388,9.2388,9.2388,9.2388,9.2388,9.2388,9.2388,9.2388,9.2388,9.192,9.1102,9.1063,9.0595,7.0595,7.2723,7.4618,7.427,7.2916,7.1717,7.2065,7.1021,7.0015,7.002,7.0484,7.0639,6.9783,7.1756,7.2916,7.1181,7.4005,7.6481,7.679,7.8293,7.9879,8.1271,8.3244,8.5024,8.6448,8.7925,8.8892,8.9169,9.0566,9.1502,9.1735,9.1962,9.2168,9.2403,9.2532,9.2617,9.2617,9.2617,9.2617,9.2617,9.2617,9.2617,9.2617,9.2617,9.2617,9.2617,9.2615,9.261,9.2602,9.2592,9.2577,9.2484,9.2484,9.2484,9.2484,9.2484,9.2484,9.2484,9.2484,9.2484,9.2484,9.2484,9.2484,9.2484,9.2484,9.2484,9.2484,9.2484,9.2484,9.2484,9.2484,9.2484,9.2484,9.2484,9.2484,9.2484,9.2484,9.2484,9.2484,9.2484,9.2484,9.2484,9.2484,9.2484,9.2484,9.2484,9.2484,9.2484,9.2484,9.2518,9.2509,9.2494,9.2476,9.2446,9.2393,9.2402,9.2388,9.2388,9.2388,9.2388,9.2388,9.2388,9.2388,9.2388,9.2388,9.2388,9.2388,9.2388,9.1959,9.1102,9.1102,9.0634,6.8738,7.0943,7.28,7.2258,7.0827,6.9783,7.0639,6.9783,6.9048,6.9827,7.0446,7.0755,7.0523,7.2104,7.3148,7.2413,7.4856,7.7022,7.7332,7.8873,8.0498,8.1968,8.4134,8.5797,8.6526,8.8196,8.9208,8.9208,9.0749,9.1716,9.1716,9.182,9.1995,9.2204,9.2419,9.2531,9.2531,9.2577,9.2617,9.2617,9.2617,9.2617,9.2617,9.2617,9.2617,9.2617,9.2616,9.2613,0.0,9.2598,9.2585,9.2532,9.2525,9.2484,9.2484,9.2484,9.2484,9.2484,9.2484,9.2484,9.2484,9.2484,9.2484,9.2484,9.2484,9.2484,9.2484,9.2484,9.2484,9.2484,9.2484,9.2484,9.2484,9.2484,9.2484,9.2484,9.2484,9.2484,9.2484,9.2484,9.2484,9.2484,9.2484,9.2484,9.2484,9.2484,9.2484,9.2484,9.2484,9.2484,9.2518,9.2505,9.2496,9.2474,9.2426,9.2393,9.2402,9.2388,9.2388,9.2388,9.2388,9.2388,9.2388,9.2388,9.2388,9.2388,9.2388,9.2388,9.2115,9.157,9.157,9.1297,0.0,6.9164,7.1098,7.1059,6.9899,6.9009,6.9749,6.9396,0.0,6.9865,7.0098,7.0407,7.1181,7.2104,7.3032,7.3767,7.5972,7.7906,7.8796,8.042,8.2426,8.4908,8.668,8.7454,8.6758,8.8196,8.9208,8.9285,9.0787,9.1716,9.1716,9.1802,9.1889,9.1889,9.2198,9.2393,9.2404,9.2531,9.2578,9.2617,9.2617,9.2617,9.2617,9.2617,9.2617,9.2617,9.2617,9.2616,9.2613,9.2606,9.2597,9.2583,9.2528,9.2484,9.2484,9.2484,9.2484,9.2484,9.2484,9.2484,9.2484,9.2484,9.2484,9.2484,9.2484,9.2484,9.2484,9.2484,9.2484,9.2484,9.2484,9.2484,9.2484,9.2484,9.2484,9.2484,9.2484,9.2484,9.2484,9.2484,9.2484,9.2484,9.2484,9.2484,9.2484,9.2484,9.2484,9.2484,9.2484,9.2484,9.2484,9.2484,9.2507,9.2485,9.2498,9.2423,9.2389,9.2391,9.2388,9.2388,9.2388,9.2388,9.2388,9.2388,9.2388,9.2388,9.2388,9.2388,9.2388,9.2388,9.2388,9.2388,6.5102,0.0,6.9241,6.8545,6.8584,6.8849,0.0,6.9396,6.9788,6.9943,7.1065,7.1833,7.1374,7.3071,7.438,7.396,7.5469,7.7022,7.7867,8.0027,8.2232,8.4134,8.5294,8.6332,8.7493,8.8582,8.9479,9.0052,9.1097,9.1716,9.1716,9.1739,9.1741,9.1741,9.1926,9.2147,9.2404,9.2421,9.2486,9.2617,9.2617,9.2617,9.2617,9.2617,9.2617,9.2617,9.2617,9.2615,9.2606,9.2604,9.2552,9.2528,9.2525,9.2484,9.2484,9.2484,9.2484,9.2484,9.2484,9.2484,9.2484,9.2484,9.2484,9.2484,9.2484,9.2484,9.2484,9.2484,9.2484,9.2484,9.2484,9.2484,9.2484,9.2484,9.2484,9.2484,9.2484,9.2484,9.2484,9.2484,9.2484,9.2484,9.2484,9.2484,9.2484,9.2484,9.2484,9.2484,9.2484,9.2484,9.2484,9.2484,9.2518,9.2509,9.2485,9.2437,9.2389,9.2391,9.2388,9.2388,9.2388,9.2388,9.2388,9.2388,9.2388,9.2388,9.2388,9.2388,9.2388,9.2388,9.2388,9.2388,6.4527,6.6263,6.7501,6.7036,6.7578,6.8308,6.8694,6.9744,7.0717,7.1103,7.2258,7.3187,7.3071,7.4502,7.5546,7.5121,7.6784,7.8602,7.9846,8.1581,8.3167,8.4482,8.5372,8.641,8.7763,8.8698,8.9511,9.0323,9.1213,9.1716,9.1716,9.1716,9.1716,9.1716,9.1786,9.1926,9.2175,9.2237,9.2352,9.2527,9.2527,9.2534,9.2617,9.2617,9.2617,9.2617,9.2617,9.2614,9.2608,9.26,9.2588,9.2533,9.2527,9.2484,9.2484,9.2484,9.2484,9.2484,9.2484,9.2484,9.2484,9.2484,9.2484,9.2484,9.2484,9.2484,9.2484,9.2484,9.2484,9.2484,9.2484,9.2484,9.2484,9.2484,9.2484,9.2484,9.2484,9.2484,9.2484,9.2484,9.2484,9.2484,9.2484,9.2484,9.2484,9.2484,9.2484,9.2484,9.2484,9.2484,9.2484,9.2484,9.2484,9.2514,9.2494,9.2466,9.2429,9.2415,9.2412,9.2405,9.2388,9.2388,9.2388,9.2388,9.2388,9.2388,9.2388,9.2388,9.2388,9.2388,9.2388,9.2388,6.4759,6.5876,6.6417,6.6417,6.7036,6.7926,6.8772,7.017,7.1562,7.2413,7.338,7.4303,7.496,7.5817,7.6403,7.6403,7.8448,8.0614,8.2361,8.3476,8.4405,8.5217,8.6177,8.7144,8.7995,8.8892,8.9704,9.0555,9.129,9.1716,9.1716,9.1716,9.1716,9.1716,9.1716,9.1754,9.1856,9.1997,9.2159,9.2348,9.2348,9.2421,9.2534,9.2534,9.2535,9.2577,9.2578,0.0,9.2611,9.2596,9.2585,9.2581,9.2528,9.2484,9.2484,9.2484,9.2484,9.2484,9.2484,9.2484,9.2484,9.2484,9.2484,9.2484,9.2484,9.2484,9.2484,9.2484,9.2484,9.2484,9.2484,9.2484,9.2484,9.2484,9.2484,9.2484,9.2484,9.2484,9.2484,9.2484,9.2484,9.2484,9.2484,9.2484,9.2484,9.2484,9.2484,9.2484,9.2484,9.2484,9.2484,9.2484,9.2484,9.2516,9.2498,9.2496,9.2476,9.2423,9.2408,9.2386,9.2391,9.2388,9.2388,9.2388,9.2388,9.2388,9.2388,9.2388,9.2388,9.2388,9.2388,9.2388,6.5876,6.723,6.7307,6.7307,6.7965,6.881,6.9628,7.0601,7.1562,7.2413,7.3839,7.496,7.5076,7.5817,7.6403,7.6403,7.7983,7.9763,8.1459,8.3089,8.4405,8.5217,8.6719,8.8034,8.8931,8.9743,9.0555,9.1445,9.1638,9.1716,9.1716,9.1716,9.1716,9.1716,9.1716,9.1698,9.1739,9.185,9.1988,9.2156,9.2156,9.2165,9.2183,9.2183,9.2276,9.2422,0.0,9.2498,9.2605,9.2593,9.2578,9.2527,9.2484,9.2484,9.2484,9.2484,9.2484,9.2484,9.2484,9.2484,9.2484,9.2484,9.2484,9.2484,9.2484,9.2484,9.2484,9.2484,9.2484,9.2484,9.2484,9.2484,9.2484,9.2484,9.2484,9.2484,9.2484,9.2484,9.2484,9.2484,9.2484,9.2484,9.2484,9.2484,9.2484,9.2484,9.2484,9.2484,9.2484,9.2484,9.2484,9.2484,9.2484,9.2482,9.2518,9.2518,9.2509,9.2481,9.2435,9.2386,9.2391,9.2388,9.2388,9.2388,9.2388,9.2388,9.2388,9.2388,9.2388,9.2388,9.2388,9.2388,6.5915,6.6804,6.723,6.9087,7.0556,7.1634,7.2026,7.3109,7.3927,7.3419,7.4264,7.5115,7.5115,7.5817,7.6868,7.8216,7.9531,8.0956,8.2664,8.3979,8.5062,8.5913,8.7144,8.8227,8.9131,8.9936,9.0749,9.1638,9.1716,9.1716,9.1716,9.1716,9.1716,9.1716,9.1716,9.1716,9.1716,9.1767,9.1839,9.1979,9.1979,9.2035,9.2083,9.2143,9.2183,9.2318,0.0,9.2418,9.2499,9.2515,9.253,9.2484,9.2484,9.2484,9.2484,9.2484,9.2484,9.2484,9.2484,9.2484,9.2484,9.2484,9.2484,9.2484,9.2484,9.2484,9.2484,9.2484,9.2484,9.2484,9.2484,9.2484,9.2484,9.2484,9.2484,9.2484,9.2484,9.2484,9.2484,9.2484,9.2484,9.2484,9.2484,9.2484,9.2484,9.2484,9.2484,9.2484,9.2484,9.2484,9.2484,9.2484,9.2484,9.2484,9.2484,9.2484,9.251,9.2513,9.2429,9.2386,9.2391,9.2388,9.2388,9.2388,9.2388,9.2388,9.2388,9.2388,9.2388,9.2388,9.2388,9.2388,6.5992,6.6804,6.7926,7.133,7.2452,7.2916,7.3728,7.4889,7.5546,7.4657,7.4966,7.5579,7.6198,7.6823,7.7945,7.9873,8.0917,8.2116,8.3863,8.4792,8.5604,8.6494,8.7531,8.8466,8.9131,9.0091,9.0981,9.1638,9.1716,9.1716,9.1716,9.1716,9.1716,9.1716,9.1716,9.1716,9.1716,9.1716,9.1747,9.1866,9.1866,9.1926,9.2005,9.209,9.2129,9.2171,9.2276,9.2366,9.238,9.2448,9.2499,9.2484,9.2484,9.2484,9.2484,9.2484,9.2484,9.2484,9.2484,9.2484,9.2484,9.2484,9.2484,9.2484,9.2484,9.2484,9.2484,9.2484,9.2484,9.2484,9.2484,9.2484,9.2484,9.2484,9.2484,9.2484,9.2484,9.2484,9.2484,9.2484,9.2484,9.2484,9.2484,9.2484,9.2484,9.2484,9.2484,9.2484,9.2484,9.2484,9.2484,9.2484,9.2484,9.2484,9.2484,9.2484,9.2509,9.2505,9.2426,9.2389,9.2402,9.2395,9.2388,9.2388,9.2388,9.2388,9.2388,9.2388,9.2388,9.2388,9.2388,9.2388,6.6727,6.8545,7.0562,7.3955,7.1982,7.001,7.3187,7.3999,7.4502,7.5939,7.6287,7.7016,7.9415,7.9873,7.9989,8.0182,8.0917,8.2116,8.3863,8.4792,8.5604,8.6494,8.8079,8.9131,8.9208,9.0671,9.1638,9.1716,9.1716,9.1716,9.1716,9.1716,9.1716,9.1716,9.1716,9.1716,9.1716,9.1716,9.1684,9.1705,9.1705,9.1719,9.1739,9.1812,9.1894,9.202,9.209,9.2232,9.2419,9.2422,9.245,9.2484,9.2484,9.2484,9.2484,9.2484,9.2484,9.2484,9.2484,9.2484,9.2484,9.2484,9.2484,9.2484,9.2484,9.2484,9.2484,9.2484,9.2484,9.2484,9.2484,9.2484,9.2484,9.2484,9.2484,9.2484,9.2484,9.2484,9.2484,9.2484,9.2484,9.2484,9.2484,9.2484,9.2484,9.2484,9.2484,9.2484,9.2484,9.2484,9.2484,9.2484,9.2484,9.2484,9.2484,9.2484,9.2514,9.249,9.2437,9.2402,9.2399,9.2405,9.2388,9.2388,9.2388,9.2388,9.2388,9.2388,9.2388,9.2388,9.2388,9.2388,6.8352,6.9904,7.1485,7.438,7.3916,7.3336,7.5701,7.6243,7.6127,7.5662,7.6011,7.6674,7.7674,7.9144,8.0376,8.0917,8.22,8.3515,8.4675,8.5565,8.6416,8.7299,8.8466,8.9402,8.9898,9.1019,9.1716,9.1716,9.1716,9.1716,9.1716,9.1716,9.1716,9.1716,9.1716,9.1716,9.1716,9.1716,9.1445,9.0903,9.0903,9.0924,9.0965,9.1005,9.1116,9.125,9.1866,9.2195,9.229,9.2375,9.2421,9.2451,9.2461,9.2484,9.2484,9.2484,9.2484,9.2484,9.2484,9.2484,9.2484,9.2484,9.2484,9.2484,9.2484,9.2484,9.2484,9.2484,9.2484,9.2484,9.2484,9.2484,9.2484,9.2484,9.2484,9.2484,9.2484,9.2484,9.2484,9.2484,9.2484,9.2484,9.2484,9.2484,9.2484,9.2484,9.2484,9.2484,9.2484,9.2484,9.2484,9.2484,9.2484,9.2484,9.2484,9.2484,9.2481,9.2512,9.2481,9.2446,9.2405,9.2389,9.2412,9.2388,9.2388,9.2388,9.2388,9.2388,9.2388,9.2388,9.2388,9.2388,6.9788,7.1258,7.2684,7.4928,7.5115,7.5154,7.69,7.7293,7.7171,7.6778,7.7635,7.826,7.7713,7.9685,8.1542,8.1852,8.336,8.4675,8.5217,8.63,8.7222,8.7841,8.8892,8.9782,9.0362,9.1174,9.1716,9.1716,9.1716,9.1716,9.1716,9.1716,9.1716,9.1716,9.1716,9.1716,9.1716,9.1716,9.1251,9.04,9.015,9.0068,9.0114,9.0423,9.0644,9.0758,9.1732,9.2187,9.221,9.2286,9.2368,9.2379,9.242,9.2447,9.2474,9.2474,9.2463,9.2484,9.2484,9.2484,9.2484,9.2484,9.2484,9.2484,9.2484,9.2484,9.2484,9.2484,9.2484,9.2484,9.2484,9.2484,9.2484,9.2484,9.2484,9.2484,9.2484,9.2484,9.2484,9.2484,9.2484,9.2484,9.2484,9.2484,9.2484,9.2484,9.2484,9.2484,9.2484,9.2484,9.2484,9.2484,9.2484,9.2484,9.2484,9.2484,9.2484,9.2484,9.251,9.2483,9.2435,9.2423,9.2447,9.2425,9.2412,9.2405,9.2405,9.2395,9.2388,9.2388,9.2388,9.2388,7.0866,7.2607,7.4309,7.5978,7.516,7.4386,7.6016,7.6403,7.7132,7.9685,8.1581,8.2238,8.0536,8.2355,8.3824,8.298,8.4211,8.5294,8.5333,8.6796,8.7918,8.7918,8.9395,9.04,9.04,9.1174,9.1716,9.1716,9.1716,9.1716,9.1716,9.1716,9.1716,9.1716,9.1716,9.1716,9.1716,9.1716,9.1251,9.0362,8.9578,8.9185,8.923,9.0151,9.065,9.0746,9.1694,9.2146,9.2189,9.2193,9.2237,9.2287,9.2287,9.2324,9.2383,9.2383,9.2451,9.2484,9.2484,9.2484,9.2484,9.2484,9.2484,9.2484,9.2484,9.2484,9.2484,9.2484,9.2484,9.2484,9.2484,9.2484,9.2484,9.2484,9.2484,9.2484,9.2484,9.2484,9.2484,9.2484,9.2484,9.2484,9.2484,9.2484,9.2484,9.2484,9.2484,9.2484,9.2484,9.2484,9.2484,9.2484,9.2484,9.2484,9.2484,9.2484,9.2484,9.2484,9.2484,9.2514,9.2492,9.2508,9.2493,9.2493,9.242,9.2402,9.2402,9.2405,9.2388,9.2388,9.2388,9.2388,7.1446,7.3883,7.5624,7.5508,7.6939,7.7983,7.6713,7.6868,7.7867,7.9795,8.1117,8.1729,8.1226,8.2741,8.4211,8.4521,8.4985,8.572,8.6951,8.757,8.8343,8.9511,9.0091,9.0633,9.1251,9.1561,9.1716,9.1716,9.1716,9.1716,9.1716,9.1716,9.1716,9.1716,9.1716,9.1716,9.1716,9.1716,9.0981,8.9556,8.9307,8.8939,8.8452,8.9364,8.9776,8.9952,9.1439,9.2107,9.2137,9.2187,9.2237,9.2287,9.2287,9.2324,9.2383,9.2383,9.2451,9.2484,9.2484,9.2484,9.2484,9.2484,9.2484,9.2484,9.2484,9.2484,9.2484,9.2484,9.2484,9.2484,9.2484,9.2484,9.2484,9.2484,9.2484,9.2484,9.2484,9.2484,9.2484,9.2484,9.2484,9.2484,9.2484,9.2484,9.2484,9.2484,9.2484,9.2484,9.2484,9.2484,9.2484,9.2484,9.2484,9.2484,9.2484,9.2484,9.2484,9.2484,9.2484,9.2514,9.2492,9.2485,9.2513,9.2493,9.242,9.2402,9.2402,9.2405,9.2388,9.2388,9.2388,9.2388,7.3612,7.6011,7.7326,7.6784,7.8216,7.9415,7.8177,7.8332,7.8989,7.9989,8.142,8.2432,8.2084,8.3708,8.514,8.5294,8.5604,8.63,8.7686,8.8196,8.8892,9.0246,9.071,9.1135,9.1638,9.1716,9.1716,9.1716,9.1716,9.1716,9.1716,9.1716,9.1716,9.1716,9.1716,9.1716,9.1716,9.1716,9.0865,8.9208,8.9223,8.8666,8.7623,8.885,8.9454,8.9584,9.1333,9.211,9.212,9.2125,9.2195,9.2201,9.2201,9.2299,9.2374,9.2374,9.242,9.2488,9.2473,9.2441,9.2441,9.2441,9.2441,9.2477,9.2493,9.2484,9.2484,9.2484,9.2484,9.2484,9.2484,9.2484,9.2484,9.2484,9.2484,9.2484,9.2484,9.2484,9.2484,9.2484,9.2484,9.2484,9.2484,9.2484,9.2484,9.2484,9.2484,9.2484,9.2484,9.2484,9.2484,9.2484,9.2484,9.2484,9.2484,9.2484,9.2484,9.2484,9.2484,9.2518,9.2505,9.2505,9.2498,9.2485,9.2456,9.244,9.244,9.245,9.2425,9.2412,9.2412,9.2402,7.6243,7.8177,7.8989,7.8912,7.8834,7.9028,8.0066,8.0182,8.0143,8.0382,8.2393,8.3863,8.3173,8.4985,8.6332,8.5565,8.6145,8.7028,8.7879,8.8776,8.9588,9.04,9.1213,9.1716,9.1716,9.1716,9.1716,9.1716,9.1716,9.1716,9.1716,9.1716,9.1716,9.1716,9.1716,9.1716,9.1716,9.1638,9.0787,8.9208,8.9184,8.8354,8.6842,8.8623,8.9537,8.9818,9.141,9.211,9.211,9.211,9.211,9.211,9.211,9.2184,9.2276,9.2276,9.2378,9.2471,9.2421,9.2382,9.2382,9.2382,9.2382,9.2421,9.2471,9.2489,9.2484,9.2484,9.2484,9.2484,9.2484,9.2484,9.2484,9.2484,9.2484,9.2484,9.2484,9.2484,9.2484,9.2484,9.2484,9.2484,9.2484,9.2484,9.2484,9.2484,9.2484,9.2484,9.2484,9.2484,9.2484,9.2484,9.2484,9.2484,9.2484,9.2484,9.2484,9.2484,9.2484,9.2484,9.2484,9.2484,9.2484,9.2484,9.2503,9.2492,9.2492,9.2505,9.2476,9.2402,9.2402,9.2383,7.4077,7.6823,7.8834,7.8138,7.7486,7.7713,8.0569,8.0188,7.984,8.1813,8.3244,8.425,8.4675,8.5759,8.6526,8.6332,8.7067,8.7918,8.8814,8.9627,9.0478,9.1329,9.16,9.1716,9.1716,9.1716,9.1716,9.1716,9.1716,9.1716,9.1716,9.1716,9.1716,9.1716,9.1716,9.1716,9.1716,9.1019,9.0168,8.9208,8.8648,8.7817,8.6848,8.8667,9.0234,9.1566,9.1954,9.211,9.211,9.211,9.211,9.211,9.211,9.2143,9.2201,9.2201,9.2251,9.2324,9.2313,9.2309,9.2309,9.2309,9.2373,9.2383,9.242,9.2442,9.2484,9.2484,9.2484,9.2484,9.2484,9.2484,9.2484,9.2484,9.2484,9.2484,9.2484,9.2484,9.2484,9.2484,9.2484,9.2484,9.2484,9.2484,9.2484,9.2484,9.2484,9.2484,9.2484,9.2484,9.2484,9.2484,9.2484,9.2484,9.2484,9.2484,9.2484,9.2484,9.2484,9.2484,9.2484,9.2484,9.2484,9.2484,9.2503,9.2492,9.2492,9.2505,9.2476,9.2402,9.2402,9.2383,7.4193,7.6707,7.8564,7.9337,7.7945,7.7293,8.0724,8.0188,7.984,8.2825,8.3792,8.4366,8.514,8.6029,8.6603,8.6603,8.7338,8.8196,8.9092,8.9898,9.071,9.16,9.1716,9.1716,9.1716,9.1716,9.1716,9.1716,9.1716,9.1716,9.1716,9.1716,9.1716,9.1716,9.1716,9.1716,9.1716,9.0826,9.0014,8.9208,8.8454,8.8079,8.814,8.9054,9.0439,9.211,9.211,9.211,9.211,9.211,9.211,9.211,9.211,9.216,9.2193,9.2193,9.2242,9.2282,9.2276,9.2259,9.2269,9.2276,9.2311,9.2375,9.2417,9.2471,9.2484,9.2484,9.2484,9.2484,9.2484,9.2484,9.2484,9.2484,9.2484,9.2484,9.2484,9.2484,9.2484,9.2484,9.2484,9.2484,9.2484,9.2484,9.2484,9.2484,9.2484,9.2484,9.2484,9.2484,9.2484,9.2484,9.2484,9.2484,9.2484,9.2484,9.2484,9.2484,9.2484,9.2484,9.2484,9.2484,9.2484,9.2484,9.2512,9.2507,9.2507,9.2496,9.2476,9.2448,9.2435,9.245,7.4463,7.6713,7.8293,8.0685,7.8912,7.7403,8.0382,8.0105,8.0034,8.3051,8.3902,8.4405,8.5333,8.61,8.6603,8.6603,8.7454,8.8389,8.9092,9.0014,9.0903,9.16,9.1716,9.1716,9.1716,9.1716,9.1716,9.1716,9.1716,9.1716,9.1716,9.1716,9.1716,9.1716,9.1716,9.1716,9.1716,9.071,8.9859,8.9208,8.8299,8.8462,8.9507,8.9507,9.0439,9.211,9.211,9.211,9.211,9.211,9.211,9.211,9.211,9.2137,9.2191,9.2191,9.2234,9.2269,9.22,9.2191,9.2179,9.2274,9.2276,9.2311,9.2449,9.2493,9.2484,9.2484,9.2484,9.2484,9.2484,9.2484,9.2484,9.2484,9.2484,9.2484,9.2484,9.2484,9.2484,9.2484,9.2484,9.2484,9.2484,9.2484,9.2484,9.2484,9.2484,9.2484,9.2484,9.2484,9.2484,9.2484,9.2484,9.2484,9.2484,9.2484,9.2484,9.2484,9.2484,9.2484,9.2484,9.2484,9.2484,9.2484,9.2484,9.2484,9.2484,9.2484,9.2512,9.2492,9.2505,9.2476,7.2336,7.5353,7.8138,7.9911,7.895,7.7829,7.9067,7.9685,8.0376,8.1613,8.3051,8.4598,8.6145,8.6526,8.6603,8.6603,8.7963,8.9092,8.9169,9.0555,9.1561,9.1677,9.1716,9.1716,9.1716,9.1716,9.1716,9.1716,9.1716,9.1716,9.1716,9.1716,9.1716,9.1716,9.1716,9.1716,9.1716,9.013,8.9324,8.9169,8.7673,8.7841,8.9507,8.9507,9.0439,9.211,9.211,9.211,9.211,9.211,9.211,9.211,9.211,9.2125,9.2112,9.2112,9.2132,9.2113,9.2122,9.2112,9.2108,9.2175,9.2259,9.2302,9.2382,9.2445,9.2484,9.2484,9.2484,9.2484,9.2484,9.2484,9.2484,9.2484,9.2484,9.2484,9.2484,9.2484,9.2484,9.2484,9.2484,9.2484,9.2484,9.2484,9.2484,9.2484,9.2484,9.2484,9.2484,9.2484,9.2484,9.2484,9.2484,9.2484,9.2484,9.2484,9.2484,9.2484,9.2484,9.2484,9.2484,9.2484,9.2484,9.2484,9.2484,9.2484,9.2484,9.2484,9.2512,9.2492,9.2505,9.2476,7.1988,7.5469,7.8099,7.9801,7.9299,7.8525,7.8912,7.9608,8.0453,8.1304,8.2509,8.3863,8.5565,8.6255,8.6603,8.6603,8.8041,8.9208,8.9208,9.0633,9.1716,9.1716,9.1716,9.1716,9.1716,9.1716,9.1716,9.1716,9.1716,9.1716,9.1716,9.1716,9.1716,9.1716,9.1716,9.1716,9.1716,9.0055,8.8759,8.7903,8.7181,8.7797,8.9507,8.9507,9.0439,9.211,9.211,9.211,9.211,9.211,9.211,9.211,9.211,9.211,9.211,9.211,9.211,9.211,9.211,9.211,9.2107,9.218,9.2248,9.23,9.238,9.2448,9.2484,9.2484,9.2484,9.2484,9.2484,9.2484,9.2484,9.2484,9.2484,9.2484,9.2484,9.2484,9.2484,9.2484,9.2484,9.2484,9.2484,9.2484,9.2484,9.2484,9.2484,9.2484,9.2484,9.2484,9.2484,9.2484,9.2484,9.2484,9.2484,9.2484,9.2484,9.2484,9.2484,9.2484,9.2484,9.2484,9.2484,9.2484,9.2484,9.2484,9.2484,9.2484,9.2518,9.2509,9.2488,9.2461,7.1678,7.4773,7.69,7.9028,7.895,7.8448,7.8912,7.9608,8.0376,8.1033,8.2045,8.3173,8.4443,8.5526,8.6332,8.6564,8.7886,8.8853,8.8853,9.0323,9.1367,9.1367,9.1367,9.1445,9.1677,9.1484,9.1445,9.1677,9.1716,9.1716,9.1716,9.1716,9.1716,9.1716,9.1716,9.1716,9.1716,9.0043,8.844,8.6899,8.6899,8.7823,8.9507,8.9507,9.0439,9.211,9.211,9.211,9.211,9.211,9.211,9.211,9.211,9.211,9.211,9.211,9.211,9.211,9.211,9.211,9.2107,9.218,9.2225,9.2272,9.2332,9.2419,9.2469,9.2469,9.2497,9.2484,9.2484,9.2484,9.2484,9.2484,9.2484,9.2484,9.2484,9.2484,9.2484,9.2484,9.2484,9.2484,9.2484,9.2484,9.2484,9.2484,9.2484,9.2484,9.2484,9.2484,9.2484,9.2484,9.2484,9.2484,9.2484,9.2484,9.2484,9.2484,9.2484,9.2484,9.2484,9.2484,9.2484,9.2484,9.2484,9.2484,9.2484,9.2484,9.2484,9.2482,9.2496,9.251,7.0672,7.2142,7.3651,7.7016,7.7177,7.6984,7.8602,7.9608,8.0221,8.026,8.162,8.2825,8.2902,8.425,8.5643,8.6448,8.7377,8.7957,8.7957,8.9395,9.0478,9.0478,9.0478,9.0787,9.1638,9.0942,9.0826,9.1638,9.1716,9.1716,9.1716,9.1716,9.1716,9.1716,9.1716,9.1716,9.1716,9.0043,8.844,8.6899,8.6899,8.7823,8.9507,8.9507,9.0439,9.211,9.211,9.211,9.211,9.211,9.211,9.211,9.211,9.211,9.211,9.211,9.211,9.211,9.211,9.211,9.2107,9.218,9.2197,9.2234,9.2268,9.2331,9.2422,9.2422,9.2447,9.2484,9.2484,9.2484,9.2484,9.2484,9.2484,9.2484,9.2484,9.2484,9.2484,9.2484,9.2484,9.2484,9.2484,9.2484,9.2484,9.2484,9.2484,9.2484,9.2484,9.2484,9.2484,9.2484,9.2484,9.2484,9.2484,9.2484,9.2484,9.2484,9.2484,9.2484,9.2484,9.2484,9.2484,9.2484,9.2484,9.2484,9.2484,9.2484,9.2484,9.2482,9.2517,9.2493,6.9788,7.1529,7.3148,7.5469,7.7055,7.7945,7.7448,7.926,8.0724,7.9647,8.0769,8.2122,8.2709,8.4173,8.541,8.572,8.6951,8.7918,8.7918,8.8892,8.9634,8.9634,8.9634,8.9743,9.0052,8.982,8.9975,9.0787,9.0865,9.1097,9.1677,9.1716,9.1716,9.1716,9.1716,9.1486,9.1005,9.0404,8.9591,8.8582,8.8582,8.9181,9.0328,9.0328,9.0983,9.211,9.211,9.211,9.211,9.211,9.211,9.211,9.211,9.211,9.211,9.211,9.211,9.211,9.211,9.211,9.2081,9.2118,9.2147,9.2204,9.2216,9.23,9.2383,9.2383,9.2448,9.2484,9.2484,9.2484,9.2484,9.2484,9.2484,9.2484,9.2484,9.2484,9.2484,9.2484,9.2484,9.2484,9.2484,9.2484,9.2484,9.2484,9.2484,9.2484,9.2484,9.2484,9.2484,9.2484,9.2484,9.2484,9.2484,9.2484,9.2484,9.2484,9.2484,9.2484,9.2484,9.2484,9.2484,9.2484,9.2484,9.2484,9.2484,9.2484,9.2484,9.2482,9.2494,9.2508,6.855,7.0402,7.2065,7.3458,7.5773,7.7558,7.6984,7.8602,8.0143,7.9879,8.0492,8.1343,8.22,8.3515,8.4559,8.4869,8.6107,8.7028,8.7028,8.8041,8.8776,8.8776,8.8776,8.8892,8.9169,8.8931,8.9201,9.0323,9.04,9.0787,9.1638,9.1716,9.1716,9.1716,9.1716,9.1359,9.0608,9.0608,9.0247,8.9507,8.9507,8.9973,9.0794,9.0794,9.1294,9.211,9.211,9.211,9.211,9.211,9.211,9.211,9.211,9.211,9.211,9.211,9.211,9.2071,9.176,9.1643,9.1643,9.1643,9.1699,9.1762,9.2074,9.2271,9.2377,9.2377,9.2416,9.2484,9.2484,9.2484,9.2484,9.2484,9.2484,9.2484,9.2484,9.2484,9.2484,9.2484,9.2484,9.2484,9.2484,9.2484,9.2484,9.2484,9.2484,9.2484,9.2484,9.2484,9.2484,9.2484,9.2484,9.2484,9.2484,9.2484,9.2484,9.2484,9.2484,9.2484,9.2484,9.2484,9.2484,9.2484,9.2484,9.2484,9.2484,9.2484,9.2484,9.2482,9.2494,9.25,0.0,0.0,0.0,7.1065,7.3264,7.5618,7.7287,7.7751,7.8486,8.0878,8.0762,8.0492,8.1304,8.2161,8.3057,8.3902,8.4714,8.5256,8.5256,8.6719,8.7802,8.7802,8.7841,8.8189,8.9053,8.835,8.8537,9.0207,9.0362,9.0749,9.1638,9.1677,9.1716,9.1716,9.1716,9.1359,9.0647,9.0647,9.0286,8.9584,8.9584,9.0012,9.0833,9.0833,9.1294,9.2071,9.2071,9.2071,9.2032,9.2071,9.2071,9.2071,9.2071,9.2071,9.2032,9.2032,9.2032,9.1915,9.1066,9.0755,9.0755,9.0755,9.0755,9.0911,9.176,9.214,9.2246,9.2248,9.2382,9.2486,9.2484,9.2484,9.2484,9.2484,9.2484,9.2484,9.2484,9.2484,9.2484,9.2484,9.2484,9.2484,9.2484,9.2484,9.2484,9.2484,9.2484,9.2484,9.2484,9.2484,9.2484,9.2484,9.2484,9.2484,9.2484,9.2484,9.2484,9.2484,9.2484,9.2484,9.2484,9.2484,9.2484,9.2484,9.2484,9.2484,9.2484,9.2482,9.2482,9.2482,9.2515,9.2456,6.6417,0.0,0.0,0.0,0.0,0.0,7.679,7.868,8.015,7.8989,8.0027,8.1033,8.0646,8.1265,8.1923,8.2193,8.3476,8.4443,8.4443,8.5333,8.6029,8.6029,8.6564,8.7028,8.7306,8.7106,8.7415,0.0,8.9163,8.9898,9.071,9.1367,9.1716,9.1716,9.1716,9.1641,9.1463,9.1514,9.1465,9.1307,9.135,9.1527,9.1721,9.1721,9.1527,9.1144,9.1144,9.0789,9.0323,9.1566,9.1721,9.1144,9.1144,9.075,9.0206,9.0206,9.0206,9.0167,8.9934,8.9856,8.9856,8.9856,8.9856,8.9895,9.0167,9.0738,9.1301,9.1338,9.1867,9.2452,9.2497,9.2484,9.2484,9.2484,9.2484,9.2484,9.2484,9.2484,9.2484,9.2484,9.2484,9.2484,9.2484,9.2484,9.2484,9.2484,9.2484,9.2484,9.2484,9.2484,9.2484,9.2484,9.2484,9.2484,9.2484,9.2484,9.2484,9.2484,9.2484,9.2484,9.2484,9.2484,9.2484,9.2484,9.2484,9.2484,9.2484,9.2509,9.25,9.25,9.2446,9.2435,6.6185,6.781,6.9512,6.9667,0.0,0.0,7.6365,7.8216,7.9918,7.984,8.042,8.0917,8.0762,8.1149,8.1497,8.1497,8.2348,8.3128,8.3521,8.425,8.4792,8.4792,8.5256,8.5681,8.6029,8.6061,8.6564,8.7802,8.8389,8.9163,9.0323,9.1213,9.1716,9.1716,9.1716,9.1712,9.1786,9.185,9.1918,9.1983,9.2083,9.211,9.211,9.1721,9.1294,9.0794,9.0405,8.9973,8.9584,9.0595,9.0711,9.025,9.025,8.9934,8.9507,8.9507,8.9507,8.9468,8.9118,8.9002,8.9002,8.9002,8.9002,8.9079,8.939,8.9887,9.0424,9.0852,9.1651,9.2421,9.2448,9.2465,9.2484,9.2484,9.2484,9.2484,9.2484,9.2484,9.2484,9.2484,9.2484,9.2484,9.2484,9.2484,9.2484,9.2484,9.2484,9.2484,9.2484,9.2484,9.2484,9.2484,9.2484,9.2484,9.2484,9.2484,9.2484,9.2484,9.2484,9.2484,9.2484,9.2484,9.2484,9.2484,9.2484,9.2514,9.2496,9.2503,9.2496,9.2515,9.2429,9.2383,6.6456,0.0,0.0,6.7849,7.0789,0.0,7.5668,7.679,7.8376,8.1355,8.0923,8.0298,8.1072,8.1304,8.1381,8.1497,8.142,8.1652,8.2509,8.3399,8.394,8.394,8.4018,8.4366,8.5101,8.5178,8.5836,8.7493,8.7802,8.8614,9.0323,9.1135,9.16,9.1716,9.1716,9.1744,9.1773,9.185,9.1912,9.1971,9.2077,9.2071,9.1915,9.1144,9.0716,9.0483,8.9701,8.9313,8.9235,8.9235,8.9274,8.9351,8.9351,8.9313,8.9235,8.9235,8.9235,8.9118,8.8419,8.8147,8.8147,8.8147,8.8147,8.8302,8.9002,8.9324,8.9646,9.0638,9.1622,9.2383,9.2383,9.2447,9.2484,9.2484,9.2484,9.2484,9.2484,9.2484,9.2484,9.2484,9.2484,9.2484,9.2484,9.2484,9.2484,9.2484,9.2484,9.2484,9.2484,9.2484,9.2484,9.2484,9.2484,9.2484,9.2484,9.2484,9.2484,9.2484,9.2484,9.2484,9.2484,9.2484,9.2484,9.2484,9.2484,9.2505,9.2498,9.2498,9.2494,9.2482,9.2411,9.238,6.8003,6.7998,6.8772,6.8578,7.1253,0.0,7.3419,7.5044,7.663,7.6624,7.8022,7.9299,7.9453,8.0027,8.0685,8.1381,8.0917,8.0762,8.1613,8.2509,8.3057,8.3057,8.3676,8.4173,8.4327,8.4327,8.4753,8.572,8.7106,8.8614,9.0323,9.0555,9.0981,9.1677,9.1716,9.1723,9.1737,9.1825,9.1894,9.1906,9.2055,9.1721,9.1066,9.0872,9.0051,8.8769,8.8613,8.8147,8.7492,8.7492,8.7914,8.8536,8.8536,8.8108,8.7492,8.7492,8.7492,8.7453,8.7297,8.7259,8.7259,8.7259,8.7259,8.7297,8.7453,8.7983,8.8865,9.045,9.1622,9.2383,9.2383,9.2447,9.2484,9.2484,9.2484,9.2484,9.2484,9.2484,9.2484,9.2484,9.2484,9.2484,9.2484,9.2484,9.2484,9.2484,9.2484,9.2484,9.2484,9.2484,9.2484,9.2484,9.2484,9.2484,9.2484,9.2484,9.2484,9.2484,9.2484,9.2484,9.2484,9.2484,9.2484,9.2484,9.2484,9.251,9.2485,9.2513,9.2479,9.2412,9.2402,9.2395,6.9435,6.8777,6.8888,6.9319,7.1021,0.0,0.0,7.485,7.5856,7.632,7.7442,7.8486,7.8912,7.9337,7.9879,8.0724,8.0492,8.0221,8.0266,8.1349,8.2161,8.2161,8.2548,8.2973,8.3399,8.3444,8.3979,8.5217,8.6526,8.7802,8.9085,8.9936,9.0594,9.1058,9.1484,9.1716,9.1716,9.1786,9.1857,9.1888,9.1983,9.1617,9.0794,9.0367,8.9468,8.8264,8.7836,8.7414,8.6987,8.6987,8.7259,8.7642,8.7642,8.7375,8.6987,8.6987,8.6987,8.6987,8.6987,8.6987,8.6987,8.6987,8.6987,8.6987,8.6987,8.7603,8.8556,8.983,9.0885,9.1751,9.2247,9.2383,9.2442,9.2493,9.2484,9.2484,9.2484,9.2484,9.2484,9.2484,9.2484,9.2484,9.2484,9.2484,9.2484,9.2484,9.2484,9.2484,9.2484,9.2484,9.2484,9.2484,9.2484,9.2484,9.2484,9.2484,9.2484,9.2484,9.2484,9.2484,9.2484,9.2484,9.2484,9.2484,9.2484,9.2509,9.2513,9.25,9.2468,9.2415,9.2398,9.2388,7.1065,6.9783,6.9203,6.9827,7.0523,7.1601,0.0,0.0,0.0,7.6397,7.6862,7.721,7.8099,7.837,7.8486,7.8486,7.9028,7.9067,7.7945,7.9647,8.1033,8.1033,8.1304,8.1691,8.2238,8.3367,8.4327,8.5024,8.6648,8.7686,8.7879,8.9201,9.0052,9.04,9.1097,9.1522,9.1716,9.1785,9.1819,9.1888,9.1948,9.1473,9.0522,8.9818,8.8963,8.7992,8.7297,8.6987,8.6987,8.6987,8.6987,8.6987,8.6987,8.6987,8.6987,8.6987,8.6987,8.6987,8.6987,8.6987,8.6987,8.6987,8.6987,8.6987,8.6987,8.7603,8.8458,8.9274,9.0163,9.1103,9.2073,9.2369,9.242,9.2461,9.2484,9.2484,9.2484,9.2484,9.2484,9.2484,9.2484,9.2484,9.2484,9.2484,9.2484,9.2484,9.2484,9.2484,9.2484,9.2484,9.2484,9.2484,9.2484,9.2484,9.2484,9.2484,9.2484,9.2484,9.2484,9.2484,9.2484,9.2484,9.2484,9.2484,9.252,9.2498,9.2493,9.2487,9.2465,9.2393,9.2402,9.2388,7.3187,7.1098,6.9904,6.9982,7.0059,7.0214,7.0523,0.0,7.2026,7.2993,0.0,7.4579,7.5386,0.0,0.0,7.28,7.485,7.6016,7.3651,7.6784,7.9299,7.9299,8.0608,8.1226,8.0575,8.5333,8.7313,8.4443,8.8505,9.0161,8.8034,8.8073,8.8846,9.0362,9.0516,9.0903,9.1677,9.1785,9.1819,9.1888,9.1948,9.1157,8.9623,8.9546,8.8652,8.7142,8.7025,8.6987,8.6987,8.6987,8.6987,8.6987,8.6987,8.6987,8.6987,8.6987,8.6987,8.6987,8.6987,8.6987,8.6987,8.6987,8.6987,8.6987,8.6987,8.7603,8.8458,8.9274,9.0163,9.1103,9.2073,9.2369,9.242,9.2461,9.2484,9.2484,9.2484,9.2484,9.2484,9.2484,9.2484,9.2484,9.2484,9.2484,9.2484,9.2484,9.2484,9.2484,9.2484,9.2484,9.2484,9.2484,9.2484,9.2484,9.2484,9.2484,9.2484,9.2484,9.2484,9.2484,9.2484,9.2484,9.2484,9.2484,9.2505,9.2483,9.2493,9.2423,9.2393,9.2395,9.2391,9.2388,7.496,7.3883,7.3579,7.3071,7.3728,7.4193,7.3187,0.0,7.2761,0.0,0.0,0.0,0.0,0.0,0.0,0.0,7.4695,7.5276,7.4187,7.6049,7.7867,7.8873,0.0,0.0,8.0994,8.4598,8.6145,8.425,8.6996,8.8273,8.7183,8.7144,8.7925,8.9665,9.0168,9.0826,9.1677,9.1785,9.1819,9.1888,9.1449,9.0619,8.9468,8.9002,8.8147,8.6987,8.6987,8.6987,8.6987,8.6987,8.6987,8.6987,8.6987,8.6987,8.6987,8.6987,8.6987,8.6987,8.6987,8.6987,8.6987,8.6987,8.6987,8.6987,8.6987,8.7259,8.7836,8.9118,8.9455,8.9721,9.1122,9.1498,9.1559,9.1717,9.2099,9.2446,9.2493,9.2484,9.2484,9.2484,9.2484,9.2484,9.2484,9.2484,9.2484,9.2484,9.2484,9.2484,9.2484,9.2484,9.2484,9.2484,9.2484,9.2484,9.2484,9.2484,9.2484,9.2484,9.2484,9.2484,9.2484,9.2484,9.2484,9.2484,9.2503,9.252,9.2493,9.242,9.2386,9.2388,9.2388,9.2388,7.6624,7.6088,7.6249,7.5624,7.6243,0.0,0.0,0.0,0.0,0.0,0.0,0.0,0.0,0.0,0.0,0.0,0.0,7.3375,7.2446,7.3883,7.5746,7.7713,0.0,0.0,0.0,8.4714,8.6145,8.3902,0.0,8.7886,8.6029,8.6332,8.719,8.8428,8.9511,9.0478,9.1329,9.163,9.1819,9.1888,9.1061,9.0269,8.9468,8.8652,8.7836,8.6987,8.6987,8.6987,8.6987,8.6987,8.6987,8.6987,8.6987,8.6987,8.6987,8.6987,8.6987,8.6987,8.6987,8.6987,8.6987,8.6987,8.6987,8.6987,8.6987,8.7181,8.7603,8.8846,8.9079,8.9285,9.0563,9.0914,9.1022,9.144,9.1797,9.2146,9.246,9.2484,9.2484,9.2484,9.2484,9.2484,9.2484,9.2484,9.2484,9.2484,9.2484,9.2484,9.2484,9.2484,9.2484,9.2484,9.2484,9.2484,9.2484,9.2484,9.2484,9.2484,9.2484,9.2484,9.2484,9.2484,9.2484,9.2484,9.2496,9.2513,9.2493,9.2411,9.2415,9.2388,9.2388,9.2388,0.0,0.0,0.0,7.6365,0.0,0.0,0.0,0.0,7.3651,0.0,0.0,0.0,0.0,0.0,0.0,0.0,0.0,0.0,0.0,0.0,7.2413,0.0,0.0,0.0,0.0,8.7074,8.9085,0.0,8.975,0.0,8.4521,8.572,8.6642,8.668,8.835,8.9634,9.0439,9.1327,9.1819,9.1888,9.1061,9.0269,8.9468,8.8652,8.7836,8.6987,8.6987,8.6987,8.6987,8.6987,8.6987,8.6987,8.6987,8.6987,8.6987,8.6987,8.6987,8.6987,8.6987,8.6987,8.6987,8.6987,8.6987,8.6987,8.6987,8.7603,8.8264,8.8302,8.9507,9.0767,9.0875,9.0914,9.1139,9.2143,9.1797,9.1482,9.2302,9.2484,9.2484,9.2484,9.2484,9.2484,9.2484,9.2484,9.2484,9.2484,9.2484,9.2484,9.2484,9.2484,9.2484,9.2484,9.2484,9.2484,9.2484,9.2484,9.2484,9.2484,9.2484,9.2484,9.2484,9.2484,9.2484,9.2484,9.2481,9.2493,9.2493,9.2428,9.2391,9.2388,9.2388,9.2388,0.0,0.0,7.9531,7.8409,0.0,0.0,0.0,0.0,0.0,0.0,0.0,0.0,0.0,0.0,0.0,0.0,0.0,0.0,0.0,0.0,0.0,0.0,0.0,0.0,0.0,0.0,0.0,0.0,0.0,0.0,0.0,8.5449,8.6255,8.7415,8.8034,8.9008,9.04,9.0792,9.1016,9.1035,9.0286,8.9491,8.8691,8.7836,8.7297,8.6987,8.6987,8.6987,8.6987,8.6987,8.6987,8.6987,8.6987,8.6987,8.6987,8.6987,8.6987,8.6987,8.6987,8.6987,8.6987,8.6987,8.6987,8.7103,8.7681,8.8069,8.8536,8.9623,8.9934,9.0071,9.0688,9.0824,9.0924,9.1317,9.1666,9.2019,9.2342,9.2473,9.2484,9.2484,9.2484,9.2484,9.2484,9.2484,9.2484,9.2484,9.2484,9.2484,9.2484,9.2484,9.2484,9.2484,9.2484,9.2484,9.2484,9.2484,9.2484,9.2484,9.2484,9.2484,9.2484,9.2484,9.2484,9.2484,9.2496,9.2517,9.2517,9.2482,9.2447,9.2386,9.2386,9.2412,7.9801,8.0221,0.0,7.9685,8.1078,0.0,8.0994,0.0,7.868,0.0,0.0,0.0,0.0,0.0,0.0,0.0,0.0,0.0,0.0,6.9938,0.0,0.0,0.0,0.0,0.0,0.0,0.0,0.0,0.0,0.0,0.0,0.0,8.5797,8.6951,8.757,8.8582,8.9975,9.0391,9.0608,9.0576,8.9842,8.9079,8.8264,8.7414,8.6987,8.6987,8.6987,8.6987,8.6987,8.6987,8.6987,8.6987,8.6987,8.6987,8.6987,8.6987,8.6987,8.6987,8.6987,8.6987,8.7064,8.7375,8.7448,8.7603,8.8458,8.8924,8.9274,8.9779,9.0167,9.04,9.0361,9.0561,9.0888,9.1264,9.1595,9.1956,9.2303,9.2446,9.2484,9.2484,9.2484,9.2484,9.2484,9.2484,9.2484,9.2484,9.2484,9.2484,9.2484,9.2484,9.2484,9.2484,9.2484,9.2484,9.2484,9.2484,9.2484,9.2484,9.2484,9.2484,9.2484,9.2484,9.2484,9.2484,9.2503,9.2492,9.2492,9.2505,9.2482,9.242,9.242,9.2402]}]]